﻿<?xml version="1.0" encoding="UTF-8" standalone="no" ?>
<gpx xmlns="http://www.topografix.com/GPX/1/1" creator="CompeGPS" version="1.1" xmlns:xsi="http://www.w3.org/2001/XMLSchema-instance" xsi:schemaLocation="http://www.topografix.com/GPX/1/1 http://www.topografix.com/GPX/1/1/gpx.xsd http://www.garmin.com/xmlschemas/GpxExtensions/v3 http://www.garmin.com/xmlschemas/GpxExtensionsv3.xsd http://www.garmin.com/xmlschemas/TrackPointExtension/v1 http://www.garmin.com/xmlschemas/TrackPointExtensionv1.xsd" xmlns:gpxtpx="http://www.garmin.com/xmlschemas/TrackPointExtension/v1">
  <metadata>
    <link href="http://www.compegps.com">
      <text>CompeGPS TEAM, SL</text>
    </link>
    <time>2013-11-10T10:50:29Z</time>
    <bounds maxlat="42.852215" maxlon="0.518004" minlat="42.813430" minlon="0.458504"/>
  </metadata>
  <trk>
    <name>espiau</name>
    <trkseg>
      <trkpt lat="42.817597" lon="0.487147">
        <ele>1289.4</ele>
        <time>2013-11-09T08:13:49Z</time>
      </trkpt>
      <trkpt lat="42.817610" lon="0.487280">
        <ele>1289.9</ele>
        <time>2013-11-09T08:14:20Z</time>
      </trkpt>
      <trkpt lat="42.817647" lon="0.487411">
        <ele>1291.4</ele>
        <time>2013-11-09T08:14:34Z</time>
      </trkpt>
      <trkpt lat="42.817595" lon="0.487560">
        <ele>1292.6</ele>
        <time>2013-11-09T08:14:45Z</time>
      </trkpt>
      <trkpt lat="42.817541" lon="0.487683">
        <ele>1293.1</ele>
        <time>2013-11-09T08:14:55Z</time>
      </trkpt>
      <trkpt lat="42.817483" lon="0.487780">
        <ele>1293.3</ele>
        <time>2013-11-09T08:15:07Z</time>
      </trkpt>
      <trkpt lat="42.817467" lon="0.487921">
        <ele>1293.2</ele>
        <time>2013-11-09T08:15:21Z</time>
      </trkpt>
      <trkpt lat="42.817426" lon="0.488051">
        <ele>1293.6</ele>
        <time>2013-11-09T08:15:31Z</time>
      </trkpt>
      <trkpt lat="42.817420" lon="0.488182">
        <ele>1294.4</ele>
        <time>2013-11-09T08:15:40Z</time>
      </trkpt>
      <trkpt lat="42.817424" lon="0.488315">
        <ele>1295.9</ele>
        <time>2013-11-09T08:15:49Z</time>
      </trkpt>
      <trkpt lat="42.817429" lon="0.488447">
        <ele>1297.7</ele>
        <time>2013-11-09T08:15:59Z</time>
      </trkpt>
      <trkpt lat="42.817419" lon="0.488574">
        <ele>1299.9</ele>
        <time>2013-11-09T08:16:10Z</time>
      </trkpt>
      <trkpt lat="42.817404" lon="0.488701">
        <ele>1302.1</ele>
        <time>2013-11-09T08:16:24Z</time>
      </trkpt>
      <trkpt lat="42.817368" lon="0.488825">
        <ele>1303.2</ele>
        <time>2013-11-09T08:16:33Z</time>
      </trkpt>
      <trkpt lat="42.817325" lon="0.488949">
        <ele>1304.9</ele>
        <time>2013-11-09T08:16:42Z</time>
      </trkpt>
      <trkpt lat="42.817279" lon="0.489071">
        <ele>1306.6</ele>
        <time>2013-11-09T08:16:51Z</time>
      </trkpt>
      <trkpt lat="42.817236" lon="0.489201">
        <ele>1308.3</ele>
        <time>2013-11-09T08:17:00Z</time>
      </trkpt>
      <trkpt lat="42.817192" lon="0.489310">
        <ele>1310.1</ele>
        <time>2013-11-09T08:17:09Z</time>
      </trkpt>
      <trkpt lat="42.817153" lon="0.489439">
        <ele>1311.3</ele>
        <time>2013-11-09T08:17:18Z</time>
      </trkpt>
      <trkpt lat="42.817122" lon="0.489557">
        <ele>1312.9</ele>
        <time>2013-11-09T08:17:26Z</time>
      </trkpt>
      <trkpt lat="42.817086" lon="0.489670">
        <ele>1314.9</ele>
        <time>2013-11-09T08:17:35Z</time>
      </trkpt>
      <trkpt lat="42.817047" lon="0.489775">
        <ele>1316.7</ele>
        <time>2013-11-09T08:17:44Z</time>
      </trkpt>
      <trkpt lat="42.817019" lon="0.489890">
        <ele>1318.6</ele>
        <time>2013-11-09T08:17:54Z</time>
      </trkpt>
      <trkpt lat="42.816989" lon="0.490007">
        <ele>1320.6</ele>
        <time>2013-11-09T08:18:03Z</time>
      </trkpt>
      <trkpt lat="42.816948" lon="0.490129">
        <ele>1322.5</ele>
        <time>2013-11-09T08:18:12Z</time>
      </trkpt>
      <trkpt lat="42.816884" lon="0.490219">
        <ele>1324.5</ele>
        <time>2013-11-09T08:18:21Z</time>
      </trkpt>
      <trkpt lat="42.816825" lon="0.490307">
        <ele>1326.0</ele>
        <time>2013-11-09T08:18:29Z</time>
      </trkpt>
      <trkpt lat="42.816774" lon="0.490413">
        <ele>1327.7</ele>
        <time>2013-11-09T08:18:38Z</time>
      </trkpt>
      <trkpt lat="42.816723" lon="0.490500">
        <ele>1329.0</ele>
        <time>2013-11-09T08:18:46Z</time>
      </trkpt>
      <trkpt lat="42.816663" lon="0.490598">
        <ele>1329.8</ele>
        <time>2013-11-09T08:18:54Z</time>
      </trkpt>
      <trkpt lat="42.816615" lon="0.490692">
        <ele>1330.8</ele>
        <time>2013-11-09T08:19:02Z</time>
      </trkpt>
      <trkpt lat="42.816560" lon="0.490784">
        <ele>1331.9</ele>
        <time>2013-11-09T08:19:10Z</time>
      </trkpt>
      <trkpt lat="42.816505" lon="0.490886">
        <ele>1333.1</ele>
        <time>2013-11-09T08:19:19Z</time>
      </trkpt>
      <trkpt lat="42.816437" lon="0.490977">
        <ele>1334.0</ele>
        <time>2013-11-09T08:19:27Z</time>
      </trkpt>
      <trkpt lat="42.816379" lon="0.491056">
        <ele>1335.3</ele>
        <time>2013-11-09T08:19:35Z</time>
      </trkpt>
      <trkpt lat="42.816308" lon="0.491142">
        <ele>1336.1</ele>
        <time>2013-11-09T08:19:43Z</time>
      </trkpt>
      <trkpt lat="42.816251" lon="0.491235">
        <ele>1337.2</ele>
        <time>2013-11-09T08:19:51Z</time>
      </trkpt>
      <trkpt lat="42.816193" lon="0.491355">
        <ele>1339.2</ele>
        <time>2013-11-09T08:20:00Z</time>
      </trkpt>
      <trkpt lat="42.816148" lon="0.491461">
        <ele>1340.8</ele>
        <time>2013-11-09T08:20:09Z</time>
      </trkpt>
      <trkpt lat="42.816098" lon="0.491563">
        <ele>1342.0</ele>
        <time>2013-11-09T08:20:18Z</time>
      </trkpt>
      <trkpt lat="42.816049" lon="0.491668">
        <ele>1343.6</ele>
        <time>2013-11-09T08:20:26Z</time>
      </trkpt>
      <trkpt lat="42.816003" lon="0.491783">
        <ele>1345.0</ele>
        <time>2013-11-09T08:20:36Z</time>
      </trkpt>
      <trkpt lat="42.815948" lon="0.491892">
        <ele>1348.1</ele>
        <time>2013-11-09T08:20:47Z</time>
      </trkpt>
      <trkpt lat="42.815881" lon="0.491982">
        <ele>1349.2</ele>
        <time>2013-11-09T08:20:56Z</time>
      </trkpt>
      <trkpt lat="42.815815" lon="0.492070">
        <ele>1350.2</ele>
        <time>2013-11-09T08:21:05Z</time>
      </trkpt>
      <trkpt lat="42.815759" lon="0.492163">
        <ele>1351.8</ele>
        <time>2013-11-09T08:21:14Z</time>
      </trkpt>
      <trkpt lat="42.815702" lon="0.492255">
        <ele>1353.4</ele>
        <time>2013-11-09T08:21:24Z</time>
      </trkpt>
      <trkpt lat="42.815653" lon="0.492351">
        <ele>1355.2</ele>
        <time>2013-11-09T08:21:34Z</time>
      </trkpt>
      <trkpt lat="42.815605" lon="0.492448">
        <ele>1357.5</ele>
        <time>2013-11-09T08:21:47Z</time>
      </trkpt>
      <trkpt lat="42.815552" lon="0.492545">
        <ele>1359.2</ele>
        <time>2013-11-09T08:22:08Z</time>
      </trkpt>
      <trkpt lat="42.815475" lon="0.492630">
        <ele>1359.9</ele>
        <time>2013-11-09T08:22:18Z</time>
      </trkpt>
      <trkpt lat="42.815404" lon="0.492713">
        <ele>1361.1</ele>
        <time>2013-11-09T08:22:28Z</time>
      </trkpt>
      <trkpt lat="42.815357" lon="0.492819">
        <ele>1362.7</ele>
        <time>2013-11-09T08:22:38Z</time>
      </trkpt>
      <trkpt lat="42.815417" lon="0.492830">
        <ele>1365.7</ele>
        <time>2013-11-09T08:22:53Z</time>
      </trkpt>
      <trkpt lat="42.815467" lon="0.492895">
        <ele>1369.2</ele>
        <time>2013-11-09T08:23:07Z</time>
      </trkpt>
      <trkpt lat="42.815516" lon="0.492971">
        <ele>1373.7</ele>
        <time>2013-11-09T08:23:24Z</time>
      </trkpt>
      <trkpt lat="42.815560" lon="0.493057">
        <ele>1377.9</ele>
        <time>2013-11-09T08:23:42Z</time>
      </trkpt>
      <trkpt lat="42.815555" lon="0.493176">
        <ele>1382.3</ele>
        <time>2013-11-09T08:23:59Z</time>
      </trkpt>
      <trkpt lat="42.815646" lon="0.493144">
        <ele>1385.1</ele>
        <time>2013-11-09T08:24:23Z</time>
      </trkpt>
      <trkpt lat="42.815714" lon="0.493164">
        <ele>1387.5</ele>
        <time>2013-11-09T08:26:04Z</time>
      </trkpt>
      <trkpt lat="42.815690" lon="0.493181">
        <ele>1388.6</ele>
        <time>2013-11-09T08:28:40Z</time>
      </trkpt>
      <trkpt lat="42.815627" lon="0.493293">
        <ele>1390.1</ele>
        <time>2013-11-09T08:28:52Z</time>
      </trkpt>
      <trkpt lat="42.815553" lon="0.493402">
        <ele>1391.6</ele>
        <time>2013-11-09T08:29:02Z</time>
      </trkpt>
      <trkpt lat="42.815486" lon="0.493499">
        <ele>1392.9</ele>
        <time>2013-11-09T08:29:11Z</time>
      </trkpt>
      <trkpt lat="42.815418" lon="0.493584">
        <ele>1393.8</ele>
        <time>2013-11-09T08:29:19Z</time>
      </trkpt>
      <trkpt lat="42.815337" lon="0.493663">
        <ele>1395.3</ele>
        <time>2013-11-09T08:29:28Z</time>
      </trkpt>
      <trkpt lat="42.815397" lon="0.493694">
        <ele>1397.2</ele>
        <time>2013-11-09T08:29:44Z</time>
      </trkpt>
      <trkpt lat="42.815492" lon="0.493673">
        <ele>1398.9</ele>
        <time>2013-11-09T08:29:56Z</time>
      </trkpt>
      <trkpt lat="42.815550" lon="0.493685">
        <ele>1400.7</ele>
        <time>2013-11-09T08:30:07Z</time>
      </trkpt>
      <trkpt lat="42.815544" lon="0.493804">
        <ele>1403.2</ele>
        <time>2013-11-09T08:30:19Z</time>
      </trkpt>
      <trkpt lat="42.815541" lon="0.493919">
        <ele>1406.5</ele>
        <time>2013-11-09T08:30:33Z</time>
      </trkpt>
      <trkpt lat="42.815471" lon="0.494019">
        <ele>1407.9</ele>
        <time>2013-11-09T08:30:45Z</time>
      </trkpt>
      <trkpt lat="42.815403" lon="0.494123">
        <ele>1409.0</ele>
        <time>2013-11-09T08:30:54Z</time>
      </trkpt>
      <trkpt lat="42.815344" lon="0.494233">
        <ele>1410.1</ele>
        <time>2013-11-09T08:31:03Z</time>
      </trkpt>
      <trkpt lat="42.815298" lon="0.494343">
        <ele>1411.1</ele>
        <time>2013-11-09T08:31:11Z</time>
      </trkpt>
      <trkpt lat="42.815279" lon="0.494466">
        <ele>1412.2</ele>
        <time>2013-11-09T08:31:20Z</time>
      </trkpt>
      <trkpt lat="42.815279" lon="0.494594">
        <ele>1413.9</ele>
        <time>2013-11-09T08:31:30Z</time>
      </trkpt>
      <trkpt lat="42.815295" lon="0.494720">
        <ele>1415.7</ele>
        <time>2013-11-09T08:31:40Z</time>
      </trkpt>
      <trkpt lat="42.815305" lon="0.494862">
        <ele>1417.8</ele>
        <time>2013-11-09T08:31:50Z</time>
      </trkpt>
      <trkpt lat="42.815296" lon="0.494985">
        <ele>1420.0</ele>
        <time>2013-11-09T08:32:00Z</time>
      </trkpt>
      <trkpt lat="42.815313" lon="0.495118">
        <ele>1421.8</ele>
        <time>2013-11-09T08:32:10Z</time>
      </trkpt>
      <trkpt lat="42.815339" lon="0.495239">
        <ele>1423.3</ele>
        <time>2013-11-09T08:32:27Z</time>
      </trkpt>
      <trkpt lat="42.815373" lon="0.495369">
        <ele>1423.4</ele>
        <time>2013-11-09T08:32:35Z</time>
      </trkpt>
      <trkpt lat="42.815396" lon="0.495490">
        <ele>1424.0</ele>
        <time>2013-11-09T08:32:43Z</time>
      </trkpt>
      <trkpt lat="42.815407" lon="0.495632">
        <ele>1424.3</ele>
        <time>2013-11-09T08:32:51Z</time>
      </trkpt>
      <trkpt lat="42.815444" lon="0.495744">
        <ele>1423.9</ele>
        <time>2013-11-09T08:32:58Z</time>
      </trkpt>
      <trkpt lat="42.815487" lon="0.495864">
        <ele>1423.7</ele>
        <time>2013-11-09T08:33:05Z</time>
      </trkpt>
      <trkpt lat="42.815534" lon="0.495976">
        <ele>1423.7</ele>
        <time>2013-11-09T08:33:13Z</time>
      </trkpt>
      <trkpt lat="42.815603" lon="0.496060">
        <ele>1422.9</ele>
        <time>2013-11-09T08:33:22Z</time>
      </trkpt>
      <trkpt lat="42.815696" lon="0.496123">
        <ele>1422.3</ele>
        <time>2013-11-09T08:33:30Z</time>
      </trkpt>
      <trkpt lat="42.815788" lon="0.496182">
        <ele>1421.6</ele>
        <time>2013-11-09T08:33:37Z</time>
      </trkpt>
      <trkpt lat="42.815884" lon="0.496234">
        <ele>1421.0</ele>
        <time>2013-11-09T08:33:45Z</time>
      </trkpt>
      <trkpt lat="42.815972" lon="0.496263">
        <ele>1420.2</ele>
        <time>2013-11-09T08:33:52Z</time>
      </trkpt>
      <trkpt lat="42.816057" lon="0.496297">
        <ele>1419.2</ele>
        <time>2013-11-09T08:34:00Z</time>
      </trkpt>
      <trkpt lat="42.816153" lon="0.496319">
        <ele>1418.7</ele>
        <time>2013-11-09T08:34:11Z</time>
      </trkpt>
      <trkpt lat="42.816228" lon="0.496375">
        <ele>1417.4</ele>
        <time>2013-11-09T08:35:03Z</time>
      </trkpt>
      <trkpt lat="42.816330" lon="0.496413">
        <ele>1416.1</ele>
        <time>2013-11-09T08:35:12Z</time>
      </trkpt>
      <trkpt lat="42.816423" lon="0.496446">
        <ele>1414.8</ele>
        <time>2013-11-09T08:35:19Z</time>
      </trkpt>
      <trkpt lat="42.816516" lon="0.496502">
        <ele>1412.9</ele>
        <time>2013-11-09T08:35:28Z</time>
      </trkpt>
      <trkpt lat="42.816599" lon="0.496564">
        <ele>1411.4</ele>
        <time>2013-11-09T08:35:37Z</time>
      </trkpt>
      <trkpt lat="42.816695" lon="0.496609">
        <ele>1409.9</ele>
        <time>2013-11-09T08:35:45Z</time>
      </trkpt>
      <trkpt lat="42.816785" lon="0.496648">
        <ele>1408.1</ele>
        <time>2013-11-09T08:35:53Z</time>
      </trkpt>
      <trkpt lat="42.816883" lon="0.496689">
        <ele>1406.4</ele>
        <time>2013-11-09T08:36:01Z</time>
      </trkpt>
      <trkpt lat="42.816974" lon="0.496727">
        <ele>1404.7</ele>
        <time>2013-11-09T08:36:08Z</time>
      </trkpt>
      <trkpt lat="42.817064" lon="0.496766">
        <ele>1402.9</ele>
        <time>2013-11-09T08:36:15Z</time>
      </trkpt>
      <trkpt lat="42.817155" lon="0.496817">
        <ele>1401.9</ele>
        <time>2013-11-09T08:36:22Z</time>
      </trkpt>
      <trkpt lat="42.817241" lon="0.496873">
        <ele>1400.8</ele>
        <time>2013-11-09T08:36:29Z</time>
      </trkpt>
      <trkpt lat="42.817329" lon="0.496941">
        <ele>1399.2</ele>
        <time>2013-11-09T08:36:37Z</time>
      </trkpt>
      <trkpt lat="42.817417" lon="0.497002">
        <ele>1397.8</ele>
        <time>2013-11-09T08:36:44Z</time>
      </trkpt>
      <trkpt lat="42.817506" lon="0.497068">
        <ele>1396.7</ele>
        <time>2013-11-09T08:36:52Z</time>
      </trkpt>
      <trkpt lat="42.817587" lon="0.497160">
        <ele>1395.9</ele>
        <time>2013-11-09T08:37:00Z</time>
      </trkpt>
      <trkpt lat="42.817663" lon="0.497257">
        <ele>1394.6</ele>
        <time>2013-11-09T08:37:08Z</time>
      </trkpt>
      <trkpt lat="42.817752" lon="0.497343">
        <ele>1393.9</ele>
        <time>2013-11-09T08:37:15Z</time>
      </trkpt>
      <trkpt lat="42.817827" lon="0.497418">
        <ele>1393.4</ele>
        <time>2013-11-09T08:37:22Z</time>
      </trkpt>
      <trkpt lat="42.817862" lon="0.497523">
        <ele>1392.3</ele>
        <time>2013-11-09T08:37:31Z</time>
      </trkpt>
      <trkpt lat="42.817765" lon="0.497557">
        <ele>1389.9</ele>
        <time>2013-11-09T08:37:42Z</time>
      </trkpt>
      <trkpt lat="42.817641" lon="0.497533">
        <ele>1385.5</ele>
        <time>2013-11-09T08:37:56Z</time>
      </trkpt>
      <trkpt lat="42.817520" lon="0.497539">
        <ele>1381.9</ele>
        <time>2013-11-09T08:38:07Z</time>
      </trkpt>
      <trkpt lat="42.817381" lon="0.497564">
        <ele>1378.2</ele>
        <time>2013-11-09T08:38:17Z</time>
      </trkpt>
      <trkpt lat="42.817248" lon="0.497591">
        <ele>1374.1</ele>
        <time>2013-11-09T08:38:29Z</time>
      </trkpt>
      <trkpt lat="42.817111" lon="0.497637">
        <ele>1369.9</ele>
        <time>2013-11-09T08:38:41Z</time>
      </trkpt>
      <trkpt lat="42.816983" lon="0.497670">
        <ele>1366.7</ele>
        <time>2013-11-09T08:38:51Z</time>
      </trkpt>
      <trkpt lat="42.816849" lon="0.497701">
        <ele>1363.1</ele>
        <time>2013-11-09T08:39:01Z</time>
      </trkpt>
      <trkpt lat="42.816745" lon="0.497732">
        <ele>1359.4</ele>
        <time>2013-11-09T08:39:11Z</time>
      </trkpt>
      <trkpt lat="42.816618" lon="0.497781">
        <ele>1355.9</ele>
        <time>2013-11-09T08:39:22Z</time>
      </trkpt>
      <trkpt lat="42.816498" lon="0.497850">
        <ele>1352.0</ele>
        <time>2013-11-09T08:39:32Z</time>
      </trkpt>
      <trkpt lat="42.816478" lon="0.497945">
        <ele>1347.4</ele>
        <time>2013-11-09T08:39:45Z</time>
      </trkpt>
      <trkpt lat="42.816576" lon="0.497960">
        <ele>1347.2</ele>
        <time>2013-11-09T08:39:57Z</time>
      </trkpt>
      <trkpt lat="42.816674" lon="0.497963">
        <ele>1348.1</ele>
        <time>2013-11-09T08:40:08Z</time>
      </trkpt>
      <trkpt lat="42.816782" lon="0.497977">
        <ele>1349.5</ele>
        <time>2013-11-09T08:40:18Z</time>
      </trkpt>
      <trkpt lat="42.816886" lon="0.498006">
        <ele>1350.7</ele>
        <time>2013-11-09T08:40:27Z</time>
      </trkpt>
      <trkpt lat="42.816939" lon="0.498147">
        <ele>1350.8</ele>
        <time>2013-11-09T08:40:38Z</time>
      </trkpt>
      <trkpt lat="42.816973" lon="0.498291">
        <ele>1350.2</ele>
        <time>2013-11-09T08:40:47Z</time>
      </trkpt>
      <trkpt lat="42.817010" lon="0.498455">
        <ele>1351.4</ele>
        <time>2013-11-09T08:40:58Z</time>
      </trkpt>
      <trkpt lat="42.817028" lon="0.498631">
        <ele>1353.1</ele>
        <time>2013-11-09T08:41:09Z</time>
      </trkpt>
      <trkpt lat="42.817024" lon="0.498776">
        <ele>1355.4</ele>
        <time>2013-11-09T08:41:20Z</time>
      </trkpt>
      <trkpt lat="42.817012" lon="0.498921">
        <ele>1358.0</ele>
        <time>2013-11-09T08:41:32Z</time>
      </trkpt>
      <trkpt lat="42.816989" lon="0.499093">
        <ele>1359.9</ele>
        <time>2013-11-09T08:41:43Z</time>
      </trkpt>
      <trkpt lat="42.816952" lon="0.499233">
        <ele>1361.5</ele>
        <time>2013-11-09T08:41:54Z</time>
      </trkpt>
      <trkpt lat="42.816930" lon="0.499366">
        <ele>1363.4</ele>
        <time>2013-11-09T08:42:05Z</time>
      </trkpt>
      <trkpt lat="42.816885" lon="0.499500">
        <ele>1366.2</ele>
        <time>2013-11-09T08:42:18Z</time>
      </trkpt>
      <trkpt lat="42.816831" lon="0.499610">
        <ele>1367.9</ele>
        <time>2013-11-09T08:42:27Z</time>
      </trkpt>
      <trkpt lat="42.816764" lon="0.499707">
        <ele>1368.9</ele>
        <time>2013-11-09T08:42:36Z</time>
      </trkpt>
      <trkpt lat="42.816678" lon="0.499797">
        <ele>1369.5</ele>
        <time>2013-11-09T08:42:44Z</time>
      </trkpt>
      <trkpt lat="42.816605" lon="0.499897">
        <ele>1369.9</ele>
        <time>2013-11-09T08:42:52Z</time>
      </trkpt>
      <trkpt lat="42.816527" lon="0.500007">
        <ele>1370.7</ele>
        <time>2013-11-09T08:43:01Z</time>
      </trkpt>
      <trkpt lat="42.816438" lon="0.500142">
        <ele>1371.8</ele>
        <time>2013-11-09T08:43:24Z</time>
      </trkpt>
      <trkpt lat="42.816353" lon="0.500216">
        <ele>1371.8</ele>
        <time>2013-11-09T08:43:32Z</time>
      </trkpt>
      <trkpt lat="42.816263" lon="0.500288">
        <ele>1372.1</ele>
        <time>2013-11-09T08:43:40Z</time>
      </trkpt>
      <trkpt lat="42.816172" lon="0.500360">
        <ele>1372.4</ele>
        <time>2013-11-09T08:43:48Z</time>
      </trkpt>
      <trkpt lat="42.816087" lon="0.500443">
        <ele>1372.6</ele>
        <time>2013-11-09T08:43:56Z</time>
      </trkpt>
      <trkpt lat="42.815989" lon="0.500503">
        <ele>1373.0</ele>
        <time>2013-11-09T08:44:04Z</time>
      </trkpt>
      <trkpt lat="42.815906" lon="0.500573">
        <ele>1373.5</ele>
        <time>2013-11-09T08:44:12Z</time>
      </trkpt>
      <trkpt lat="42.815803" lon="0.500632">
        <ele>1373.6</ele>
        <time>2013-11-09T08:44:20Z</time>
      </trkpt>
      <trkpt lat="42.815703" lon="0.500642">
        <ele>1372.3</ele>
        <time>2013-11-09T08:44:27Z</time>
      </trkpt>
      <trkpt lat="42.815590" lon="0.500678">
        <ele>1370.3</ele>
        <time>2013-11-09T08:44:34Z</time>
      </trkpt>
      <trkpt lat="42.815497" lon="0.500725">
        <ele>1368.7</ele>
        <time>2013-11-09T08:44:41Z</time>
      </trkpt>
      <trkpt lat="42.815402" lon="0.500784">
        <ele>1367.9</ele>
        <time>2013-11-09T08:44:49Z</time>
      </trkpt>
      <trkpt lat="42.815316" lon="0.500857">
        <ele>1367.6</ele>
        <time>2013-11-09T08:44:56Z</time>
      </trkpt>
      <trkpt lat="42.815219" lon="0.500928">
        <ele>1367.5</ele>
        <time>2013-11-09T08:45:04Z</time>
      </trkpt>
      <trkpt lat="42.815128" lon="0.501003">
        <ele>1367.7</ele>
        <time>2013-11-09T08:45:12Z</time>
      </trkpt>
      <trkpt lat="42.815044" lon="0.501072">
        <ele>1367.8</ele>
        <time>2013-11-09T08:45:20Z</time>
      </trkpt>
      <trkpt lat="42.814948" lon="0.501118">
        <ele>1368.2</ele>
        <time>2013-11-09T08:45:28Z</time>
      </trkpt>
      <trkpt lat="42.814866" lon="0.501180">
        <ele>1368.5</ele>
        <time>2013-11-09T08:45:36Z</time>
      </trkpt>
      <trkpt lat="42.814778" lon="0.501225">
        <ele>1368.7</ele>
        <time>2013-11-09T08:45:43Z</time>
      </trkpt>
      <trkpt lat="42.814683" lon="0.501261">
        <ele>1368.8</ele>
        <time>2013-11-09T08:45:50Z</time>
      </trkpt>
      <trkpt lat="42.814585" lon="0.501290">
        <ele>1368.3</ele>
        <time>2013-11-09T08:45:57Z</time>
      </trkpt>
      <trkpt lat="42.814500" lon="0.501338">
        <ele>1367.3</ele>
        <time>2013-11-09T08:46:04Z</time>
      </trkpt>
      <trkpt lat="42.814401" lon="0.501397">
        <ele>1366.6</ele>
        <time>2013-11-09T08:46:12Z</time>
      </trkpt>
      <trkpt lat="42.814311" lon="0.501451">
        <ele>1366.1</ele>
        <time>2013-11-09T08:46:19Z</time>
      </trkpt>
      <trkpt lat="42.814229" lon="0.501512">
        <ele>1365.4</ele>
        <time>2013-11-09T08:46:26Z</time>
      </trkpt>
      <trkpt lat="42.814148" lon="0.501591">
        <ele>1364.2</ele>
        <time>2013-11-09T08:46:33Z</time>
      </trkpt>
      <trkpt lat="42.814079" lon="0.501666">
        <ele>1363.2</ele>
        <time>2013-11-09T08:46:40Z</time>
      </trkpt>
      <trkpt lat="42.814005" lon="0.501729">
        <ele>1362.0</ele>
        <time>2013-11-09T08:46:47Z</time>
      </trkpt>
      <trkpt lat="42.813936" lon="0.501816">
        <ele>1360.6</ele>
        <time>2013-11-09T08:46:54Z</time>
      </trkpt>
      <trkpt lat="42.813870" lon="0.501909">
        <ele>1359.1</ele>
        <time>2013-11-09T08:47:01Z</time>
      </trkpt>
      <trkpt lat="42.813807" lon="0.502011">
        <ele>1357.8</ele>
        <time>2013-11-09T08:47:08Z</time>
      </trkpt>
      <trkpt lat="42.813754" lon="0.502121">
        <ele>1356.4</ele>
        <time>2013-11-09T08:47:15Z</time>
      </trkpt>
      <trkpt lat="42.813702" lon="0.502220">
        <ele>1354.9</ele>
        <time>2013-11-09T08:47:22Z</time>
      </trkpt>
      <trkpt lat="42.813657" lon="0.502340">
        <ele>1352.7</ele>
        <time>2013-11-09T08:47:30Z</time>
      </trkpt>
      <trkpt lat="42.813611" lon="0.502450">
        <ele>1351.0</ele>
        <time>2013-11-09T08:47:37Z</time>
      </trkpt>
      <trkpt lat="42.813554" lon="0.502579">
        <ele>1349.4</ele>
        <time>2013-11-09T08:47:45Z</time>
      </trkpt>
      <trkpt lat="42.813517" lon="0.502696">
        <ele>1347.6</ele>
        <time>2013-11-09T08:47:52Z</time>
      </trkpt>
      <trkpt lat="42.813494" lon="0.502822">
        <ele>1345.9</ele>
        <time>2013-11-09T08:47:59Z</time>
      </trkpt>
      <trkpt lat="42.813459" lon="0.502953">
        <ele>1344.3</ele>
        <time>2013-11-09T08:48:06Z</time>
      </trkpt>
      <trkpt lat="42.813449" lon="0.503085">
        <ele>1343.0</ele>
        <time>2013-11-09T08:48:13Z</time>
      </trkpt>
      <trkpt lat="42.813451" lon="0.503223">
        <ele>1341.7</ele>
        <time>2013-11-09T08:48:21Z</time>
      </trkpt>
      <trkpt lat="42.813430" lon="0.503344">
        <ele>1341.0</ele>
        <time>2013-11-09T08:48:28Z</time>
      </trkpt>
      <trkpt lat="42.813440" lon="0.503460">
        <ele>1340.7</ele>
        <time>2013-11-09T08:48:40Z</time>
      </trkpt>
      <trkpt lat="42.813462" lon="0.503588">
        <ele>1340.6</ele>
        <time>2013-11-09T08:48:49Z</time>
      </trkpt>
      <trkpt lat="42.813478" lon="0.503721">
        <ele>1340.8</ele>
        <time>2013-11-09T08:48:57Z</time>
      </trkpt>
      <trkpt lat="42.813501" lon="0.503844">
        <ele>1341.0</ele>
        <time>2013-11-09T08:49:05Z</time>
      </trkpt>
      <trkpt lat="42.813537" lon="0.503979">
        <ele>1341.4</ele>
        <time>2013-11-09T08:49:13Z</time>
      </trkpt>
      <trkpt lat="42.813575" lon="0.504095">
        <ele>1341.9</ele>
        <time>2013-11-09T08:49:20Z</time>
      </trkpt>
      <trkpt lat="42.813605" lon="0.504226">
        <ele>1342.3</ele>
        <time>2013-11-09T08:49:28Z</time>
      </trkpt>
      <trkpt lat="42.813636" lon="0.504354">
        <ele>1342.8</ele>
        <time>2013-11-09T08:49:36Z</time>
      </trkpt>
      <trkpt lat="42.813669" lon="0.504488">
        <ele>1343.2</ele>
        <time>2013-11-09T08:49:44Z</time>
      </trkpt>
      <trkpt lat="42.813715" lon="0.504601">
        <ele>1343.9</ele>
        <time>2013-11-09T08:49:52Z</time>
      </trkpt>
      <trkpt lat="42.813775" lon="0.504694">
        <ele>1344.2</ele>
        <time>2013-11-09T08:49:58Z</time>
      </trkpt>
      <trkpt lat="42.813843" lon="0.504773">
        <ele>1344.2</ele>
        <time>2013-11-09T08:50:05Z</time>
      </trkpt>
      <trkpt lat="42.813933" lon="0.504853">
        <ele>1344.5</ele>
        <time>2013-11-09T08:50:13Z</time>
      </trkpt>
      <trkpt lat="42.814015" lon="0.504903">
        <ele>1345.1</ele>
        <time>2013-11-09T08:50:20Z</time>
      </trkpt>
      <trkpt lat="42.814102" lon="0.504948">
        <ele>1345.8</ele>
        <time>2013-11-09T08:50:27Z</time>
      </trkpt>
      <trkpt lat="42.814197" lon="0.505002">
        <ele>1345.9</ele>
        <time>2013-11-09T08:50:35Z</time>
      </trkpt>
      <trkpt lat="42.814272" lon="0.505042">
        <ele>1346.0</ele>
        <time>2013-11-09T08:50:42Z</time>
      </trkpt>
      <trkpt lat="42.814368" lon="0.505081">
        <ele>1346.2</ele>
        <time>2013-11-09T08:50:49Z</time>
      </trkpt>
      <trkpt lat="42.814463" lon="0.505136">
        <ele>1346.6</ele>
        <time>2013-11-09T08:50:57Z</time>
      </trkpt>
      <trkpt lat="42.814556" lon="0.505172">
        <ele>1346.5</ele>
        <time>2013-11-09T08:51:03Z</time>
      </trkpt>
      <trkpt lat="42.814645" lon="0.505222">
        <ele>1346.7</ele>
        <time>2013-11-09T08:51:11Z</time>
      </trkpt>
      <trkpt lat="42.814735" lon="0.505289">
        <ele>1347.0</ele>
        <time>2013-11-09T08:51:19Z</time>
      </trkpt>
      <trkpt lat="42.814835" lon="0.505349">
        <ele>1347.3</ele>
        <time>2013-11-09T08:51:27Z</time>
      </trkpt>
      <trkpt lat="42.814920" lon="0.505397">
        <ele>1347.6</ele>
        <time>2013-11-09T08:51:34Z</time>
      </trkpt>
      <trkpt lat="42.815007" lon="0.505438">
        <ele>1347.5</ele>
        <time>2013-11-09T08:51:41Z</time>
      </trkpt>
      <trkpt lat="42.815105" lon="0.505467">
        <ele>1347.9</ele>
        <time>2013-11-09T08:51:49Z</time>
      </trkpt>
      <trkpt lat="42.815200" lon="0.505508">
        <ele>1348.8</ele>
        <time>2013-11-09T08:51:57Z</time>
      </trkpt>
      <trkpt lat="42.815287" lon="0.505550">
        <ele>1349.4</ele>
        <time>2013-11-09T08:52:04Z</time>
      </trkpt>
      <trkpt lat="42.815381" lon="0.505587">
        <ele>1349.9</ele>
        <time>2013-11-09T08:52:11Z</time>
      </trkpt>
      <trkpt lat="42.815470" lon="0.505611">
        <ele>1350.2</ele>
        <time>2013-11-09T08:52:18Z</time>
      </trkpt>
      <trkpt lat="42.815559" lon="0.505627">
        <ele>1350.7</ele>
        <time>2013-11-09T08:52:25Z</time>
      </trkpt>
      <trkpt lat="42.815656" lon="0.505640">
        <ele>1351.2</ele>
        <time>2013-11-09T08:52:33Z</time>
      </trkpt>
      <trkpt lat="42.815753" lon="0.505663">
        <ele>1351.4</ele>
        <time>2013-11-09T08:52:41Z</time>
      </trkpt>
      <trkpt lat="42.815844" lon="0.505677">
        <ele>1352.0</ele>
        <time>2013-11-09T08:52:48Z</time>
      </trkpt>
      <trkpt lat="42.815946" lon="0.505697">
        <ele>1352.5</ele>
        <time>2013-11-09T08:52:56Z</time>
      </trkpt>
      <trkpt lat="42.816053" lon="0.505713">
        <ele>1352.6</ele>
        <time>2013-11-09T08:53:03Z</time>
      </trkpt>
      <trkpt lat="42.816146" lon="0.505722">
        <ele>1353.3</ele>
        <time>2013-11-09T08:53:11Z</time>
      </trkpt>
      <trkpt lat="42.816250" lon="0.505727">
        <ele>1353.8</ele>
        <time>2013-11-09T08:53:19Z</time>
      </trkpt>
      <trkpt lat="42.816349" lon="0.505729">
        <ele>1354.1</ele>
        <time>2013-11-09T08:53:27Z</time>
      </trkpt>
      <trkpt lat="42.816442" lon="0.505742">
        <ele>1354.5</ele>
        <time>2013-11-09T08:53:34Z</time>
      </trkpt>
      <trkpt lat="42.816535" lon="0.505746">
        <ele>1354.6</ele>
        <time>2013-11-09T08:53:42Z</time>
      </trkpt>
      <trkpt lat="42.816640" lon="0.505751">
        <ele>1355.1</ele>
        <time>2013-11-09T08:53:49Z</time>
      </trkpt>
      <trkpt lat="42.816737" lon="0.505750">
        <ele>1355.2</ele>
        <time>2013-11-09T08:53:56Z</time>
      </trkpt>
      <trkpt lat="42.816835" lon="0.505759">
        <ele>1355.5</ele>
        <time>2013-11-09T08:54:04Z</time>
      </trkpt>
      <trkpt lat="42.816928" lon="0.505763">
        <ele>1355.8</ele>
        <time>2013-11-09T08:54:11Z</time>
      </trkpt>
      <trkpt lat="42.817026" lon="0.505776">
        <ele>1356.3</ele>
        <time>2013-11-09T08:54:19Z</time>
      </trkpt>
      <trkpt lat="42.817125" lon="0.505787">
        <ele>1356.7</ele>
        <time>2013-11-09T08:54:26Z</time>
      </trkpt>
      <trkpt lat="42.817231" lon="0.505798">
        <ele>1356.9</ele>
        <time>2013-11-09T08:54:34Z</time>
      </trkpt>
      <trkpt lat="42.817341" lon="0.505802">
        <ele>1356.9</ele>
        <time>2013-11-09T08:54:42Z</time>
      </trkpt>
      <trkpt lat="42.817436" lon="0.505837">
        <ele>1356.8</ele>
        <time>2013-11-09T08:54:51Z</time>
      </trkpt>
      <trkpt lat="42.817506" lon="0.505925">
        <ele>1356.0</ele>
        <time>2013-11-09T08:54:58Z</time>
      </trkpt>
      <trkpt lat="42.817566" lon="0.506026">
        <ele>1354.7</ele>
        <time>2013-11-09T08:55:06Z</time>
      </trkpt>
      <trkpt lat="42.817628" lon="0.506144">
        <ele>1353.5</ele>
        <time>2013-11-09T08:55:14Z</time>
      </trkpt>
      <trkpt lat="42.817735" lon="0.506227">
        <ele>1352.5</ele>
        <time>2013-11-09T08:55:23Z</time>
      </trkpt>
      <trkpt lat="42.817818" lon="0.506332">
        <ele>1351.3</ele>
        <time>2013-11-09T08:55:31Z</time>
      </trkpt>
      <trkpt lat="42.817889" lon="0.506432">
        <ele>1349.8</ele>
        <time>2013-11-09T08:55:39Z</time>
      </trkpt>
      <trkpt lat="42.817988" lon="0.506516">
        <ele>1348.5</ele>
        <time>2013-11-09T08:55:47Z</time>
      </trkpt>
      <trkpt lat="42.818066" lon="0.506614">
        <ele>1346.1</ele>
        <time>2013-11-09T08:55:57Z</time>
      </trkpt>
      <trkpt lat="42.818161" lon="0.506736">
        <ele>1343.6</ele>
        <time>2013-11-09T08:56:08Z</time>
      </trkpt>
      <trkpt lat="42.818224" lon="0.506874">
        <ele>1341.7</ele>
        <time>2013-11-09T08:56:17Z</time>
      </trkpt>
      <trkpt lat="42.818252" lon="0.506999">
        <ele>1339.3</ele>
        <time>2013-11-09T08:56:25Z</time>
      </trkpt>
      <trkpt lat="42.818255" lon="0.507142">
        <ele>1335.8</ele>
        <time>2013-11-09T08:56:35Z</time>
      </trkpt>
      <trkpt lat="42.818243" lon="0.507278">
        <ele>1332.2</ele>
        <time>2013-11-09T08:56:45Z</time>
      </trkpt>
      <trkpt lat="42.818252" lon="0.507426">
        <ele>1328.9</ele>
        <time>2013-11-09T08:56:54Z</time>
      </trkpt>
      <trkpt lat="42.818267" lon="0.507554">
        <ele>1326.5</ele>
        <time>2013-11-09T08:57:02Z</time>
      </trkpt>
      <trkpt lat="42.818301" lon="0.507701">
        <ele>1323.3</ele>
        <time>2013-11-09T08:57:12Z</time>
      </trkpt>
      <trkpt lat="42.818339" lon="0.507872">
        <ele>1319.7</ele>
        <time>2013-11-09T08:57:22Z</time>
      </trkpt>
      <trkpt lat="42.818351" lon="0.508041">
        <ele>1316.8</ele>
        <time>2013-11-09T08:57:31Z</time>
      </trkpt>
      <trkpt lat="42.818358" lon="0.508179">
        <ele>1314.2</ele>
        <time>2013-11-09T08:57:39Z</time>
      </trkpt>
      <trkpt lat="42.818386" lon="0.508325">
        <ele>1310.9</ele>
        <time>2013-11-09T08:57:48Z</time>
      </trkpt>
      <trkpt lat="42.818416" lon="0.508472">
        <ele>1308.6</ele>
        <time>2013-11-09T08:57:55Z</time>
      </trkpt>
      <trkpt lat="42.818446" lon="0.508594">
        <ele>1305.2</ele>
        <time>2013-11-09T08:58:03Z</time>
      </trkpt>
      <trkpt lat="42.818500" lon="0.508708">
        <ele>1301.8</ele>
        <time>2013-11-09T08:58:15Z</time>
      </trkpt>
      <trkpt lat="42.818509" lon="0.508717">
        <ele>1301.2</ele>
        <time>2013-11-09T08:59:19Z</time>
      </trkpt>
      <trkpt lat="42.818552" lon="0.508702">
        <ele>1301.4</ele>
        <time>2013-11-09T09:00:13Z</time>
      </trkpt>
      <trkpt lat="42.818680" lon="0.508761">
        <ele>1303.5</ele>
        <time>2013-11-09T09:00:26Z</time>
      </trkpt>
      <trkpt lat="42.818781" lon="0.508858">
        <ele>1306.0</ele>
        <time>2013-11-09T09:00:41Z</time>
      </trkpt>
      <trkpt lat="42.818803" lon="0.509039">
        <ele>1308.6</ele>
        <time>2013-11-09T09:01:38Z</time>
      </trkpt>
      <trkpt lat="42.818825" lon="0.509080">
        <ele>1308.9</ele>
        <time>2013-11-09T09:02:21Z</time>
      </trkpt>
      <trkpt lat="42.818864" lon="0.509088">
        <ele>1309.0</ele>
        <time>2013-11-09T09:03:01Z</time>
      </trkpt>
      <trkpt lat="42.818886" lon="0.509252">
        <ele>1309.8</ele>
        <time>2013-11-09T09:03:14Z</time>
      </trkpt>
      <trkpt lat="42.818936" lon="0.509419">
        <ele>1310.8</ele>
        <time>2013-11-09T09:03:27Z</time>
      </trkpt>
      <trkpt lat="42.819021" lon="0.509607">
        <ele>1311.4</ele>
        <time>2013-11-09T09:03:38Z</time>
      </trkpt>
      <trkpt lat="42.818992" lon="0.509737">
        <ele>1311.7</ele>
        <time>2013-11-09T09:03:47Z</time>
      </trkpt>
      <trkpt lat="42.818919" lon="0.509864">
        <ele>1312.5</ele>
        <time>2013-11-09T09:03:58Z</time>
      </trkpt>
      <trkpt lat="42.818886" lon="0.510042">
        <ele>1314.7</ele>
        <time>2013-11-09T09:04:15Z</time>
      </trkpt>
      <trkpt lat="42.818876" lon="0.510233">
        <ele>1317.8</ele>
        <time>2013-11-09T09:04:31Z</time>
      </trkpt>
      <trkpt lat="42.818869" lon="0.510389">
        <ele>1320.0</ele>
        <time>2013-11-09T09:04:44Z</time>
      </trkpt>
      <trkpt lat="42.818830" lon="0.510547">
        <ele>1322.1</ele>
        <time>2013-11-09T09:04:56Z</time>
      </trkpt>
      <trkpt lat="42.818757" lon="0.510672">
        <ele>1323.8</ele>
        <time>2013-11-09T09:05:09Z</time>
      </trkpt>
      <trkpt lat="42.818645" lon="0.510786">
        <ele>1326.0</ele>
        <time>2013-11-09T09:05:25Z</time>
      </trkpt>
      <trkpt lat="42.818555" lon="0.510908">
        <ele>1327.5</ele>
        <time>2013-11-09T09:05:37Z</time>
      </trkpt>
      <trkpt lat="42.818473" lon="0.511056">
        <ele>1328.8</ele>
        <time>2013-11-09T09:05:54Z</time>
      </trkpt>
      <trkpt lat="42.818434" lon="0.511186">
        <ele>1330.5</ele>
        <time>2013-11-09T09:06:08Z</time>
      </trkpt>
      <trkpt lat="42.818330" lon="0.511324">
        <ele>1333.6</ele>
        <time>2013-11-09T09:06:23Z</time>
      </trkpt>
      <trkpt lat="42.818197" lon="0.511412">
        <ele>1336.4</ele>
        <time>2013-11-09T09:06:38Z</time>
      </trkpt>
      <trkpt lat="42.818172" lon="0.511535">
        <ele>1338.9</ele>
        <time>2013-11-09T09:06:56Z</time>
      </trkpt>
      <trkpt lat="42.818130" lon="0.511662">
        <ele>1341.4</ele>
        <time>2013-11-09T09:07:10Z</time>
      </trkpt>
      <trkpt lat="42.818095" lon="0.511813">
        <ele>1344.1</ele>
        <time>2013-11-09T09:07:23Z</time>
      </trkpt>
      <trkpt lat="42.818012" lon="0.511906">
        <ele>1347.5</ele>
        <time>2013-11-09T09:07:37Z</time>
      </trkpt>
      <trkpt lat="42.817927" lon="0.512016">
        <ele>1351.4</ele>
        <time>2013-11-09T09:07:53Z</time>
      </trkpt>
      <trkpt lat="42.817848" lon="0.512122">
        <ele>1355.3</ele>
        <time>2013-11-09T09:08:08Z</time>
      </trkpt>
      <trkpt lat="42.817764" lon="0.512195">
        <ele>1358.9</ele>
        <time>2013-11-09T09:08:23Z</time>
      </trkpt>
      <trkpt lat="42.817691" lon="0.512294">
        <ele>1362.6</ele>
        <time>2013-11-09T09:08:38Z</time>
      </trkpt>
      <trkpt lat="42.817596" lon="0.512350">
        <ele>1366.1</ele>
        <time>2013-11-09T09:08:53Z</time>
      </trkpt>
      <trkpt lat="42.817507" lon="0.512406">
        <ele>1369.4</ele>
        <time>2013-11-09T09:09:08Z</time>
      </trkpt>
      <trkpt lat="42.817412" lon="0.512456">
        <ele>1372.6</ele>
        <time>2013-11-09T09:09:22Z</time>
      </trkpt>
      <trkpt lat="42.817306" lon="0.512474">
        <ele>1375.4</ele>
        <time>2013-11-09T09:09:34Z</time>
      </trkpt>
      <trkpt lat="42.817226" lon="0.512545">
        <ele>1378.3</ele>
        <time>2013-11-09T09:09:46Z</time>
      </trkpt>
      <trkpt lat="42.817141" lon="0.512615">
        <ele>1380.9</ele>
        <time>2013-11-09T09:09:57Z</time>
      </trkpt>
      <trkpt lat="42.817051" lon="0.512688">
        <ele>1383.9</ele>
        <time>2013-11-09T09:10:09Z</time>
      </trkpt>
      <trkpt lat="42.816978" lon="0.512785">
        <ele>1387.4</ele>
        <time>2013-11-09T09:10:22Z</time>
      </trkpt>
      <trkpt lat="42.816927" lon="0.512888">
        <ele>1390.2</ele>
        <time>2013-11-09T09:10:33Z</time>
      </trkpt>
      <trkpt lat="42.816871" lon="0.512984">
        <ele>1393.1</ele>
        <time>2013-11-09T09:10:46Z</time>
      </trkpt>
      <trkpt lat="42.816786" lon="0.513043">
        <ele>1396.3</ele>
        <time>2013-11-09T09:10:57Z</time>
      </trkpt>
      <trkpt lat="42.816697" lon="0.513115">
        <ele>1398.8</ele>
        <time>2013-11-09T09:11:09Z</time>
      </trkpt>
      <trkpt lat="42.816603" lon="0.513189">
        <ele>1401.8</ele>
        <time>2013-11-09T09:11:22Z</time>
      </trkpt>
      <trkpt lat="42.816529" lon="0.513284">
        <ele>1404.2</ele>
        <time>2013-11-09T09:11:36Z</time>
      </trkpt>
      <trkpt lat="42.816467" lon="0.513409">
        <ele>1407.1</ele>
        <time>2013-11-09T09:11:49Z</time>
      </trkpt>
      <trkpt lat="42.816387" lon="0.513497">
        <ele>1410.6</ele>
        <time>2013-11-09T09:12:03Z</time>
      </trkpt>
      <trkpt lat="42.816311" lon="0.513589">
        <ele>1413.3</ele>
        <time>2013-11-09T09:12:15Z</time>
      </trkpt>
      <trkpt lat="42.816260" lon="0.513706">
        <ele>1416.9</ele>
        <time>2013-11-09T09:12:29Z</time>
      </trkpt>
      <trkpt lat="42.816189" lon="0.513796">
        <ele>1420.2</ele>
        <time>2013-11-09T09:12:42Z</time>
      </trkpt>
      <trkpt lat="42.816116" lon="0.513889">
        <ele>1423.0</ele>
        <time>2013-11-09T09:12:53Z</time>
      </trkpt>
      <trkpt lat="42.816051" lon="0.513979">
        <ele>1427.7</ele>
        <time>2013-11-09T09:13:17Z</time>
      </trkpt>
      <trkpt lat="42.816002" lon="0.514104">
        <ele>1429.3</ele>
        <time>2013-11-09T09:13:31Z</time>
      </trkpt>
      <trkpt lat="42.815964" lon="0.514230">
        <ele>1432.8</ele>
        <time>2013-11-09T09:13:45Z</time>
      </trkpt>
      <trkpt lat="42.815901" lon="0.514345">
        <ele>1436.1</ele>
        <time>2013-11-09T09:13:59Z</time>
      </trkpt>
      <trkpt lat="42.815851" lon="0.514467">
        <ele>1438.8</ele>
        <time>2013-11-09T09:14:12Z</time>
      </trkpt>
      <trkpt lat="42.815815" lon="0.514598">
        <ele>1441.4</ele>
        <time>2013-11-09T09:14:25Z</time>
      </trkpt>
      <trkpt lat="42.815782" lon="0.514734">
        <ele>1444.1</ele>
        <time>2013-11-09T09:14:38Z</time>
      </trkpt>
      <trkpt lat="42.815757" lon="0.514866">
        <ele>1446.6</ele>
        <time>2013-11-09T09:14:50Z</time>
      </trkpt>
      <trkpt lat="42.815750" lon="0.514999">
        <ele>1449.0</ele>
        <time>2013-11-09T09:15:01Z</time>
      </trkpt>
      <trkpt lat="42.815753" lon="0.515137">
        <ele>1451.3</ele>
        <time>2013-11-09T09:15:13Z</time>
      </trkpt>
      <trkpt lat="42.815767" lon="0.515272">
        <ele>1453.9</ele>
        <time>2013-11-09T09:15:24Z</time>
      </trkpt>
      <trkpt lat="42.815786" lon="0.515395">
        <ele>1455.8</ele>
        <time>2013-11-09T09:15:35Z</time>
      </trkpt>
      <trkpt lat="42.815822" lon="0.515507">
        <ele>1458.1</ele>
        <time>2013-11-09T09:15:46Z</time>
      </trkpt>
      <trkpt lat="42.815926" lon="0.515516">
        <ele>1461.2</ele>
        <time>2013-11-09T09:16:01Z</time>
      </trkpt>
      <trkpt lat="42.816028" lon="0.515521">
        <ele>1464.3</ele>
        <time>2013-11-09T09:16:17Z</time>
      </trkpt>
      <trkpt lat="42.816125" lon="0.515545">
        <ele>1468.0</ele>
        <time>2013-11-09T09:16:36Z</time>
      </trkpt>
      <trkpt lat="42.816207" lon="0.515463">
        <ele>1472.4</ele>
        <time>2013-11-09T09:16:51Z</time>
      </trkpt>
      <trkpt lat="42.816311" lon="0.515490">
        <ele>1476.7</ele>
        <time>2013-11-09T09:17:08Z</time>
      </trkpt>
      <trkpt lat="42.816404" lon="0.515506">
        <ele>1480.4</ele>
        <time>2013-11-09T09:17:25Z</time>
      </trkpt>
      <trkpt lat="42.816468" lon="0.515581">
        <ele>1483.3</ele>
        <time>2013-11-09T09:17:40Z</time>
      </trkpt>
      <trkpt lat="42.816562" lon="0.515614">
        <ele>1486.8</ele>
        <time>2013-11-09T09:17:57Z</time>
      </trkpt>
      <trkpt lat="42.816619" lon="0.515706">
        <ele>1490.3</ele>
        <time>2013-11-09T09:18:15Z</time>
      </trkpt>
      <trkpt lat="42.816657" lon="0.515830">
        <ele>1493.5</ele>
        <time>2013-11-09T09:18:28Z</time>
      </trkpt>
      <trkpt lat="42.816678" lon="0.515958">
        <ele>1496.8</ele>
        <time>2013-11-09T09:18:41Z</time>
      </trkpt>
      <trkpt lat="42.816689" lon="0.516080">
        <ele>1499.7</ele>
        <time>2013-11-09T09:18:53Z</time>
      </trkpt>
      <trkpt lat="42.816766" lon="0.516154">
        <ele>1502.9</ele>
        <time>2013-11-09T09:19:07Z</time>
      </trkpt>
      <trkpt lat="42.816874" lon="0.516127">
        <ele>1506.3</ele>
        <time>2013-11-09T09:19:21Z</time>
      </trkpt>
      <trkpt lat="42.816962" lon="0.516157">
        <ele>1510.2</ele>
        <time>2013-11-09T09:19:37Z</time>
      </trkpt>
      <trkpt lat="42.816997" lon="0.516261">
        <ele>1513.9</ele>
        <time>2013-11-09T09:19:59Z</time>
      </trkpt>
      <trkpt lat="42.817076" lon="0.516331">
        <ele>1518.0</ele>
        <time>2013-11-09T09:20:16Z</time>
      </trkpt>
      <trkpt lat="42.817146" lon="0.516410">
        <ele>1521.2</ele>
        <time>2013-11-09T09:20:29Z</time>
      </trkpt>
      <trkpt lat="42.817216" lon="0.516489">
        <ele>1523.6</ele>
        <time>2013-11-09T09:20:42Z</time>
      </trkpt>
      <trkpt lat="42.817303" lon="0.516538">
        <ele>1527.7</ele>
        <time>2013-11-09T09:20:58Z</time>
      </trkpt>
      <trkpt lat="42.817378" lon="0.516594">
        <ele>1530.5</ele>
        <time>2013-11-09T09:21:11Z</time>
      </trkpt>
      <trkpt lat="42.817452" lon="0.516667">
        <ele>1533.6</ele>
        <time>2013-11-09T09:21:25Z</time>
      </trkpt>
      <trkpt lat="42.817521" lon="0.516741">
        <ele>1536.2</ele>
        <time>2013-11-09T09:21:38Z</time>
      </trkpt>
      <trkpt lat="42.817605" lon="0.516793">
        <ele>1537.8</ele>
        <time>2013-11-09T09:21:44Z</time>
      </trkpt>
      <trkpt lat="42.817698" lon="0.516857">
        <ele>1541.1</ele>
        <time>2013-11-09T09:21:51Z</time>
      </trkpt>
      <trkpt lat="42.817779" lon="0.516935">
        <ele>1544.7</ele>
        <time>2013-11-09T09:21:59Z</time>
      </trkpt>
      <trkpt lat="42.817887" lon="0.516955">
        <ele>1550.9</ele>
        <time>2013-11-09T09:22:12Z</time>
      </trkpt>
      <trkpt lat="42.817962" lon="0.517005">
        <ele>1555.7</ele>
        <time>2013-11-09T09:22:24Z</time>
      </trkpt>
      <trkpt lat="42.818020" lon="0.517065">
        <ele>1559.6</ele>
        <time>2013-11-09T09:22:43Z</time>
      </trkpt>
      <trkpt lat="42.818108" lon="0.517109">
        <ele>1562.9</ele>
        <time>2013-11-09T09:23:04Z</time>
      </trkpt>
      <trkpt lat="42.818151" lon="0.517179">
        <ele>1565.3</ele>
        <time>2013-11-09T09:23:24Z</time>
      </trkpt>
      <trkpt lat="42.818247" lon="0.517208">
        <ele>1567.9</ele>
        <time>2013-11-09T09:23:36Z</time>
      </trkpt>
      <trkpt lat="42.818346" lon="0.517242">
        <ele>1570.8</ele>
        <time>2013-11-09T09:23:48Z</time>
      </trkpt>
      <trkpt lat="42.818451" lon="0.517295">
        <ele>1573.4</ele>
        <time>2013-11-09T09:24:01Z</time>
      </trkpt>
      <trkpt lat="42.818508" lon="0.517370">
        <ele>1576.5</ele>
        <time>2013-11-09T09:24:19Z</time>
      </trkpt>
      <trkpt lat="42.818586" lon="0.517459">
        <ele>1579.1</ele>
        <time>2013-11-09T09:24:39Z</time>
      </trkpt>
      <trkpt lat="42.818665" lon="0.517518">
        <ele>1582.9</ele>
        <time>2013-11-09T09:24:55Z</time>
      </trkpt>
      <trkpt lat="42.818723" lon="0.517591">
        <ele>1587.1</ele>
        <time>2013-11-09T09:25:12Z</time>
      </trkpt>
      <trkpt lat="42.818775" lon="0.517653">
        <ele>1590.9</ele>
        <time>2013-11-09T09:25:28Z</time>
      </trkpt>
      <trkpt lat="42.818822" lon="0.517706">
        <ele>1594.3</ele>
        <time>2013-11-09T09:25:48Z</time>
      </trkpt>
      <trkpt lat="42.818887" lon="0.517811">
        <ele>1597.4</ele>
        <time>2013-11-09T09:26:06Z</time>
      </trkpt>
      <trkpt lat="42.818967" lon="0.517867">
        <ele>1601.5</ele>
        <time>2013-11-09T09:26:26Z</time>
      </trkpt>
      <trkpt lat="42.819001" lon="0.517865">
        <ele>1603.3</ele>
        <time>2013-11-09T09:30:31Z</time>
      </trkpt>
      <trkpt lat="42.819082" lon="0.517922">
        <ele>1603.6</ele>
        <time>2013-11-09T09:32:02Z</time>
      </trkpt>
      <trkpt lat="42.819166" lon="0.517963">
        <ele>1602.7</ele>
        <time>2013-11-09T09:32:09Z</time>
      </trkpt>
      <trkpt lat="42.819261" lon="0.518004">
        <ele>1601.6</ele>
        <time>2013-11-09T09:32:17Z</time>
      </trkpt>
      <trkpt lat="42.819363" lon="0.518004">
        <ele>1601.5</ele>
        <time>2013-11-09T09:32:25Z</time>
      </trkpt>
      <trkpt lat="42.819459" lon="0.517982">
        <ele>1603.1</ele>
        <time>2013-11-09T09:32:35Z</time>
      </trkpt>
      <trkpt lat="42.819556" lon="0.517942">
        <ele>1605.3</ele>
        <time>2013-11-09T09:32:46Z</time>
      </trkpt>
      <trkpt lat="42.819660" lon="0.517905">
        <ele>1606.9</ele>
        <time>2013-11-09T09:32:55Z</time>
      </trkpt>
      <trkpt lat="42.819755" lon="0.517903">
        <ele>1608.4</ele>
        <time>2013-11-09T09:33:04Z</time>
      </trkpt>
      <trkpt lat="42.819847" lon="0.517909">
        <ele>1609.2</ele>
        <time>2013-11-09T09:33:13Z</time>
      </trkpt>
      <trkpt lat="42.819944" lon="0.517887">
        <ele>1610.0</ele>
        <time>2013-11-09T09:33:22Z</time>
      </trkpt>
      <trkpt lat="42.820025" lon="0.517862">
        <ele>1612.6</ele>
        <time>2013-11-09T09:33:50Z</time>
      </trkpt>
      <trkpt lat="42.820115" lon="0.517845">
        <ele>1613.0</ele>
        <time>2013-11-09T09:33:59Z</time>
      </trkpt>
      <trkpt lat="42.820206" lon="0.517826">
        <ele>1613.7</ele>
        <time>2013-11-09T09:34:06Z</time>
      </trkpt>
      <trkpt lat="42.820301" lon="0.517793">
        <ele>1615.1</ele>
        <time>2013-11-09T09:34:15Z</time>
      </trkpt>
      <trkpt lat="42.820381" lon="0.517772">
        <ele>1616.6</ele>
        <time>2013-11-09T09:34:25Z</time>
      </trkpt>
      <trkpt lat="42.820487" lon="0.517754">
        <ele>1619.0</ele>
        <time>2013-11-09T09:34:37Z</time>
      </trkpt>
      <trkpt lat="42.820587" lon="0.517730">
        <ele>1622.1</ele>
        <time>2013-11-09T09:34:50Z</time>
      </trkpt>
      <trkpt lat="42.820685" lon="0.517735">
        <ele>1624.6</ele>
        <time>2013-11-09T09:34:59Z</time>
      </trkpt>
      <trkpt lat="42.820779" lon="0.517732">
        <ele>1626.4</ele>
        <time>2013-11-09T09:35:10Z</time>
      </trkpt>
      <trkpt lat="42.820878" lon="0.517711">
        <ele>1628.3</ele>
        <time>2013-11-09T09:35:20Z</time>
      </trkpt>
      <trkpt lat="42.820972" lon="0.517698">
        <ele>1628.6</ele>
        <time>2013-11-09T09:35:28Z</time>
      </trkpt>
      <trkpt lat="42.821061" lon="0.517701">
        <ele>1628.1</ele>
        <time>2013-11-09T09:35:35Z</time>
      </trkpt>
      <trkpt lat="42.821150" lon="0.517693">
        <ele>1628.1</ele>
        <time>2013-11-09T09:35:43Z</time>
      </trkpt>
      <trkpt lat="42.821243" lon="0.517680">
        <ele>1628.8</ele>
        <time>2013-11-09T09:35:52Z</time>
      </trkpt>
      <trkpt lat="42.821323" lon="0.517646">
        <ele>1629.3</ele>
        <time>2013-11-09T09:36:00Z</time>
      </trkpt>
      <trkpt lat="42.821409" lon="0.517631">
        <ele>1630.6</ele>
        <time>2013-11-09T09:36:09Z</time>
      </trkpt>
      <trkpt lat="42.821490" lon="0.517615">
        <ele>1632.2</ele>
        <time>2013-11-09T09:36:17Z</time>
      </trkpt>
      <trkpt lat="42.821575" lon="0.517599">
        <ele>1635.2</ele>
        <time>2013-11-09T09:36:30Z</time>
      </trkpt>
      <trkpt lat="42.821661" lon="0.517584">
        <ele>1637.7</ele>
        <time>2013-11-09T09:36:43Z</time>
      </trkpt>
      <trkpt lat="42.821759" lon="0.517568">
        <ele>1641.7</ele>
        <time>2013-11-09T09:36:57Z</time>
      </trkpt>
      <trkpt lat="42.821837" lon="0.517554">
        <ele>1642.5</ele>
        <time>2013-11-09T09:37:08Z</time>
      </trkpt>
      <trkpt lat="42.821921" lon="0.517533">
        <ele>1640.4</ele>
        <time>2013-11-09T09:37:16Z</time>
      </trkpt>
      <trkpt lat="42.822008" lon="0.517480">
        <ele>1639.0</ele>
        <time>2013-11-09T09:37:24Z</time>
      </trkpt>
      <trkpt lat="42.822097" lon="0.517444">
        <ele>1638.3</ele>
        <time>2013-11-09T09:37:32Z</time>
      </trkpt>
      <trkpt lat="42.822181" lon="0.517407">
        <ele>1637.8</ele>
        <time>2013-11-09T09:37:40Z</time>
      </trkpt>
      <trkpt lat="42.822274" lon="0.517358">
        <ele>1638.0</ele>
        <time>2013-11-09T09:37:49Z</time>
      </trkpt>
      <trkpt lat="42.822355" lon="0.517324">
        <ele>1638.7</ele>
        <time>2013-11-09T09:37:57Z</time>
      </trkpt>
      <trkpt lat="42.822438" lon="0.517266">
        <ele>1639.2</ele>
        <time>2013-11-09T09:38:06Z</time>
      </trkpt>
      <trkpt lat="42.822514" lon="0.517237">
        <ele>1639.4</ele>
        <time>2013-11-09T09:38:14Z</time>
      </trkpt>
      <trkpt lat="42.822609" lon="0.517204">
        <ele>1640.3</ele>
        <time>2013-11-09T09:38:23Z</time>
      </trkpt>
      <trkpt lat="42.822686" lon="0.517185">
        <ele>1641.6</ele>
        <time>2013-11-09T09:40:02Z</time>
      </trkpt>
      <trkpt lat="42.822792" lon="0.517136">
        <ele>1642.8</ele>
        <time>2013-11-09T09:40:14Z</time>
      </trkpt>
      <trkpt lat="42.822898" lon="0.517124">
        <ele>1644.4</ele>
        <time>2013-11-09T09:40:25Z</time>
      </trkpt>
      <trkpt lat="42.822994" lon="0.517096">
        <ele>1646.5</ele>
        <time>2013-11-09T09:40:35Z</time>
      </trkpt>
      <trkpt lat="42.823091" lon="0.517097">
        <ele>1648.4</ele>
        <time>2013-11-09T09:40:46Z</time>
      </trkpt>
      <trkpt lat="42.823191" lon="0.517085">
        <ele>1651.1</ele>
        <time>2013-11-09T09:40:58Z</time>
      </trkpt>
      <trkpt lat="42.823288" lon="0.517078">
        <ele>1652.8</ele>
        <time>2013-11-09T09:41:09Z</time>
      </trkpt>
      <trkpt lat="42.823387" lon="0.517076">
        <ele>1654.4</ele>
        <time>2013-11-09T09:41:19Z</time>
      </trkpt>
      <trkpt lat="42.823489" lon="0.517084">
        <ele>1656.6</ele>
        <time>2013-11-09T09:41:31Z</time>
      </trkpt>
      <trkpt lat="42.823594" lon="0.517098">
        <ele>1658.7</ele>
        <time>2013-11-09T09:41:42Z</time>
      </trkpt>
      <trkpt lat="42.823704" lon="0.517123">
        <ele>1661.4</ele>
        <time>2013-11-09T09:41:56Z</time>
      </trkpt>
      <trkpt lat="42.823803" lon="0.517156">
        <ele>1662.8</ele>
        <time>2013-11-09T09:42:06Z</time>
      </trkpt>
      <trkpt lat="42.823892" lon="0.517098">
        <ele>1665.2</ele>
        <time>2013-11-09T09:42:18Z</time>
      </trkpt>
      <trkpt lat="42.823963" lon="0.517076">
        <ele>1668.0</ele>
        <time>2013-11-09T09:42:31Z</time>
      </trkpt>
      <trkpt lat="42.824054" lon="0.517021">
        <ele>1672.6</ele>
        <time>2013-11-09T09:42:44Z</time>
      </trkpt>
      <trkpt lat="42.824170" lon="0.516990">
        <ele>1676.1</ele>
        <time>2013-11-09T09:42:57Z</time>
      </trkpt>
      <trkpt lat="42.824259" lon="0.516960">
        <ele>1678.3</ele>
        <time>2013-11-09T09:43:10Z</time>
      </trkpt>
      <trkpt lat="42.824347" lon="0.516991">
        <ele>1679.8</ele>
        <time>2013-11-09T09:43:22Z</time>
      </trkpt>
      <trkpt lat="42.824439" lon="0.516999">
        <ele>1682.5</ele>
        <time>2013-11-09T09:43:35Z</time>
      </trkpt>
      <trkpt lat="42.824535" lon="0.517023">
        <ele>1684.8</ele>
        <time>2013-11-09T09:43:48Z</time>
      </trkpt>
      <trkpt lat="42.824619" lon="0.517066">
        <ele>1688.2</ele>
        <time>2013-11-09T09:44:00Z</time>
      </trkpt>
      <trkpt lat="42.824706" lon="0.517108">
        <ele>1692.1</ele>
        <time>2013-11-09T09:44:15Z</time>
      </trkpt>
      <trkpt lat="42.824790" lon="0.517175">
        <ele>1695.8</ele>
        <time>2013-11-09T09:44:28Z</time>
      </trkpt>
      <trkpt lat="42.824872" lon="0.517230">
        <ele>1699.4</ele>
        <time>2013-11-09T09:44:42Z</time>
      </trkpt>
      <trkpt lat="42.824953" lon="0.517278">
        <ele>1702.6</ele>
        <time>2013-11-09T09:44:55Z</time>
      </trkpt>
      <trkpt lat="42.825040" lon="0.517304">
        <ele>1706.1</ele>
        <time>2013-11-09T09:45:08Z</time>
      </trkpt>
      <trkpt lat="42.825114" lon="0.517334">
        <ele>1708.9</ele>
        <time>2013-11-09T09:45:22Z</time>
      </trkpt>
      <trkpt lat="42.825205" lon="0.517331">
        <ele>1712.0</ele>
        <time>2013-11-09T09:45:38Z</time>
      </trkpt>
      <trkpt lat="42.825298" lon="0.517309">
        <ele>1714.5</ele>
        <time>2013-11-09T09:45:51Z</time>
      </trkpt>
      <trkpt lat="42.825396" lon="0.517257">
        <ele>1717.2</ele>
        <time>2013-11-09T09:46:02Z</time>
      </trkpt>
      <trkpt lat="42.825493" lon="0.517264">
        <ele>1719.7</ele>
        <time>2013-11-09T09:46:13Z</time>
      </trkpt>
      <trkpt lat="42.825603" lon="0.517279">
        <ele>1722.8</ele>
        <time>2013-11-09T09:46:27Z</time>
      </trkpt>
      <trkpt lat="42.825704" lon="0.517326">
        <ele>1724.6</ele>
        <time>2013-11-09T09:46:40Z</time>
      </trkpt>
      <trkpt lat="42.825784" lon="0.517377">
        <ele>1726.6</ele>
        <time>2013-11-09T09:46:50Z</time>
      </trkpt>
      <trkpt lat="42.825872" lon="0.517440">
        <ele>1728.7</ele>
        <time>2013-11-09T09:47:01Z</time>
      </trkpt>
      <trkpt lat="42.825973" lon="0.517483">
        <ele>1731.6</ele>
        <time>2013-11-09T09:47:13Z</time>
      </trkpt>
      <trkpt lat="42.826063" lon="0.517537">
        <ele>1734.2</ele>
        <time>2013-11-09T09:47:24Z</time>
      </trkpt>
      <trkpt lat="42.826164" lon="0.517557">
        <ele>1736.5</ele>
        <time>2013-11-09T09:47:35Z</time>
      </trkpt>
      <trkpt lat="42.826260" lon="0.517581">
        <ele>1738.9</ele>
        <time>2013-11-09T09:47:45Z</time>
      </trkpt>
      <trkpt lat="42.826355" lon="0.517591">
        <ele>1740.8</ele>
        <time>2013-11-09T09:47:57Z</time>
      </trkpt>
      <trkpt lat="42.826444" lon="0.517578">
        <ele>1741.7</ele>
        <time>2013-11-09T09:48:06Z</time>
      </trkpt>
      <trkpt lat="42.826531" lon="0.517577">
        <ele>1742.9</ele>
        <time>2013-11-09T09:48:16Z</time>
      </trkpt>
      <trkpt lat="42.826635" lon="0.517575">
        <ele>1744.4</ele>
        <time>2013-11-09T09:48:27Z</time>
      </trkpt>
      <trkpt lat="42.826728" lon="0.517565">
        <ele>1745.8</ele>
        <time>2013-11-09T09:48:37Z</time>
      </trkpt>
      <trkpt lat="42.826823" lon="0.517545">
        <ele>1746.9</ele>
        <time>2013-11-09T09:48:45Z</time>
      </trkpt>
      <trkpt lat="42.826914" lon="0.517531">
        <ele>1748.0</ele>
        <time>2013-11-09T09:48:55Z</time>
      </trkpt>
      <trkpt lat="42.826954" lon="0.517562">
        <ele>1749.4</ele>
        <time>2013-11-09T09:49:45Z</time>
      </trkpt>
      <trkpt lat="42.826996" lon="0.517620">
        <ele>1749.7</ele>
        <time>2013-11-09T09:51:53Z</time>
      </trkpt>
      <trkpt lat="42.827082" lon="0.517600">
        <ele>1750.2</ele>
        <time>2013-11-09T09:54:53Z</time>
      </trkpt>
      <trkpt lat="42.827182" lon="0.517579">
        <ele>1750.3</ele>
        <time>2013-11-09T09:55:04Z</time>
      </trkpt>
      <trkpt lat="42.827285" lon="0.517556">
        <ele>1751.0</ele>
        <time>2013-11-09T09:55:14Z</time>
      </trkpt>
      <trkpt lat="42.827380" lon="0.517527">
        <ele>1752.0</ele>
        <time>2013-11-09T09:55:24Z</time>
      </trkpt>
      <trkpt lat="42.827470" lon="0.517497">
        <ele>1752.3</ele>
        <time>2013-11-09T09:55:34Z</time>
      </trkpt>
      <trkpt lat="42.827558" lon="0.517518">
        <ele>1753.2</ele>
        <time>2013-11-09T09:55:53Z</time>
      </trkpt>
      <trkpt lat="42.827653" lon="0.517532">
        <ele>1753.5</ele>
        <time>2013-11-09T09:56:02Z</time>
      </trkpt>
      <trkpt lat="42.827750" lon="0.517491">
        <ele>1753.6</ele>
        <time>2013-11-09T09:56:14Z</time>
      </trkpt>
      <trkpt lat="42.827845" lon="0.517440">
        <ele>1754.0</ele>
        <time>2013-11-09T09:56:24Z</time>
      </trkpt>
      <trkpt lat="42.827944" lon="0.517406">
        <ele>1755.1</ele>
        <time>2013-11-09T09:56:37Z</time>
      </trkpt>
      <trkpt lat="42.828061" lon="0.517403">
        <ele>1757.2</ele>
        <time>2013-11-09T09:56:49Z</time>
      </trkpt>
      <trkpt lat="42.828161" lon="0.517401">
        <ele>1758.6</ele>
        <time>2013-11-09T09:56:59Z</time>
      </trkpt>
      <trkpt lat="42.828256" lon="0.517393">
        <ele>1760.2</ele>
        <time>2013-11-09T09:57:09Z</time>
      </trkpt>
      <trkpt lat="42.828351" lon="0.517394">
        <ele>1762.3</ele>
        <time>2013-11-09T09:57:21Z</time>
      </trkpt>
      <trkpt lat="42.828438" lon="0.517397">
        <ele>1763.8</ele>
        <time>2013-11-09T09:57:30Z</time>
      </trkpt>
      <trkpt lat="42.828540" lon="0.517414">
        <ele>1765.5</ele>
        <time>2013-11-09T09:57:42Z</time>
      </trkpt>
      <trkpt lat="42.828651" lon="0.517423">
        <ele>1766.9</ele>
        <time>2013-11-09T09:57:52Z</time>
      </trkpt>
      <trkpt lat="42.828749" lon="0.517411">
        <ele>1768.1</ele>
        <time>2013-11-09T09:58:01Z</time>
      </trkpt>
      <trkpt lat="42.828845" lon="0.517399">
        <ele>1769.7</ele>
        <time>2013-11-09T09:58:11Z</time>
      </trkpt>
      <trkpt lat="42.828923" lon="0.517348">
        <ele>1770.2</ele>
        <time>2013-11-09T09:58:21Z</time>
      </trkpt>
      <trkpt lat="42.829002" lon="0.517292">
        <ele>1771.3</ele>
        <time>2013-11-09T09:58:31Z</time>
      </trkpt>
      <trkpt lat="42.829086" lon="0.517255">
        <ele>1772.4</ele>
        <time>2013-11-09T09:58:41Z</time>
      </trkpt>
      <trkpt lat="42.829168" lon="0.517197">
        <ele>1773.8</ele>
        <time>2013-11-09T09:58:50Z</time>
      </trkpt>
      <trkpt lat="42.829258" lon="0.517164">
        <ele>1774.8</ele>
        <time>2013-11-09T09:58:59Z</time>
      </trkpt>
      <trkpt lat="42.829345" lon="0.517130">
        <ele>1776.0</ele>
        <time>2013-11-09T09:59:07Z</time>
      </trkpt>
      <trkpt lat="42.829430" lon="0.517111">
        <ele>1777.5</ele>
        <time>2013-11-09T09:59:15Z</time>
      </trkpt>
      <trkpt lat="42.829497" lon="0.517035">
        <ele>1778.7</ele>
        <time>2013-11-09T09:59:25Z</time>
      </trkpt>
      <trkpt lat="42.829559" lon="0.516948">
        <ele>1779.5</ele>
        <time>2013-11-09T09:59:35Z</time>
      </trkpt>
      <trkpt lat="42.829611" lon="0.516844">
        <ele>1779.2</ele>
        <time>2013-11-09T09:59:43Z</time>
      </trkpt>
      <trkpt lat="42.829674" lon="0.516746">
        <ele>1778.6</ele>
        <time>2013-11-09T09:59:52Z</time>
      </trkpt>
      <trkpt lat="42.829738" lon="0.516671">
        <ele>1778.6</ele>
        <time>2013-11-09T10:00:01Z</time>
      </trkpt>
      <trkpt lat="42.829812" lon="0.516589">
        <ele>1778.6</ele>
        <time>2013-11-09T10:00:10Z</time>
      </trkpt>
      <trkpt lat="42.829884" lon="0.516509">
        <ele>1778.8</ele>
        <time>2013-11-09T10:00:19Z</time>
      </trkpt>
      <trkpt lat="42.829952" lon="0.516421">
        <ele>1778.6</ele>
        <time>2013-11-09T10:00:28Z</time>
      </trkpt>
      <trkpt lat="42.830013" lon="0.516338">
        <ele>1778.4</ele>
        <time>2013-11-09T10:00:38Z</time>
      </trkpt>
      <trkpt lat="42.830104" lon="0.516276">
        <ele>1778.4</ele>
        <time>2013-11-09T10:00:46Z</time>
      </trkpt>
      <trkpt lat="42.830196" lon="0.516218">
        <ele>1778.8</ele>
        <time>2013-11-09T10:00:54Z</time>
      </trkpt>
      <trkpt lat="42.830276" lon="0.516148">
        <ele>1779.2</ele>
        <time>2013-11-09T10:01:02Z</time>
      </trkpt>
      <trkpt lat="42.830350" lon="0.516081">
        <ele>1779.6</ele>
        <time>2013-11-09T10:01:10Z</time>
      </trkpt>
      <trkpt lat="42.830434" lon="0.516014">
        <ele>1779.9</ele>
        <time>2013-11-09T10:01:18Z</time>
      </trkpt>
      <trkpt lat="42.830516" lon="0.515935">
        <ele>1780.3</ele>
        <time>2013-11-09T10:01:27Z</time>
      </trkpt>
      <trkpt lat="42.830595" lon="0.515870">
        <ele>1780.2</ele>
        <time>2013-11-09T10:01:35Z</time>
      </trkpt>
      <trkpt lat="42.830676" lon="0.515791">
        <ele>1780.3</ele>
        <time>2013-11-09T10:01:44Z</time>
      </trkpt>
      <trkpt lat="42.830745" lon="0.515704">
        <ele>1780.2</ele>
        <time>2013-11-09T10:01:52Z</time>
      </trkpt>
      <trkpt lat="42.830808" lon="0.515617">
        <ele>1780.5</ele>
        <time>2013-11-09T10:02:00Z</time>
      </trkpt>
      <trkpt lat="42.830872" lon="0.515531">
        <ele>1781.3</ele>
        <time>2013-11-09T10:02:08Z</time>
      </trkpt>
      <trkpt lat="42.830940" lon="0.515442">
        <ele>1781.8</ele>
        <time>2013-11-09T10:02:25Z</time>
      </trkpt>
      <trkpt lat="42.831008" lon="0.515342">
        <ele>1782.0</ele>
        <time>2013-11-09T10:02:36Z</time>
      </trkpt>
      <trkpt lat="42.831066" lon="0.515229">
        <ele>1782.4</ele>
        <time>2013-11-09T10:02:45Z</time>
      </trkpt>
      <trkpt lat="42.831130" lon="0.515127">
        <ele>1782.8</ele>
        <time>2013-11-09T10:02:54Z</time>
      </trkpt>
      <trkpt lat="42.831193" lon="0.515034">
        <ele>1783.1</ele>
        <time>2013-11-09T10:03:03Z</time>
      </trkpt>
      <trkpt lat="42.831255" lon="0.514932">
        <ele>1783.7</ele>
        <time>2013-11-09T10:03:11Z</time>
      </trkpt>
      <trkpt lat="42.831323" lon="0.514843">
        <ele>1784.5</ele>
        <time>2013-11-09T10:03:23Z</time>
      </trkpt>
      <trkpt lat="42.831389" lon="0.514755">
        <ele>1784.6</ele>
        <time>2013-11-09T10:03:29Z</time>
      </trkpt>
      <trkpt lat="42.831443" lon="0.514659">
        <ele>1784.7</ele>
        <time>2013-11-09T10:03:34Z</time>
      </trkpt>
      <trkpt lat="42.831490" lon="0.514574">
        <ele>1785.0</ele>
        <time>2013-11-09T10:03:41Z</time>
      </trkpt>
      <trkpt lat="42.831559" lon="0.514482">
        <ele>1785.4</ele>
        <time>2013-11-09T10:03:49Z</time>
      </trkpt>
      <trkpt lat="42.831616" lon="0.514378">
        <ele>1786.1</ele>
        <time>2013-11-09T10:03:57Z</time>
      </trkpt>
      <trkpt lat="42.831661" lon="0.514264">
        <ele>1786.2</ele>
        <time>2013-11-09T10:04:05Z</time>
      </trkpt>
      <trkpt lat="42.831702" lon="0.514142">
        <ele>1786.2</ele>
        <time>2013-11-09T10:04:13Z</time>
      </trkpt>
      <trkpt lat="42.831762" lon="0.514050">
        <ele>1786.3</ele>
        <time>2013-11-09T10:04:21Z</time>
      </trkpt>
      <trkpt lat="42.831817" lon="0.513954">
        <ele>1786.7</ele>
        <time>2013-11-09T10:04:28Z</time>
      </trkpt>
      <trkpt lat="42.831876" lon="0.513864">
        <ele>1786.7</ele>
        <time>2013-11-09T10:04:36Z</time>
      </trkpt>
      <trkpt lat="42.831917" lon="0.513757">
        <ele>1787.0</ele>
        <time>2013-11-09T10:04:43Z</time>
      </trkpt>
      <trkpt lat="42.831958" lon="0.513643">
        <ele>1787.5</ele>
        <time>2013-11-09T10:04:51Z</time>
      </trkpt>
      <trkpt lat="42.832004" lon="0.513536">
        <ele>1788.1</ele>
        <time>2013-11-09T10:04:59Z</time>
      </trkpt>
      <trkpt lat="42.832053" lon="0.513433">
        <ele>1788.6</ele>
        <time>2013-11-09T10:05:07Z</time>
      </trkpt>
      <trkpt lat="42.832105" lon="0.513326">
        <ele>1789.3</ele>
        <time>2013-11-09T10:05:16Z</time>
      </trkpt>
      <trkpt lat="42.832156" lon="0.513236">
        <ele>1789.8</ele>
        <time>2013-11-09T10:05:23Z</time>
      </trkpt>
      <trkpt lat="42.832211" lon="0.513132">
        <ele>1790.5</ele>
        <time>2013-11-09T10:05:31Z</time>
      </trkpt>
      <trkpt lat="42.832261" lon="0.513026">
        <ele>1791.5</ele>
        <time>2013-11-09T10:05:41Z</time>
      </trkpt>
      <trkpt lat="42.832303" lon="0.512919">
        <ele>1792.2</ele>
        <time>2013-11-09T10:05:52Z</time>
      </trkpt>
      <trkpt lat="42.832325" lon="0.512800">
        <ele>1793.1</ele>
        <time>2013-11-09T10:06:06Z</time>
      </trkpt>
      <trkpt lat="42.832348" lon="0.512687">
        <ele>1793.9</ele>
        <time>2013-11-09T10:06:14Z</time>
      </trkpt>
      <trkpt lat="42.832387" lon="0.512565">
        <ele>1794.8</ele>
        <time>2013-11-09T10:06:22Z</time>
      </trkpt>
      <trkpt lat="42.832422" lon="0.512451">
        <ele>1795.3</ele>
        <time>2013-11-09T10:06:30Z</time>
      </trkpt>
      <trkpt lat="42.832463" lon="0.512329">
        <ele>1795.6</ele>
        <time>2013-11-09T10:06:38Z</time>
      </trkpt>
      <trkpt lat="42.832498" lon="0.512234">
        <ele>1796.6</ele>
        <time>2013-11-09T10:07:09Z</time>
      </trkpt>
      <trkpt lat="42.832512" lon="0.512121">
        <ele>1796.7</ele>
        <time>2013-11-09T10:07:46Z</time>
      </trkpt>
      <trkpt lat="42.832551" lon="0.511999">
        <ele>1796.9</ele>
        <time>2013-11-09T10:07:55Z</time>
      </trkpt>
      <trkpt lat="42.832599" lon="0.511888">
        <ele>1796.8</ele>
        <time>2013-11-09T10:08:03Z</time>
      </trkpt>
      <trkpt lat="42.832636" lon="0.511764">
        <ele>1796.6</ele>
        <time>2013-11-09T10:08:11Z</time>
      </trkpt>
      <trkpt lat="42.832655" lon="0.511630">
        <ele>1796.7</ele>
        <time>2013-11-09T10:08:19Z</time>
      </trkpt>
      <trkpt lat="42.832669" lon="0.511504">
        <ele>1797.1</ele>
        <time>2013-11-09T10:08:27Z</time>
      </trkpt>
      <trkpt lat="42.832716" lon="0.511445">
        <ele>1798.2</ele>
        <time>2013-11-09T10:09:03Z</time>
      </trkpt>
      <trkpt lat="42.832717" lon="0.511314">
        <ele>1797.9</ele>
        <time>2013-11-09T10:09:14Z</time>
      </trkpt>
      <trkpt lat="42.832710" lon="0.511193">
        <ele>1798.5</ele>
        <time>2013-11-09T10:09:23Z</time>
      </trkpt>
      <trkpt lat="42.832708" lon="0.511068">
        <ele>1799.1</ele>
        <time>2013-11-09T10:09:32Z</time>
      </trkpt>
      <trkpt lat="42.832725" lon="0.510939">
        <ele>1800.1</ele>
        <time>2013-11-09T10:09:42Z</time>
      </trkpt>
      <trkpt lat="42.832743" lon="0.510803">
        <ele>1801.2</ele>
        <time>2013-11-09T10:09:52Z</time>
      </trkpt>
      <trkpt lat="42.832736" lon="0.510675">
        <ele>1802.3</ele>
        <time>2013-11-09T10:10:02Z</time>
      </trkpt>
      <trkpt lat="42.832740" lon="0.510547">
        <ele>1803.8</ele>
        <time>2013-11-09T10:10:12Z</time>
      </trkpt>
      <trkpt lat="42.832747" lon="0.510403">
        <ele>1805.1</ele>
        <time>2013-11-09T10:10:21Z</time>
      </trkpt>
      <trkpt lat="42.832758" lon="0.510270">
        <ele>1806.0</ele>
        <time>2013-11-09T10:10:30Z</time>
      </trkpt>
      <trkpt lat="42.832778" lon="0.510132">
        <ele>1807.0</ele>
        <time>2013-11-09T10:10:40Z</time>
      </trkpt>
      <trkpt lat="42.832782" lon="0.509997">
        <ele>1807.9</ele>
        <time>2013-11-09T10:10:49Z</time>
      </trkpt>
      <trkpt lat="42.832777" lon="0.509875">
        <ele>1808.7</ele>
        <time>2013-11-09T10:10:57Z</time>
      </trkpt>
      <trkpt lat="42.832770" lon="0.509747">
        <ele>1809.2</ele>
        <time>2013-11-09T10:11:06Z</time>
      </trkpt>
      <trkpt lat="42.832777" lon="0.509618">
        <ele>1809.7</ele>
        <time>2013-11-09T10:11:15Z</time>
      </trkpt>
      <trkpt lat="42.832797" lon="0.509490">
        <ele>1810.2</ele>
        <time>2013-11-09T10:11:24Z</time>
      </trkpt>
      <trkpt lat="42.832846" lon="0.509364">
        <ele>1810.8</ele>
        <time>2013-11-09T10:11:33Z</time>
      </trkpt>
      <trkpt lat="42.832855" lon="0.509232">
        <ele>1811.2</ele>
        <time>2013-11-09T10:11:43Z</time>
      </trkpt>
      <trkpt lat="42.832859" lon="0.509097">
        <ele>1812.9</ele>
        <time>2013-11-09T10:11:54Z</time>
      </trkpt>
      <trkpt lat="42.832902" lon="0.508976">
        <ele>1814.8</ele>
        <time>2013-11-09T10:12:05Z</time>
      </trkpt>
      <trkpt lat="42.832957" lon="0.508863">
        <ele>1816.8</ele>
        <time>2013-11-09T10:12:16Z</time>
      </trkpt>
      <trkpt lat="42.833001" lon="0.508750">
        <ele>1818.9</ele>
        <time>2013-11-09T10:12:27Z</time>
      </trkpt>
      <trkpt lat="42.833025" lon="0.508641">
        <ele>1821.7</ele>
        <time>2013-11-09T10:12:41Z</time>
      </trkpt>
      <trkpt lat="42.833081" lon="0.508530">
        <ele>1825.0</ele>
        <time>2013-11-09T10:12:56Z</time>
      </trkpt>
      <trkpt lat="42.833127" lon="0.508420">
        <ele>1828.7</ele>
        <time>2013-11-09T10:13:13Z</time>
      </trkpt>
      <trkpt lat="42.833187" lon="0.508319">
        <ele>1831.7</ele>
        <time>2013-11-09T10:13:29Z</time>
      </trkpt>
      <trkpt lat="42.833241" lon="0.508213">
        <ele>1834.8</ele>
        <time>2013-11-09T10:13:44Z</time>
      </trkpt>
      <trkpt lat="42.833283" lon="0.508108">
        <ele>1837.3</ele>
        <time>2013-11-09T10:14:00Z</time>
      </trkpt>
      <trkpt lat="42.833331" lon="0.508006">
        <ele>1840.7</ele>
        <time>2013-11-09T10:14:18Z</time>
      </trkpt>
      <trkpt lat="42.833376" lon="0.507905">
        <ele>1843.8</ele>
        <time>2013-11-09T10:14:34Z</time>
      </trkpt>
      <trkpt lat="42.833422" lon="0.507778">
        <ele>1846.4</ele>
        <time>2013-11-09T10:14:50Z</time>
      </trkpt>
      <trkpt lat="42.833493" lon="0.507685">
        <ele>1849.4</ele>
        <time>2013-11-09T10:15:05Z</time>
      </trkpt>
      <trkpt lat="42.833559" lon="0.507579">
        <ele>1852.2</ele>
        <time>2013-11-09T10:15:19Z</time>
      </trkpt>
      <trkpt lat="42.833636" lon="0.507503">
        <ele>1854.8</ele>
        <time>2013-11-09T10:15:33Z</time>
      </trkpt>
      <trkpt lat="42.833723" lon="0.507419">
        <ele>1857.2</ele>
        <time>2013-11-09T10:15:47Z</time>
      </trkpt>
      <trkpt lat="42.833797" lon="0.507317">
        <ele>1859.2</ele>
        <time>2013-11-09T10:15:59Z</time>
      </trkpt>
      <trkpt lat="42.833840" lon="0.507214">
        <ele>1862.4</ele>
        <time>2013-11-09T10:16:15Z</time>
      </trkpt>
      <trkpt lat="42.833888" lon="0.507103">
        <ele>1864.9</ele>
        <time>2013-11-09T10:16:28Z</time>
      </trkpt>
      <trkpt lat="42.833918" lon="0.506991">
        <ele>1867.9</ele>
        <time>2013-11-09T10:16:43Z</time>
      </trkpt>
      <trkpt lat="42.833972" lon="0.506887">
        <ele>1870.3</ele>
        <time>2013-11-09T10:16:56Z</time>
      </trkpt>
      <trkpt lat="42.834024" lon="0.506797">
        <ele>1873.3</ele>
        <time>2013-11-09T10:17:10Z</time>
      </trkpt>
      <trkpt lat="42.834082" lon="0.506703">
        <ele>1877.2</ele>
        <time>2013-11-09T10:17:27Z</time>
      </trkpt>
      <trkpt lat="42.834117" lon="0.506595">
        <ele>1881.4</ele>
        <time>2013-11-09T10:17:47Z</time>
      </trkpt>
      <trkpt lat="42.834163" lon="0.506495">
        <ele>1884.7</ele>
        <time>2013-11-09T10:18:02Z</time>
      </trkpt>
      <trkpt lat="42.834145" lon="0.506385">
        <ele>1889.1</ele>
        <time>2013-11-09T10:18:21Z</time>
      </trkpt>
      <trkpt lat="42.834120" lon="0.506250">
        <ele>1893.1</ele>
        <time>2013-11-09T10:18:36Z</time>
      </trkpt>
      <trkpt lat="42.834118" lon="0.506115">
        <ele>1896.6</ele>
        <time>2013-11-09T10:18:52Z</time>
      </trkpt>
      <trkpt lat="42.834123" lon="0.505981">
        <ele>1899.1</ele>
        <time>2013-11-09T10:19:06Z</time>
      </trkpt>
      <trkpt lat="42.834131" lon="0.505853">
        <ele>1900.8</ele>
        <time>2013-11-09T10:19:19Z</time>
      </trkpt>
      <trkpt lat="42.834129" lon="0.505716">
        <ele>1902.6</ele>
        <time>2013-11-09T10:19:33Z</time>
      </trkpt>
      <trkpt lat="42.834139" lon="0.505578">
        <ele>1904.5</ele>
        <time>2013-11-09T10:19:46Z</time>
      </trkpt>
      <trkpt lat="42.834155" lon="0.505443">
        <ele>1906.8</ele>
        <time>2013-11-09T10:19:59Z</time>
      </trkpt>
      <trkpt lat="42.834191" lon="0.505321">
        <ele>1908.6</ele>
        <time>2013-11-09T10:20:10Z</time>
      </trkpt>
      <trkpt lat="42.834211" lon="0.505189">
        <ele>1910.7</ele>
        <time>2013-11-09T10:20:21Z</time>
      </trkpt>
      <trkpt lat="42.834204" lon="0.505051">
        <ele>1912.3</ele>
        <time>2013-11-09T10:20:31Z</time>
      </trkpt>
      <trkpt lat="42.834195" lon="0.504923">
        <ele>1913.5</ele>
        <time>2013-11-09T10:20:41Z</time>
      </trkpt>
      <trkpt lat="42.834176" lon="0.504802">
        <ele>1914.3</ele>
        <time>2013-11-09T10:20:50Z</time>
      </trkpt>
      <trkpt lat="42.834164" lon="0.504671">
        <ele>1914.8</ele>
        <time>2013-11-09T10:21:00Z</time>
      </trkpt>
      <trkpt lat="42.834155" lon="0.504555">
        <ele>1915.1</ele>
        <time>2013-11-09T10:21:09Z</time>
      </trkpt>
      <trkpt lat="42.834175" lon="0.504422">
        <ele>1915.9</ele>
        <time>2013-11-09T10:21:21Z</time>
      </trkpt>
      <trkpt lat="42.834258" lon="0.504354">
        <ele>1916.8</ele>
        <time>2013-11-09T10:21:31Z</time>
      </trkpt>
      <trkpt lat="42.834339" lon="0.504288">
        <ele>1918.6</ele>
        <time>2013-11-09T10:21:41Z</time>
      </trkpt>
      <trkpt lat="42.834427" lon="0.504226">
        <ele>1920.0</ele>
        <time>2013-11-09T10:21:50Z</time>
      </trkpt>
      <trkpt lat="42.834510" lon="0.504174">
        <ele>1921.2</ele>
        <time>2013-11-09T10:21:59Z</time>
      </trkpt>
      <trkpt lat="42.834594" lon="0.504116">
        <ele>1922.5</ele>
        <time>2013-11-09T10:22:09Z</time>
      </trkpt>
      <trkpt lat="42.834679" lon="0.504042">
        <ele>1923.8</ele>
        <time>2013-11-09T10:22:19Z</time>
      </trkpt>
      <trkpt lat="42.834770" lon="0.503978">
        <ele>1924.4</ele>
        <time>2013-11-09T10:22:29Z</time>
      </trkpt>
      <trkpt lat="42.834859" lon="0.503926">
        <ele>1925.2</ele>
        <time>2013-11-09T10:22:38Z</time>
      </trkpt>
      <trkpt lat="42.834945" lon="0.503880">
        <ele>1926.1</ele>
        <time>2013-11-09T10:22:47Z</time>
      </trkpt>
      <trkpt lat="42.835030" lon="0.503832">
        <ele>1927.0</ele>
        <time>2013-11-09T10:22:56Z</time>
      </trkpt>
      <trkpt lat="42.835123" lon="0.503795">
        <ele>1928.0</ele>
        <time>2013-11-09T10:23:06Z</time>
      </trkpt>
      <trkpt lat="42.835204" lon="0.503736">
        <ele>1929.4</ele>
        <time>2013-11-09T10:23:17Z</time>
      </trkpt>
      <trkpt lat="42.835284" lon="0.503663">
        <ele>1929.7</ele>
        <time>2013-11-09T10:23:27Z</time>
      </trkpt>
      <trkpt lat="42.835375" lon="0.503592">
        <ele>1930.1</ele>
        <time>2013-11-09T10:23:36Z</time>
      </trkpt>
      <trkpt lat="42.835463" lon="0.503528">
        <ele>1931.1</ele>
        <time>2013-11-09T10:23:44Z</time>
      </trkpt>
      <trkpt lat="42.835542" lon="0.503474">
        <ele>1931.9</ele>
        <time>2013-11-09T10:23:52Z</time>
      </trkpt>
      <trkpt lat="42.835623" lon="0.503422">
        <ele>1932.6</ele>
        <time>2013-11-09T10:24:00Z</time>
      </trkpt>
      <trkpt lat="42.835705" lon="0.503369">
        <ele>1932.9</ele>
        <time>2013-11-09T10:24:08Z</time>
      </trkpt>
      <trkpt lat="42.835792" lon="0.503298">
        <ele>1933.3</ele>
        <time>2013-11-09T10:24:17Z</time>
      </trkpt>
      <trkpt lat="42.835875" lon="0.503250">
        <ele>1933.6</ele>
        <time>2013-11-09T10:24:25Z</time>
      </trkpt>
      <trkpt lat="42.835962" lon="0.503199">
        <ele>1933.9</ele>
        <time>2013-11-09T10:24:33Z</time>
      </trkpt>
      <trkpt lat="42.836054" lon="0.503137">
        <ele>1934.6</ele>
        <time>2013-11-09T10:24:42Z</time>
      </trkpt>
      <trkpt lat="42.836138" lon="0.503082">
        <ele>1934.6</ele>
        <time>2013-11-09T10:24:50Z</time>
      </trkpt>
      <trkpt lat="42.836215" lon="0.503026">
        <ele>1934.6</ele>
        <time>2013-11-09T10:24:58Z</time>
      </trkpt>
      <trkpt lat="42.836289" lon="0.502948">
        <ele>1934.8</ele>
        <time>2013-11-09T10:25:07Z</time>
      </trkpt>
      <trkpt lat="42.836362" lon="0.502879">
        <ele>1934.6</ele>
        <time>2013-11-09T10:25:16Z</time>
      </trkpt>
      <trkpt lat="42.836435" lon="0.502796">
        <ele>1934.7</ele>
        <time>2013-11-09T10:25:25Z</time>
      </trkpt>
      <trkpt lat="42.836510" lon="0.502721">
        <ele>1934.6</ele>
        <time>2013-11-09T10:25:33Z</time>
      </trkpt>
      <trkpt lat="42.836584" lon="0.502641">
        <ele>1933.8</ele>
        <time>2013-11-09T10:25:42Z</time>
      </trkpt>
      <trkpt lat="42.836637" lon="0.502540">
        <ele>1933.3</ele>
        <time>2013-11-09T10:25:51Z</time>
      </trkpt>
      <trkpt lat="42.836680" lon="0.502419">
        <ele>1932.1</ele>
        <time>2013-11-09T10:26:00Z</time>
      </trkpt>
      <trkpt lat="42.836711" lon="0.502292">
        <ele>1930.5</ele>
        <time>2013-11-09T10:26:08Z</time>
      </trkpt>
      <trkpt lat="42.836759" lon="0.502178">
        <ele>1928.9</ele>
        <time>2013-11-09T10:26:16Z</time>
      </trkpt>
      <trkpt lat="42.836807" lon="0.502061">
        <ele>1928.0</ele>
        <time>2013-11-09T10:26:24Z</time>
      </trkpt>
      <trkpt lat="42.836847" lon="0.501956">
        <ele>1926.9</ele>
        <time>2013-11-09T10:26:31Z</time>
      </trkpt>
      <trkpt lat="42.836893" lon="0.501837">
        <ele>1925.6</ele>
        <time>2013-11-09T10:26:39Z</time>
      </trkpt>
      <trkpt lat="42.836930" lon="0.501719">
        <ele>1924.7</ele>
        <time>2013-11-09T10:26:46Z</time>
      </trkpt>
      <trkpt lat="42.836976" lon="0.501606">
        <ele>1923.7</ele>
        <time>2013-11-09T10:26:53Z</time>
      </trkpt>
      <trkpt lat="42.837019" lon="0.501480">
        <ele>1922.9</ele>
        <time>2013-11-09T10:27:01Z</time>
      </trkpt>
      <trkpt lat="42.837053" lon="0.501355">
        <ele>1922.4</ele>
        <time>2013-11-09T10:27:09Z</time>
      </trkpt>
      <trkpt lat="42.837090" lon="0.501225">
        <ele>1922.2</ele>
        <time>2013-11-09T10:27:17Z</time>
      </trkpt>
      <trkpt lat="42.837122" lon="0.501107">
        <ele>1922.2</ele>
        <time>2013-11-09T10:27:24Z</time>
      </trkpt>
      <trkpt lat="42.837149" lon="0.500989">
        <ele>1922.0</ele>
        <time>2013-11-09T10:27:31Z</time>
      </trkpt>
      <trkpt lat="42.837189" lon="0.500878">
        <ele>1921.7</ele>
        <time>2013-11-09T10:27:38Z</time>
      </trkpt>
      <trkpt lat="42.837211" lon="0.500743">
        <ele>1920.9</ele>
        <time>2013-11-09T10:27:46Z</time>
      </trkpt>
      <trkpt lat="42.837250" lon="0.500624">
        <ele>1920.5</ele>
        <time>2013-11-09T10:27:53Z</time>
      </trkpt>
      <trkpt lat="42.837290" lon="0.500506">
        <ele>1920.3</ele>
        <time>2013-11-09T10:28:00Z</time>
      </trkpt>
      <trkpt lat="42.837351" lon="0.500377">
        <ele>1920.7</ele>
        <time>2013-11-09T10:28:10Z</time>
      </trkpt>
      <trkpt lat="42.837402" lon="0.500265">
        <ele>1921.6</ele>
        <time>2013-11-09T10:28:19Z</time>
      </trkpt>
      <trkpt lat="42.837441" lon="0.500153">
        <ele>1921.9</ele>
        <time>2013-11-09T10:28:29Z</time>
      </trkpt>
      <trkpt lat="42.837491" lon="0.500039">
        <ele>1922.5</ele>
        <time>2013-11-09T10:28:38Z</time>
      </trkpt>
      <trkpt lat="42.837518" lon="0.499905">
        <ele>1922.5</ele>
        <time>2013-11-09T10:28:47Z</time>
      </trkpt>
      <trkpt lat="42.837545" lon="0.499769">
        <ele>1922.6</ele>
        <time>2013-11-09T10:28:55Z</time>
      </trkpt>
      <trkpt lat="42.837588" lon="0.499648">
        <ele>1923.7</ele>
        <time>2013-11-09T10:29:03Z</time>
      </trkpt>
      <trkpt lat="42.837609" lon="0.499512">
        <ele>1925.1</ele>
        <time>2013-11-09T10:29:12Z</time>
      </trkpt>
      <trkpt lat="42.837637" lon="0.499386">
        <ele>1925.5</ele>
        <time>2013-11-09T10:29:21Z</time>
      </trkpt>
      <trkpt lat="42.837670" lon="0.499247">
        <ele>1926.9</ele>
        <time>2013-11-09T10:29:32Z</time>
      </trkpt>
      <trkpt lat="42.837690" lon="0.499116">
        <ele>1928.5</ele>
        <time>2013-11-09T10:29:43Z</time>
      </trkpt>
      <trkpt lat="42.837740" lon="0.499006">
        <ele>1930.6</ele>
        <time>2013-11-09T10:29:55Z</time>
      </trkpt>
      <trkpt lat="42.837800" lon="0.498896">
        <ele>1932.9</ele>
        <time>2013-11-09T10:30:06Z</time>
      </trkpt>
      <trkpt lat="42.837845" lon="0.498785">
        <ele>1934.7</ele>
        <time>2013-11-09T10:30:16Z</time>
      </trkpt>
      <trkpt lat="42.837895" lon="0.498688">
        <ele>1936.1</ele>
        <time>2013-11-09T10:30:26Z</time>
      </trkpt>
      <trkpt lat="42.837904" lon="0.498629">
        <ele>1936.6</ele>
        <time>2013-11-09T10:31:24Z</time>
      </trkpt>
      <trkpt lat="42.837946" lon="0.498547">
        <ele>1936.4</ele>
        <time>2013-11-09T10:31:51Z</time>
      </trkpt>
      <trkpt lat="42.837987" lon="0.498423">
        <ele>1935.8</ele>
        <time>2013-11-09T10:32:03Z</time>
      </trkpt>
      <trkpt lat="42.838037" lon="0.498316">
        <ele>1935.2</ele>
        <time>2013-11-09T10:32:11Z</time>
      </trkpt>
      <trkpt lat="42.838104" lon="0.498212">
        <ele>1935.1</ele>
        <time>2013-11-09T10:32:20Z</time>
      </trkpt>
      <trkpt lat="42.838176" lon="0.498101">
        <ele>1935.0</ele>
        <time>2013-11-09T10:32:29Z</time>
      </trkpt>
      <trkpt lat="42.838253" lon="0.498032">
        <ele>1934.8</ele>
        <time>2013-11-09T10:32:36Z</time>
      </trkpt>
      <trkpt lat="42.838327" lon="0.497953">
        <ele>1934.6</ele>
        <time>2013-11-09T10:32:44Z</time>
      </trkpt>
      <trkpt lat="42.838401" lon="0.497860">
        <ele>1934.4</ele>
        <time>2013-11-09T10:32:53Z</time>
      </trkpt>
      <trkpt lat="42.838463" lon="0.497768">
        <ele>1934.5</ele>
        <time>2013-11-09T10:33:01Z</time>
      </trkpt>
      <trkpt lat="42.838524" lon="0.497662">
        <ele>1935.3</ele>
        <time>2013-11-09T10:33:10Z</time>
      </trkpt>
      <trkpt lat="42.838594" lon="0.497572">
        <ele>1936.3</ele>
        <time>2013-11-09T10:33:19Z</time>
      </trkpt>
      <trkpt lat="42.838660" lon="0.497481">
        <ele>1937.0</ele>
        <time>2013-11-09T10:33:28Z</time>
      </trkpt>
      <trkpt lat="42.838723" lon="0.497388">
        <ele>1937.0</ele>
        <time>2013-11-09T10:33:36Z</time>
      </trkpt>
      <trkpt lat="42.838759" lon="0.497267">
        <ele>1936.7</ele>
        <time>2013-11-09T10:33:44Z</time>
      </trkpt>
      <trkpt lat="42.838815" lon="0.497157">
        <ele>1936.9</ele>
        <time>2013-11-09T10:33:52Z</time>
      </trkpt>
      <trkpt lat="42.838869" lon="0.497052">
        <ele>1936.8</ele>
        <time>2013-11-09T10:34:00Z</time>
      </trkpt>
      <trkpt lat="42.838935" lon="0.496951">
        <ele>1936.5</ele>
        <time>2013-11-09T10:34:08Z</time>
      </trkpt>
      <trkpt lat="42.838967" lon="0.496826">
        <ele>1936.3</ele>
        <time>2013-11-09T10:34:16Z</time>
      </trkpt>
      <trkpt lat="42.838999" lon="0.496712">
        <ele>1935.7</ele>
        <time>2013-11-09T10:34:24Z</time>
      </trkpt>
      <trkpt lat="42.839046" lon="0.496601">
        <ele>1935.8</ele>
        <time>2013-11-09T10:34:32Z</time>
      </trkpt>
      <trkpt lat="42.839095" lon="0.496481">
        <ele>1935.5</ele>
        <time>2013-11-09T10:34:40Z</time>
      </trkpt>
      <trkpt lat="42.839145" lon="0.496380">
        <ele>1935.0</ele>
        <time>2013-11-09T10:34:47Z</time>
      </trkpt>
      <trkpt lat="42.839187" lon="0.496272">
        <ele>1934.3</ele>
        <time>2013-11-09T10:34:54Z</time>
      </trkpt>
      <trkpt lat="42.839241" lon="0.496182">
        <ele>1933.9</ele>
        <time>2013-11-09T10:35:01Z</time>
      </trkpt>
      <trkpt lat="42.839304" lon="0.496069">
        <ele>1933.0</ele>
        <time>2013-11-09T10:35:09Z</time>
      </trkpt>
      <trkpt lat="42.839370" lon="0.495962">
        <ele>1932.0</ele>
        <time>2013-11-09T10:35:17Z</time>
      </trkpt>
      <trkpt lat="42.839438" lon="0.495869">
        <ele>1931.4</ele>
        <time>2013-11-09T10:35:24Z</time>
      </trkpt>
      <trkpt lat="42.839509" lon="0.495772">
        <ele>1930.5</ele>
        <time>2013-11-09T10:35:31Z</time>
      </trkpt>
      <trkpt lat="42.839562" lon="0.495669">
        <ele>1929.9</ele>
        <time>2013-11-09T10:35:37Z</time>
      </trkpt>
      <trkpt lat="42.839615" lon="0.495576">
        <ele>1928.7</ele>
        <time>2013-11-09T10:35:44Z</time>
      </trkpt>
      <trkpt lat="42.839663" lon="0.495476">
        <ele>1928.0</ele>
        <time>2013-11-09T10:35:51Z</time>
      </trkpt>
      <trkpt lat="42.839714" lon="0.495365">
        <ele>1927.4</ele>
        <time>2013-11-09T10:35:59Z</time>
      </trkpt>
      <trkpt lat="42.839762" lon="0.495256">
        <ele>1926.5</ele>
        <time>2013-11-09T10:36:06Z</time>
      </trkpt>
      <trkpt lat="42.839806" lon="0.495146">
        <ele>1925.4</ele>
        <time>2013-11-09T10:36:13Z</time>
      </trkpt>
      <trkpt lat="42.839858" lon="0.495039">
        <ele>1924.9</ele>
        <time>2013-11-09T10:36:20Z</time>
      </trkpt>
      <trkpt lat="42.839915" lon="0.494933">
        <ele>1924.2</ele>
        <time>2013-11-09T10:36:27Z</time>
      </trkpt>
      <trkpt lat="42.839965" lon="0.494815">
        <ele>1922.9</ele>
        <time>2013-11-09T10:36:34Z</time>
      </trkpt>
      <trkpt lat="42.840026" lon="0.494713">
        <ele>1922.6</ele>
        <time>2013-11-09T10:36:41Z</time>
      </trkpt>
      <trkpt lat="42.840080" lon="0.494600">
        <ele>1922.4</ele>
        <time>2013-11-09T10:36:49Z</time>
      </trkpt>
      <trkpt lat="42.840124" lon="0.494482">
        <ele>1921.5</ele>
        <time>2013-11-09T10:36:56Z</time>
      </trkpt>
      <trkpt lat="42.840175" lon="0.494367">
        <ele>1920.9</ele>
        <time>2013-11-09T10:37:04Z</time>
      </trkpt>
      <trkpt lat="42.840218" lon="0.494246">
        <ele>1920.5</ele>
        <time>2013-11-09T10:37:11Z</time>
      </trkpt>
      <trkpt lat="42.840263" lon="0.494140">
        <ele>1920.4</ele>
        <time>2013-11-09T10:37:18Z</time>
      </trkpt>
      <trkpt lat="42.840316" lon="0.494029">
        <ele>1920.7</ele>
        <time>2013-11-09T10:37:26Z</time>
      </trkpt>
      <trkpt lat="42.840364" lon="0.493917">
        <ele>1920.8</ele>
        <time>2013-11-09T10:37:34Z</time>
      </trkpt>
      <trkpt lat="42.840417" lon="0.493802">
        <ele>1921.7</ele>
        <time>2013-11-09T10:37:43Z</time>
      </trkpt>
      <trkpt lat="42.840471" lon="0.493699">
        <ele>1922.0</ele>
        <time>2013-11-09T10:37:51Z</time>
      </trkpt>
      <trkpt lat="42.840476" lon="0.493670">
        <ele>1922.4</ele>
        <time>2013-11-09T10:39:28Z</time>
      </trkpt>
      <trkpt lat="42.840530" lon="0.493566">
        <ele>1922.6</ele>
        <time>2013-11-09T10:39:47Z</time>
      </trkpt>
      <trkpt lat="42.840606" lon="0.493489">
        <ele>1923.1</ele>
        <time>2013-11-09T10:39:53Z</time>
      </trkpt>
      <trkpt lat="42.840664" lon="0.493387">
        <ele>1924.9</ele>
        <time>2013-11-09T10:40:00Z</time>
      </trkpt>
      <trkpt lat="42.840725" lon="0.493278">
        <ele>1926.5</ele>
        <time>2013-11-09T10:40:08Z</time>
      </trkpt>
      <trkpt lat="42.840785" lon="0.493162">
        <ele>1928.2</ele>
        <time>2013-11-09T10:40:16Z</time>
      </trkpt>
      <trkpt lat="42.840848" lon="0.493071">
        <ele>1929.8</ele>
        <time>2013-11-09T10:40:23Z</time>
      </trkpt>
      <trkpt lat="42.840893" lon="0.492966">
        <ele>1930.5</ele>
        <time>2013-11-09T10:40:30Z</time>
      </trkpt>
      <trkpt lat="42.840954" lon="0.492886">
        <ele>1931.9</ele>
        <time>2013-11-09T10:40:39Z</time>
      </trkpt>
      <trkpt lat="42.841013" lon="0.492777">
        <ele>1933.5</ele>
        <time>2013-11-09T10:40:48Z</time>
      </trkpt>
      <trkpt lat="42.841080" lon="0.492672">
        <ele>1934.5</ele>
        <time>2013-11-09T10:40:57Z</time>
      </trkpt>
      <trkpt lat="42.841160" lon="0.492565">
        <ele>1935.9</ele>
        <time>2013-11-09T10:41:07Z</time>
      </trkpt>
      <trkpt lat="42.841217" lon="0.492474">
        <ele>1937.4</ele>
        <time>2013-11-09T10:41:15Z</time>
      </trkpt>
      <trkpt lat="42.841268" lon="0.492375">
        <ele>1938.4</ele>
        <time>2013-11-09T10:41:23Z</time>
      </trkpt>
      <trkpt lat="42.841341" lon="0.492277">
        <ele>1939.8</ele>
        <time>2013-11-09T10:41:31Z</time>
      </trkpt>
      <trkpt lat="42.841413" lon="0.492190">
        <ele>1941.4</ele>
        <time>2013-11-09T10:41:39Z</time>
      </trkpt>
      <trkpt lat="42.841468" lon="0.492082">
        <ele>1943.8</ele>
        <time>2013-11-09T10:41:48Z</time>
      </trkpt>
      <trkpt lat="42.841521" lon="0.491978">
        <ele>1945.3</ele>
        <time>2013-11-09T10:41:57Z</time>
      </trkpt>
      <trkpt lat="42.841587" lon="0.491887">
        <ele>1946.9</ele>
        <time>2013-11-09T10:42:06Z</time>
      </trkpt>
      <trkpt lat="42.841644" lon="0.491793">
        <ele>1948.2</ele>
        <time>2013-11-09T10:42:14Z</time>
      </trkpt>
      <trkpt lat="42.841704" lon="0.491698">
        <ele>1949.4</ele>
        <time>2013-11-09T10:42:22Z</time>
      </trkpt>
      <trkpt lat="42.841767" lon="0.491608">
        <ele>1950.8</ele>
        <time>2013-11-09T10:42:31Z</time>
      </trkpt>
      <trkpt lat="42.841800" lon="0.491502">
        <ele>1952.2</ele>
        <time>2013-11-09T10:42:49Z</time>
      </trkpt>
      <trkpt lat="42.841869" lon="0.491399">
        <ele>1952.8</ele>
        <time>2013-11-09T10:42:57Z</time>
      </trkpt>
      <trkpt lat="42.841931" lon="0.491280">
        <ele>1953.6</ele>
        <time>2013-11-09T10:43:04Z</time>
      </trkpt>
      <trkpt lat="42.841994" lon="0.491193">
        <ele>1954.2</ele>
        <time>2013-11-09T10:43:10Z</time>
      </trkpt>
      <trkpt lat="42.842049" lon="0.491096">
        <ele>1954.6</ele>
        <time>2013-11-09T10:43:16Z</time>
      </trkpt>
      <trkpt lat="42.842093" lon="0.491000">
        <ele>1955.2</ele>
        <time>2013-11-09T10:43:24Z</time>
      </trkpt>
      <trkpt lat="42.842146" lon="0.490878">
        <ele>1955.0</ele>
        <time>2013-11-09T10:43:32Z</time>
      </trkpt>
      <trkpt lat="42.842204" lon="0.490758">
        <ele>1955.1</ele>
        <time>2013-11-09T10:43:39Z</time>
      </trkpt>
      <trkpt lat="42.842258" lon="0.490647">
        <ele>1955.4</ele>
        <time>2013-11-09T10:43:45Z</time>
      </trkpt>
      <trkpt lat="42.842305" lon="0.490543">
        <ele>1955.6</ele>
        <time>2013-11-09T10:43:51Z</time>
      </trkpt>
      <trkpt lat="42.842375" lon="0.490438">
        <ele>1956.0</ele>
        <time>2013-11-09T10:43:58Z</time>
      </trkpt>
      <trkpt lat="42.842447" lon="0.490341">
        <ele>1956.4</ele>
        <time>2013-11-09T10:44:04Z</time>
      </trkpt>
      <trkpt lat="42.842519" lon="0.490243">
        <ele>1956.4</ele>
        <time>2013-11-09T10:44:11Z</time>
      </trkpt>
      <trkpt lat="42.842566" lon="0.490120">
        <ele>1956.7</ele>
        <time>2013-11-09T10:44:17Z</time>
      </trkpt>
      <trkpt lat="42.842616" lon="0.490020">
        <ele>1956.9</ele>
        <time>2013-11-09T10:44:23Z</time>
      </trkpt>
      <trkpt lat="42.842685" lon="0.489920">
        <ele>1957.5</ele>
        <time>2013-11-09T10:44:29Z</time>
      </trkpt>
      <trkpt lat="42.842764" lon="0.489825">
        <ele>1957.4</ele>
        <time>2013-11-09T10:44:36Z</time>
      </trkpt>
      <trkpt lat="42.842833" lon="0.489729">
        <ele>1956.9</ele>
        <time>2013-11-09T10:44:43Z</time>
      </trkpt>
      <trkpt lat="42.842901" lon="0.489640">
        <ele>1956.2</ele>
        <time>2013-11-09T10:44:50Z</time>
      </trkpt>
      <trkpt lat="42.842970" lon="0.489532">
        <ele>1955.4</ele>
        <time>2013-11-09T10:44:58Z</time>
      </trkpt>
      <trkpt lat="42.843036" lon="0.489428">
        <ele>1954.2</ele>
        <time>2013-11-09T10:45:06Z</time>
      </trkpt>
      <trkpt lat="42.843100" lon="0.489337">
        <ele>1952.7</ele>
        <time>2013-11-09T10:45:15Z</time>
      </trkpt>
      <trkpt lat="42.843148" lon="0.489266">
        <ele>1952.2</ele>
        <time>2013-11-09T10:46:15Z</time>
      </trkpt>
      <trkpt lat="42.843204" lon="0.489143">
        <ele>1951.6</ele>
        <time>2013-11-09T10:46:23Z</time>
      </trkpt>
      <trkpt lat="42.843254" lon="0.489028">
        <ele>1951.4</ele>
        <time>2013-11-09T10:46:31Z</time>
      </trkpt>
      <trkpt lat="42.843305" lon="0.488917">
        <ele>1951.3</ele>
        <time>2013-11-09T10:46:39Z</time>
      </trkpt>
      <trkpt lat="42.843354" lon="0.488812">
        <ele>1951.6</ele>
        <time>2013-11-09T10:46:46Z</time>
      </trkpt>
      <trkpt lat="42.843382" lon="0.488697">
        <ele>1951.9</ele>
        <time>2013-11-09T10:46:53Z</time>
      </trkpt>
      <trkpt lat="42.843433" lon="0.488577">
        <ele>1951.9</ele>
        <time>2013-11-09T10:47:01Z</time>
      </trkpt>
      <trkpt lat="42.843461" lon="0.488449">
        <ele>1951.1</ele>
        <time>2013-11-09T10:47:07Z</time>
      </trkpt>
      <trkpt lat="42.843521" lon="0.488342">
        <ele>1950.9</ele>
        <time>2013-11-09T10:47:15Z</time>
      </trkpt>
      <trkpt lat="42.843594" lon="0.488238">
        <ele>1951.9</ele>
        <time>2013-11-09T10:47:23Z</time>
      </trkpt>
      <trkpt lat="42.843649" lon="0.488141">
        <ele>1952.5</ele>
        <time>2013-11-09T10:47:30Z</time>
      </trkpt>
      <trkpt lat="42.843688" lon="0.488027">
        <ele>1953.2</ele>
        <time>2013-11-09T10:47:37Z</time>
      </trkpt>
      <trkpt lat="42.843708" lon="0.487905">
        <ele>1953.2</ele>
        <time>2013-11-09T10:47:44Z</time>
      </trkpt>
      <trkpt lat="42.843728" lon="0.487784">
        <ele>1954.4</ele>
        <time>2013-11-09T10:47:55Z</time>
      </trkpt>
      <trkpt lat="42.843751" lon="0.487662">
        <ele>1954.8</ele>
        <time>2013-11-09T10:48:02Z</time>
      </trkpt>
      <trkpt lat="42.843774" lon="0.487545">
        <ele>1955.5</ele>
        <time>2013-11-09T10:48:10Z</time>
      </trkpt>
      <trkpt lat="42.843807" lon="0.487426">
        <ele>1955.9</ele>
        <time>2013-11-09T10:48:17Z</time>
      </trkpt>
      <trkpt lat="42.843828" lon="0.487313">
        <ele>1956.5</ele>
        <time>2013-11-09T10:48:25Z</time>
      </trkpt>
      <trkpt lat="42.843855" lon="0.487177">
        <ele>1957.1</ele>
        <time>2013-11-09T10:48:33Z</time>
      </trkpt>
      <trkpt lat="42.843899" lon="0.487052">
        <ele>1957.6</ele>
        <time>2013-11-09T10:48:41Z</time>
      </trkpt>
      <trkpt lat="42.843951" lon="0.486944">
        <ele>1957.9</ele>
        <time>2013-11-09T10:48:48Z</time>
      </trkpt>
      <trkpt lat="42.844002" lon="0.486839">
        <ele>1958.1</ele>
        <time>2013-11-09T10:48:55Z</time>
      </trkpt>
      <trkpt lat="42.844060" lon="0.486737">
        <ele>1958.6</ele>
        <time>2013-11-09T10:49:02Z</time>
      </trkpt>
      <trkpt lat="42.844129" lon="0.486639">
        <ele>1958.9</ele>
        <time>2013-11-09T10:49:10Z</time>
      </trkpt>
      <trkpt lat="42.844197" lon="0.486544">
        <ele>1959.0</ele>
        <time>2013-11-09T10:49:18Z</time>
      </trkpt>
      <trkpt lat="42.844275" lon="0.486458">
        <ele>1959.0</ele>
        <time>2013-11-09T10:49:26Z</time>
      </trkpt>
      <trkpt lat="42.844342" lon="0.486357">
        <ele>1958.9</ele>
        <time>2013-11-09T10:49:34Z</time>
      </trkpt>
      <trkpt lat="42.844413" lon="0.486273">
        <ele>1958.9</ele>
        <time>2013-11-09T10:49:41Z</time>
      </trkpt>
      <trkpt lat="42.844485" lon="0.486185">
        <ele>1958.9</ele>
        <time>2013-11-09T10:49:48Z</time>
      </trkpt>
      <trkpt lat="42.844551" lon="0.486114">
        <ele>1958.9</ele>
        <time>2013-11-09T10:49:55Z</time>
      </trkpt>
      <trkpt lat="42.844629" lon="0.486036">
        <ele>1959.5</ele>
        <time>2013-11-09T10:50:03Z</time>
      </trkpt>
      <trkpt lat="42.844691" lon="0.485955">
        <ele>1959.5</ele>
        <time>2013-11-09T10:50:11Z</time>
      </trkpt>
      <trkpt lat="42.844760" lon="0.485872">
        <ele>1959.2</ele>
        <time>2013-11-09T10:50:18Z</time>
      </trkpt>
      <trkpt lat="42.844833" lon="0.485788">
        <ele>1959.1</ele>
        <time>2013-11-09T10:50:25Z</time>
      </trkpt>
      <trkpt lat="42.844909" lon="0.485716">
        <ele>1959.1</ele>
        <time>2013-11-09T10:50:32Z</time>
      </trkpt>
      <trkpt lat="42.844982" lon="0.485630">
        <ele>1959.2</ele>
        <time>2013-11-09T10:50:39Z</time>
      </trkpt>
      <trkpt lat="42.845052" lon="0.485554">
        <ele>1959.3</ele>
        <time>2013-11-09T10:50:47Z</time>
      </trkpt>
      <trkpt lat="42.845121" lon="0.485471">
        <ele>1959.9</ele>
        <time>2013-11-09T10:50:55Z</time>
      </trkpt>
      <trkpt lat="42.845203" lon="0.485385">
        <ele>1960.2</ele>
        <time>2013-11-09T10:51:03Z</time>
      </trkpt>
      <trkpt lat="42.845279" lon="0.485312">
        <ele>1960.5</ele>
        <time>2013-11-09T10:51:10Z</time>
      </trkpt>
      <trkpt lat="42.845356" lon="0.485232">
        <ele>1961.0</ele>
        <time>2013-11-09T10:51:18Z</time>
      </trkpt>
      <trkpt lat="42.845424" lon="0.485139">
        <ele>1961.7</ele>
        <time>2013-11-09T10:51:26Z</time>
      </trkpt>
      <trkpt lat="42.845484" lon="0.485037">
        <ele>1962.0</ele>
        <time>2013-11-09T10:51:34Z</time>
      </trkpt>
      <trkpt lat="42.845540" lon="0.484926">
        <ele>1962.1</ele>
        <time>2013-11-09T10:51:42Z</time>
      </trkpt>
      <trkpt lat="42.845589" lon="0.484812">
        <ele>1961.7</ele>
        <time>2013-11-09T10:51:50Z</time>
      </trkpt>
      <trkpt lat="42.845643" lon="0.484692">
        <ele>1961.8</ele>
        <time>2013-11-09T10:51:58Z</time>
      </trkpt>
      <trkpt lat="42.845689" lon="0.484585">
        <ele>1962.6</ele>
        <time>2013-11-09T10:52:06Z</time>
      </trkpt>
      <trkpt lat="42.845725" lon="0.484460">
        <ele>1962.2</ele>
        <time>2013-11-09T10:52:14Z</time>
      </trkpt>
      <trkpt lat="42.845779" lon="0.484353">
        <ele>1962.1</ele>
        <time>2013-11-09T10:52:22Z</time>
      </trkpt>
      <trkpt lat="42.845824" lon="0.484225">
        <ele>1962.2</ele>
        <time>2013-11-09T10:52:30Z</time>
      </trkpt>
      <trkpt lat="42.845863" lon="0.484112">
        <ele>1962.5</ele>
        <time>2013-11-09T10:52:38Z</time>
      </trkpt>
      <trkpt lat="42.845877" lon="0.483984">
        <ele>1962.7</ele>
        <time>2013-11-09T10:52:46Z</time>
      </trkpt>
      <trkpt lat="42.845896" lon="0.483848">
        <ele>1962.9</ele>
        <time>2013-11-09T10:52:54Z</time>
      </trkpt>
      <trkpt lat="42.845928" lon="0.483721">
        <ele>1963.4</ele>
        <time>2013-11-09T10:53:03Z</time>
      </trkpt>
      <trkpt lat="42.845950" lon="0.483581">
        <ele>1963.8</ele>
        <time>2013-11-09T10:53:12Z</time>
      </trkpt>
      <trkpt lat="42.845980" lon="0.483444">
        <ele>1964.4</ele>
        <time>2013-11-09T10:53:21Z</time>
      </trkpt>
      <trkpt lat="42.845988" lon="0.483319">
        <ele>1964.7</ele>
        <time>2013-11-09T10:53:29Z</time>
      </trkpt>
      <trkpt lat="42.846029" lon="0.483215">
        <ele>1965.3</ele>
        <time>2013-11-09T10:53:39Z</time>
      </trkpt>
      <trkpt lat="42.846019" lon="0.483096">
        <ele>1965.8</ele>
        <time>2013-11-09T10:53:51Z</time>
      </trkpt>
      <trkpt lat="42.845979" lon="0.482977">
        <ele>1967.4</ele>
        <time>2013-11-09T10:55:23Z</time>
      </trkpt>
      <trkpt lat="42.845981" lon="0.482833">
        <ele>1968.2</ele>
        <time>2013-11-09T10:55:34Z</time>
      </trkpt>
      <trkpt lat="42.845959" lon="0.482695">
        <ele>1969.5</ele>
        <time>2013-11-09T10:55:46Z</time>
      </trkpt>
      <trkpt lat="42.845943" lon="0.482568">
        <ele>1971.1</ele>
        <time>2013-11-09T10:55:55Z</time>
      </trkpt>
      <trkpt lat="42.845926" lon="0.482438">
        <ele>1972.0</ele>
        <time>2013-11-09T10:56:04Z</time>
      </trkpt>
      <trkpt lat="42.845922" lon="0.482309">
        <ele>1972.7</ele>
        <time>2013-11-09T10:56:13Z</time>
      </trkpt>
      <trkpt lat="42.845910" lon="0.482175">
        <ele>1973.8</ele>
        <time>2013-11-09T10:56:22Z</time>
      </trkpt>
      <trkpt lat="42.845907" lon="0.482049">
        <ele>1974.9</ele>
        <time>2013-11-09T10:56:31Z</time>
      </trkpt>
      <trkpt lat="42.845892" lon="0.481912">
        <ele>1976.1</ele>
        <time>2013-11-09T10:56:41Z</time>
      </trkpt>
      <trkpt lat="42.845872" lon="0.481782">
        <ele>1977.4</ele>
        <time>2013-11-09T10:56:50Z</time>
      </trkpt>
      <trkpt lat="42.845862" lon="0.481645">
        <ele>1978.9</ele>
        <time>2013-11-09T10:57:00Z</time>
      </trkpt>
      <trkpt lat="42.845844" lon="0.481506">
        <ele>1980.6</ele>
        <time>2013-11-09T10:57:10Z</time>
      </trkpt>
      <trkpt lat="42.845821" lon="0.481375">
        <ele>1982.0</ele>
        <time>2013-11-09T10:57:20Z</time>
      </trkpt>
      <trkpt lat="42.845803" lon="0.481254">
        <ele>1983.9</ele>
        <time>2013-11-09T10:57:30Z</time>
      </trkpt>
      <trkpt lat="42.845787" lon="0.481133">
        <ele>1985.5</ele>
        <time>2013-11-09T10:57:39Z</time>
      </trkpt>
      <trkpt lat="42.845754" lon="0.481020">
        <ele>1987.0</ele>
        <time>2013-11-09T10:57:51Z</time>
      </trkpt>
      <trkpt lat="42.845713" lon="0.480903">
        <ele>1988.7</ele>
        <time>2013-11-09T10:58:02Z</time>
      </trkpt>
      <trkpt lat="42.845677" lon="0.480777">
        <ele>1991.6</ele>
        <time>2013-11-09T10:58:14Z</time>
      </trkpt>
      <trkpt lat="42.845644" lon="0.480641">
        <ele>1993.1</ele>
        <time>2013-11-09T10:58:27Z</time>
      </trkpt>
      <trkpt lat="42.845623" lon="0.480511">
        <ele>1995.2</ele>
        <time>2013-11-09T10:58:39Z</time>
      </trkpt>
      <trkpt lat="42.845594" lon="0.480402">
        <ele>1997.2</ele>
        <time>2013-11-09T10:58:51Z</time>
      </trkpt>
      <trkpt lat="42.845563" lon="0.480268">
        <ele>1998.2</ele>
        <time>2013-11-09T10:59:04Z</time>
      </trkpt>
      <trkpt lat="42.845521" lon="0.480232">
        <ele>1999.3</ele>
        <time>2013-11-09T10:59:35Z</time>
      </trkpt>
      <trkpt lat="42.845507" lon="0.480122">
        <ele>1999.9</ele>
        <time>2013-11-09T10:59:50Z</time>
      </trkpt>
      <trkpt lat="42.845473" lon="0.479995">
        <ele>2001.6</ele>
        <time>2013-11-09T11:00:03Z</time>
      </trkpt>
      <trkpt lat="42.845434" lon="0.479877">
        <ele>2002.9</ele>
        <time>2013-11-09T11:00:14Z</time>
      </trkpt>
      <trkpt lat="42.845383" lon="0.479756">
        <ele>2004.2</ele>
        <time>2013-11-09T11:00:27Z</time>
      </trkpt>
      <trkpt lat="42.845330" lon="0.479647">
        <ele>2005.5</ele>
        <time>2013-11-09T11:00:37Z</time>
      </trkpt>
      <trkpt lat="42.845274" lon="0.479554">
        <ele>2006.6</ele>
        <time>2013-11-09T11:00:46Z</time>
      </trkpt>
      <trkpt lat="42.845239" lon="0.479453">
        <ele>2007.8</ele>
        <time>2013-11-09T11:00:55Z</time>
      </trkpt>
      <trkpt lat="42.845208" lon="0.479324">
        <ele>2009.3</ele>
        <time>2013-11-09T11:01:04Z</time>
      </trkpt>
      <trkpt lat="42.845168" lon="0.479214">
        <ele>2010.0</ele>
        <time>2013-11-09T11:01:12Z</time>
      </trkpt>
      <trkpt lat="42.845142" lon="0.479101">
        <ele>2011.1</ele>
        <time>2013-11-09T11:01:22Z</time>
      </trkpt>
      <trkpt lat="42.845077" lon="0.479003">
        <ele>2012.2</ele>
        <time>2013-11-09T11:01:32Z</time>
      </trkpt>
      <trkpt lat="42.845030" lon="0.478900">
        <ele>2013.0</ele>
        <time>2013-11-09T11:01:42Z</time>
      </trkpt>
      <trkpt lat="42.844970" lon="0.478804">
        <ele>2014.4</ele>
        <time>2013-11-09T11:01:53Z</time>
      </trkpt>
      <trkpt lat="42.844917" lon="0.478708">
        <ele>2015.6</ele>
        <time>2013-11-09T11:02:03Z</time>
      </trkpt>
      <trkpt lat="42.844893" lon="0.478590">
        <ele>2015.7</ele>
        <time>2013-11-09T11:02:12Z</time>
      </trkpt>
      <trkpt lat="42.844892" lon="0.478456">
        <ele>2016.2</ele>
        <time>2013-11-09T11:02:22Z</time>
      </trkpt>
      <trkpt lat="42.844908" lon="0.478316">
        <ele>2016.8</ele>
        <time>2013-11-09T11:02:32Z</time>
      </trkpt>
      <trkpt lat="42.844930" lon="0.478183">
        <ele>2017.8</ele>
        <time>2013-11-09T11:02:41Z</time>
      </trkpt>
      <trkpt lat="42.844953" lon="0.478056">
        <ele>2018.3</ele>
        <time>2013-11-09T11:02:50Z</time>
      </trkpt>
      <trkpt lat="42.844992" lon="0.477924">
        <ele>2019.0</ele>
        <time>2013-11-09T11:03:00Z</time>
      </trkpt>
      <trkpt lat="42.845031" lon="0.477774">
        <ele>2019.9</ele>
        <time>2013-11-09T11:03:10Z</time>
      </trkpt>
      <trkpt lat="42.845051" lon="0.477634">
        <ele>2020.7</ele>
        <time>2013-11-09T11:03:19Z</time>
      </trkpt>
      <trkpt lat="42.845086" lon="0.477498">
        <ele>2021.4</ele>
        <time>2013-11-09T11:03:28Z</time>
      </trkpt>
      <trkpt lat="42.845118" lon="0.477378">
        <ele>2022.5</ele>
        <time>2013-11-09T11:03:36Z</time>
      </trkpt>
      <trkpt lat="42.845139" lon="0.477263">
        <ele>2023.8</ele>
        <time>2013-11-09T11:03:48Z</time>
      </trkpt>
      <trkpt lat="42.845180" lon="0.477134">
        <ele>2024.7</ele>
        <time>2013-11-09T11:03:57Z</time>
      </trkpt>
      <trkpt lat="42.845230" lon="0.477015">
        <ele>2025.7</ele>
        <time>2013-11-09T11:04:06Z</time>
      </trkpt>
      <trkpt lat="42.845271" lon="0.476901">
        <ele>2026.7</ele>
        <time>2013-11-09T11:04:14Z</time>
      </trkpt>
      <trkpt lat="42.845316" lon="0.476779">
        <ele>2027.5</ele>
        <time>2013-11-09T11:04:23Z</time>
      </trkpt>
      <trkpt lat="42.845364" lon="0.476665">
        <ele>2029.0</ele>
        <time>2013-11-09T11:04:32Z</time>
      </trkpt>
      <trkpt lat="42.845415" lon="0.476554">
        <ele>2030.3</ele>
        <time>2013-11-09T11:04:41Z</time>
      </trkpt>
      <trkpt lat="42.845451" lon="0.476430">
        <ele>2031.1</ele>
        <time>2013-11-09T11:04:50Z</time>
      </trkpt>
      <trkpt lat="42.845489" lon="0.476305">
        <ele>2032.5</ele>
        <time>2013-11-09T11:05:00Z</time>
      </trkpt>
      <trkpt lat="42.845522" lon="0.476183">
        <ele>2033.5</ele>
        <time>2013-11-09T11:05:11Z</time>
      </trkpt>
      <trkpt lat="42.845559" lon="0.476068">
        <ele>2034.9</ele>
        <time>2013-11-09T11:05:20Z</time>
      </trkpt>
      <trkpt lat="42.845584" lon="0.475947">
        <ele>2036.0</ele>
        <time>2013-11-09T11:05:29Z</time>
      </trkpt>
      <trkpt lat="42.845602" lon="0.475825">
        <ele>2036.9</ele>
        <time>2013-11-09T11:05:38Z</time>
      </trkpt>
      <trkpt lat="42.845617" lon="0.475689">
        <ele>2038.1</ele>
        <time>2013-11-09T11:05:48Z</time>
      </trkpt>
      <trkpt lat="42.845618" lon="0.475576">
        <ele>2038.1</ele>
        <time>2013-11-09T11:05:57Z</time>
      </trkpt>
      <trkpt lat="42.845645" lon="0.475464">
        <ele>2038.3</ele>
        <time>2013-11-09T11:06:06Z</time>
      </trkpt>
      <trkpt lat="42.845665" lon="0.475334">
        <ele>2038.2</ele>
        <time>2013-11-09T11:06:14Z</time>
      </trkpt>
      <trkpt lat="42.845692" lon="0.475212">
        <ele>2037.3</ele>
        <time>2013-11-09T11:06:23Z</time>
      </trkpt>
      <trkpt lat="42.845713" lon="0.475089">
        <ele>2036.8</ele>
        <time>2013-11-09T11:06:31Z</time>
      </trkpt>
      <trkpt lat="42.845729" lon="0.474952">
        <ele>2036.6</ele>
        <time>2013-11-09T11:06:39Z</time>
      </trkpt>
      <trkpt lat="42.845752" lon="0.474825">
        <ele>2035.9</ele>
        <time>2013-11-09T11:06:47Z</time>
      </trkpt>
      <trkpt lat="42.845776" lon="0.474700">
        <ele>2035.5</ele>
        <time>2013-11-09T11:06:54Z</time>
      </trkpt>
      <trkpt lat="42.845796" lon="0.474582">
        <ele>2034.8</ele>
        <time>2013-11-09T11:07:02Z</time>
      </trkpt>
      <trkpt lat="42.845810" lon="0.474457">
        <ele>2034.3</ele>
        <time>2013-11-09T11:07:09Z</time>
      </trkpt>
      <trkpt lat="42.845812" lon="0.474331">
        <ele>2033.8</ele>
        <time>2013-11-09T11:07:16Z</time>
      </trkpt>
      <trkpt lat="42.845798" lon="0.474204">
        <ele>2032.9</ele>
        <time>2013-11-09T11:07:24Z</time>
      </trkpt>
      <trkpt lat="42.845799" lon="0.474087">
        <ele>2032.0</ele>
        <time>2013-11-09T11:07:31Z</time>
      </trkpt>
      <trkpt lat="42.845788" lon="0.473953">
        <ele>2031.3</ele>
        <time>2013-11-09T11:07:40Z</time>
      </trkpt>
      <trkpt lat="42.845783" lon="0.473822">
        <ele>2030.8</ele>
        <time>2013-11-09T11:07:53Z</time>
      </trkpt>
      <trkpt lat="42.845780" lon="0.473684">
        <ele>2030.3</ele>
        <time>2013-11-09T11:08:04Z</time>
      </trkpt>
      <trkpt lat="42.845781" lon="0.473562">
        <ele>2029.6</ele>
        <time>2013-11-09T11:08:12Z</time>
      </trkpt>
      <trkpt lat="42.845788" lon="0.473431">
        <ele>2028.5</ele>
        <time>2013-11-09T11:08:20Z</time>
      </trkpt>
      <trkpt lat="42.845803" lon="0.473299">
        <ele>2027.5</ele>
        <time>2013-11-09T11:08:29Z</time>
      </trkpt>
      <trkpt lat="42.845826" lon="0.473174">
        <ele>2027.4</ele>
        <time>2013-11-09T11:08:38Z</time>
      </trkpt>
      <trkpt lat="42.845847" lon="0.473067">
        <ele>2027.4</ele>
        <time>2013-11-09T11:08:49Z</time>
      </trkpt>
      <trkpt lat="42.845830" lon="0.472946">
        <ele>2027.1</ele>
        <time>2013-11-09T11:09:09Z</time>
      </trkpt>
      <trkpt lat="42.845853" lon="0.472824">
        <ele>2025.4</ele>
        <time>2013-11-09T11:11:15Z</time>
      </trkpt>
      <trkpt lat="42.845833" lon="0.472701">
        <ele>2024.1</ele>
        <time>2013-11-09T11:11:25Z</time>
      </trkpt>
      <trkpt lat="42.845814" lon="0.472593">
        <ele>2021.4</ele>
        <time>2013-11-09T11:11:38Z</time>
      </trkpt>
      <trkpt lat="42.845849" lon="0.472480">
        <ele>2018.9</ele>
        <time>2013-11-09T11:11:49Z</time>
      </trkpt>
      <trkpt lat="42.845874" lon="0.472341">
        <ele>2017.8</ele>
        <time>2013-11-09T11:11:58Z</time>
      </trkpt>
      <trkpt lat="42.845908" lon="0.472219">
        <ele>2017.2</ele>
        <time>2013-11-09T11:12:07Z</time>
      </trkpt>
      <trkpt lat="42.845909" lon="0.472098">
        <ele>2017.1</ele>
        <time>2013-11-09T11:12:15Z</time>
      </trkpt>
      <trkpt lat="42.845924" lon="0.471976">
        <ele>2017.8</ele>
        <time>2013-11-09T11:12:24Z</time>
      </trkpt>
      <trkpt lat="42.845952" lon="0.471863">
        <ele>2018.8</ele>
        <time>2013-11-09T11:12:33Z</time>
      </trkpt>
      <trkpt lat="42.845978" lon="0.471746">
        <ele>2020.8</ele>
        <time>2013-11-09T11:12:45Z</time>
      </trkpt>
      <trkpt lat="42.845987" lon="0.471625">
        <ele>2023.2</ele>
        <time>2013-11-09T11:12:56Z</time>
      </trkpt>
      <trkpt lat="42.846001" lon="0.471517">
        <ele>2026.0</ele>
        <time>2013-11-09T11:13:11Z</time>
      </trkpt>
      <trkpt lat="42.846007" lon="0.471386">
        <ele>2028.4</ele>
        <time>2013-11-09T11:13:23Z</time>
      </trkpt>
      <trkpt lat="42.846023" lon="0.471248">
        <ele>2031.0</ele>
        <time>2013-11-09T11:13:35Z</time>
      </trkpt>
      <trkpt lat="42.846006" lon="0.471126">
        <ele>2034.7</ele>
        <time>2013-11-09T11:13:48Z</time>
      </trkpt>
      <trkpt lat="42.846012" lon="0.470988">
        <ele>2037.8</ele>
        <time>2013-11-09T11:14:02Z</time>
      </trkpt>
      <trkpt lat="42.846002" lon="0.470859">
        <ele>2041.5</ele>
        <time>2013-11-09T11:14:17Z</time>
      </trkpt>
      <trkpt lat="42.845995" lon="0.470734">
        <ele>2044.7</ele>
        <time>2013-11-09T11:14:32Z</time>
      </trkpt>
      <trkpt lat="42.845977" lon="0.470603">
        <ele>2048.4</ele>
        <time>2013-11-09T11:14:46Z</time>
      </trkpt>
      <trkpt lat="42.845949" lon="0.470483">
        <ele>2051.7</ele>
        <time>2013-11-09T11:14:59Z</time>
      </trkpt>
      <trkpt lat="42.845925" lon="0.470366">
        <ele>2055.7</ele>
        <time>2013-11-09T11:15:12Z</time>
      </trkpt>
      <trkpt lat="42.845903" lon="0.470252">
        <ele>2060.4</ele>
        <time>2013-11-09T11:15:28Z</time>
      </trkpt>
      <trkpt lat="42.845927" lon="0.470140">
        <ele>2063.5</ele>
        <time>2013-11-09T11:15:43Z</time>
      </trkpt>
      <trkpt lat="42.845927" lon="0.470026">
        <ele>2067.0</ele>
        <time>2013-11-09T11:15:59Z</time>
      </trkpt>
      <trkpt lat="42.845920" lon="0.469905">
        <ele>2071.5</ele>
        <time>2013-11-09T11:16:14Z</time>
      </trkpt>
      <trkpt lat="42.845934" lon="0.469793">
        <ele>2075.0</ele>
        <time>2013-11-09T11:16:27Z</time>
      </trkpt>
      <trkpt lat="42.845959" lon="0.469678">
        <ele>2079.1</ele>
        <time>2013-11-09T11:16:44Z</time>
      </trkpt>
      <trkpt lat="42.845983" lon="0.469545">
        <ele>2083.0</ele>
        <time>2013-11-09T11:16:59Z</time>
      </trkpt>
      <trkpt lat="42.845976" lon="0.469415">
        <ele>2087.6</ele>
        <time>2013-11-09T11:17:17Z</time>
      </trkpt>
      <trkpt lat="42.845976" lon="0.469285">
        <ele>2091.8</ele>
        <time>2013-11-09T11:17:33Z</time>
      </trkpt>
      <trkpt lat="42.846012" lon="0.469168">
        <ele>2095.6</ele>
        <time>2013-11-09T11:17:46Z</time>
      </trkpt>
      <trkpt lat="42.846064" lon="0.469047">
        <ele>2099.3</ele>
        <time>2013-11-09T11:17:59Z</time>
      </trkpt>
      <trkpt lat="42.846139" lon="0.468958">
        <ele>2102.0</ele>
        <time>2013-11-09T11:18:12Z</time>
      </trkpt>
      <trkpt lat="42.846205" lon="0.468858">
        <ele>2104.1</ele>
        <time>2013-11-09T11:18:24Z</time>
      </trkpt>
      <trkpt lat="42.846254" lon="0.468753">
        <ele>2105.5</ele>
        <time>2013-11-09T11:18:34Z</time>
      </trkpt>
      <trkpt lat="42.846316" lon="0.468665">
        <ele>2106.9</ele>
        <time>2013-11-09T11:18:44Z</time>
      </trkpt>
      <trkpt lat="42.846370" lon="0.468564">
        <ele>2108.7</ele>
        <time>2013-11-09T11:18:54Z</time>
      </trkpt>
      <trkpt lat="42.846419" lon="0.468451">
        <ele>2109.9</ele>
        <time>2013-11-09T11:19:04Z</time>
      </trkpt>
      <trkpt lat="42.846491" lon="0.468368">
        <ele>2110.9</ele>
        <time>2013-11-09T11:19:14Z</time>
      </trkpt>
      <trkpt lat="42.846556" lon="0.468286">
        <ele>2112.2</ele>
        <time>2013-11-09T11:19:23Z</time>
      </trkpt>
      <trkpt lat="42.846623" lon="0.468177">
        <ele>2113.3</ele>
        <time>2013-11-09T11:19:33Z</time>
      </trkpt>
      <trkpt lat="42.846695" lon="0.468084">
        <ele>2114.1</ele>
        <time>2013-11-09T11:19:42Z</time>
      </trkpt>
      <trkpt lat="42.846758" lon="0.467995">
        <ele>2114.6</ele>
        <time>2013-11-09T11:19:51Z</time>
      </trkpt>
      <trkpt lat="42.846813" lon="0.467899">
        <ele>2114.9</ele>
        <time>2013-11-09T11:19:59Z</time>
      </trkpt>
      <trkpt lat="42.846865" lon="0.467801">
        <ele>2115.0</ele>
        <time>2013-11-09T11:20:07Z</time>
      </trkpt>
      <trkpt lat="42.846948" lon="0.467741">
        <ele>2115.2</ele>
        <time>2013-11-09T11:20:17Z</time>
      </trkpt>
      <trkpt lat="42.846985" lon="0.467749">
        <ele>2115.5</ele>
        <time>2013-11-09T11:24:00Z</time>
      </trkpt>
      <trkpt lat="42.847016" lon="0.467633">
        <ele>2115.0</ele>
        <time>2013-11-09T11:24:08Z</time>
      </trkpt>
      <trkpt lat="42.847069" lon="0.467531">
        <ele>2114.1</ele>
        <time>2013-11-09T11:24:16Z</time>
      </trkpt>
      <trkpt lat="42.847106" lon="0.467419">
        <ele>2113.7</ele>
        <time>2013-11-09T11:24:28Z</time>
      </trkpt>
      <trkpt lat="42.847166" lon="0.467350">
        <ele>2112.0</ele>
        <time>2013-11-09T11:24:37Z</time>
      </trkpt>
      <trkpt lat="42.847207" lon="0.467242">
        <ele>2109.9</ele>
        <time>2013-11-09T11:24:45Z</time>
      </trkpt>
      <trkpt lat="42.847253" lon="0.467123">
        <ele>2108.3</ele>
        <time>2013-11-09T11:24:53Z</time>
      </trkpt>
      <trkpt lat="42.847276" lon="0.466994">
        <ele>2107.1</ele>
        <time>2013-11-09T11:25:02Z</time>
      </trkpt>
      <trkpt lat="42.847289" lon="0.466869">
        <ele>2107.2</ele>
        <time>2013-11-09T11:25:12Z</time>
      </trkpt>
      <trkpt lat="42.847315" lon="0.466759">
        <ele>2107.1</ele>
        <time>2013-11-09T11:25:20Z</time>
      </trkpt>
      <trkpt lat="42.847345" lon="0.466639">
        <ele>2106.0</ele>
        <time>2013-11-09T11:25:27Z</time>
      </trkpt>
      <trkpt lat="42.847388" lon="0.466518">
        <ele>2105.3</ele>
        <time>2013-11-09T11:25:34Z</time>
      </trkpt>
      <trkpt lat="42.847434" lon="0.466395">
        <ele>2103.9</ele>
        <time>2013-11-09T11:25:42Z</time>
      </trkpt>
      <trkpt lat="42.847480" lon="0.466279">
        <ele>2103.5</ele>
        <time>2013-11-09T11:25:49Z</time>
      </trkpt>
      <trkpt lat="42.847526" lon="0.466169">
        <ele>2102.9</ele>
        <time>2013-11-09T11:25:56Z</time>
      </trkpt>
      <trkpt lat="42.847574" lon="0.466057">
        <ele>2101.8</ele>
        <time>2013-11-09T11:26:03Z</time>
      </trkpt>
      <trkpt lat="42.847605" lon="0.465923">
        <ele>2100.7</ele>
        <time>2013-11-09T11:26:10Z</time>
      </trkpt>
      <trkpt lat="42.847625" lon="0.465806">
        <ele>2098.9</ele>
        <time>2013-11-09T11:26:17Z</time>
      </trkpt>
      <trkpt lat="42.847666" lon="0.465682">
        <ele>2096.7</ele>
        <time>2013-11-09T11:26:25Z</time>
      </trkpt>
      <trkpt lat="42.847694" lon="0.465567">
        <ele>2094.6</ele>
        <time>2013-11-09T11:26:32Z</time>
      </trkpt>
      <trkpt lat="42.847716" lon="0.465449">
        <ele>2092.4</ele>
        <time>2013-11-09T11:26:40Z</time>
      </trkpt>
      <trkpt lat="42.847750" lon="0.465349">
        <ele>2090.3</ele>
        <time>2013-11-09T11:26:48Z</time>
      </trkpt>
      <trkpt lat="42.847772" lon="0.465223">
        <ele>2088.1</ele>
        <time>2013-11-09T11:26:56Z</time>
      </trkpt>
      <trkpt lat="42.847817" lon="0.465092">
        <ele>2085.7</ele>
        <time>2013-11-09T11:27:05Z</time>
      </trkpt>
      <trkpt lat="42.847874" lon="0.464994">
        <ele>2083.1</ele>
        <time>2013-11-09T11:27:13Z</time>
      </trkpt>
      <trkpt lat="42.847946" lon="0.464930">
        <ele>2080.4</ele>
        <time>2013-11-09T11:27:24Z</time>
      </trkpt>
      <trkpt lat="42.848020" lon="0.464844">
        <ele>2076.5</ele>
        <time>2013-11-09T11:27:37Z</time>
      </trkpt>
      <trkpt lat="42.848089" lon="0.464738">
        <ele>2073.6</ele>
        <time>2013-11-09T11:27:44Z</time>
      </trkpt>
      <trkpt lat="42.848160" lon="0.464666">
        <ele>2070.2</ele>
        <time>2013-11-09T11:27:52Z</time>
      </trkpt>
      <trkpt lat="42.848239" lon="0.464575">
        <ele>2067.5</ele>
        <time>2013-11-09T11:28:01Z</time>
      </trkpt>
      <trkpt lat="42.848287" lon="0.464471">
        <ele>2064.1</ele>
        <time>2013-11-09T11:28:09Z</time>
      </trkpt>
      <trkpt lat="42.848349" lon="0.464389">
        <ele>2060.8</ele>
        <time>2013-11-09T11:28:16Z</time>
      </trkpt>
      <trkpt lat="42.848408" lon="0.464273">
        <ele>2057.4</ele>
        <time>2013-11-09T11:28:23Z</time>
      </trkpt>
      <trkpt lat="42.848485" lon="0.464207">
        <ele>2055.0</ele>
        <time>2013-11-09T11:28:30Z</time>
      </trkpt>
      <trkpt lat="42.848539" lon="0.464101">
        <ele>2052.0</ele>
        <time>2013-11-09T11:28:37Z</time>
      </trkpt>
      <trkpt lat="42.848595" lon="0.463990">
        <ele>2048.5</ele>
        <time>2013-11-09T11:28:45Z</time>
      </trkpt>
      <trkpt lat="42.848680" lon="0.463914">
        <ele>2045.3</ele>
        <time>2013-11-09T11:28:53Z</time>
      </trkpt>
      <trkpt lat="42.848774" lon="0.463859">
        <ele>2042.2</ele>
        <time>2013-11-09T11:29:01Z</time>
      </trkpt>
      <trkpt lat="42.848852" lon="0.463776">
        <ele>2039.4</ele>
        <time>2013-11-09T11:29:09Z</time>
      </trkpt>
      <trkpt lat="42.848913" lon="0.463672">
        <ele>2036.6</ele>
        <time>2013-11-09T11:29:16Z</time>
      </trkpt>
      <trkpt lat="42.848990" lon="0.463570">
        <ele>2033.7</ele>
        <time>2013-11-09T11:29:24Z</time>
      </trkpt>
      <trkpt lat="42.849063" lon="0.463464">
        <ele>2031.9</ele>
        <time>2013-11-09T11:29:31Z</time>
      </trkpt>
      <trkpt lat="42.849132" lon="0.463361">
        <ele>2030.7</ele>
        <time>2013-11-09T11:29:38Z</time>
      </trkpt>
      <trkpt lat="42.849188" lon="0.463262">
        <ele>2029.5</ele>
        <time>2013-11-09T11:29:45Z</time>
      </trkpt>
      <trkpt lat="42.849245" lon="0.463164">
        <ele>2028.8</ele>
        <time>2013-11-09T11:29:52Z</time>
      </trkpt>
      <trkpt lat="42.849311" lon="0.463075">
        <ele>2027.7</ele>
        <time>2013-11-09T11:29:58Z</time>
      </trkpt>
      <trkpt lat="42.849372" lon="0.462981">
        <ele>2026.6</ele>
        <time>2013-11-09T11:30:05Z</time>
      </trkpt>
      <trkpt lat="42.849432" lon="0.462877">
        <ele>2026.1</ele>
        <time>2013-11-09T11:30:12Z</time>
      </trkpt>
      <trkpt lat="42.849493" lon="0.462766">
        <ele>2026.8</ele>
        <time>2013-11-09T11:30:20Z</time>
      </trkpt>
      <trkpt lat="42.849568" lon="0.462686">
        <ele>2027.7</ele>
        <time>2013-11-09T11:30:28Z</time>
      </trkpt>
      <trkpt lat="42.849623" lon="0.462589">
        <ele>2028.7</ele>
        <time>2013-11-09T11:30:38Z</time>
      </trkpt>
      <trkpt lat="42.849693" lon="0.462484">
        <ele>2030.1</ele>
        <time>2013-11-09T11:30:47Z</time>
      </trkpt>
      <trkpt lat="42.849753" lon="0.462372">
        <ele>2031.5</ele>
        <time>2013-11-09T11:30:56Z</time>
      </trkpt>
      <trkpt lat="42.849808" lon="0.462256">
        <ele>2033.9</ele>
        <time>2013-11-09T11:31:06Z</time>
      </trkpt>
      <trkpt lat="42.849880" lon="0.462144">
        <ele>2036.4</ele>
        <time>2013-11-09T11:31:17Z</time>
      </trkpt>
      <trkpt lat="42.849932" lon="0.462050">
        <ele>2038.7</ele>
        <time>2013-11-09T11:31:28Z</time>
      </trkpt>
      <trkpt lat="42.849978" lon="0.461951">
        <ele>2040.5</ele>
        <time>2013-11-09T11:31:54Z</time>
      </trkpt>
      <trkpt lat="42.850047" lon="0.461877">
        <ele>2042.9</ele>
        <time>2013-11-09T11:32:05Z</time>
      </trkpt>
      <trkpt lat="42.850135" lon="0.461800">
        <ele>2046.4</ele>
        <time>2013-11-09T11:32:18Z</time>
      </trkpt>
      <trkpt lat="42.850204" lon="0.461733">
        <ele>2049.7</ele>
        <time>2013-11-09T11:32:29Z</time>
      </trkpt>
      <trkpt lat="42.850280" lon="0.461641">
        <ele>2052.8</ele>
        <time>2013-11-09T11:32:42Z</time>
      </trkpt>
      <trkpt lat="42.850351" lon="0.461543">
        <ele>2056.7</ele>
        <time>2013-11-09T11:32:56Z</time>
      </trkpt>
      <trkpt lat="42.850407" lon="0.461457">
        <ele>2059.8</ele>
        <time>2013-11-09T11:33:09Z</time>
      </trkpt>
      <trkpt lat="42.850466" lon="0.461365">
        <ele>2063.7</ele>
        <time>2013-11-09T11:33:24Z</time>
      </trkpt>
      <trkpt lat="42.850533" lon="0.461258">
        <ele>2067.7</ele>
        <time>2013-11-09T11:33:40Z</time>
      </trkpt>
      <trkpt lat="42.850576" lon="0.461136">
        <ele>2071.3</ele>
        <time>2013-11-09T11:33:56Z</time>
      </trkpt>
      <trkpt lat="42.850613" lon="0.461020">
        <ele>2075.5</ele>
        <time>2013-11-09T11:34:11Z</time>
      </trkpt>
      <trkpt lat="42.850656" lon="0.460918">
        <ele>2079.8</ele>
        <time>2013-11-09T11:34:27Z</time>
      </trkpt>
      <trkpt lat="42.850738" lon="0.460852">
        <ele>2084.8</ele>
        <time>2013-11-09T11:34:46Z</time>
      </trkpt>
      <trkpt lat="42.850843" lon="0.460841">
        <ele>2090.1</ele>
        <time>2013-11-09T11:35:04Z</time>
      </trkpt>
      <trkpt lat="42.850934" lon="0.460833">
        <ele>2093.3</ele>
        <time>2013-11-09T11:35:18Z</time>
      </trkpt>
      <trkpt lat="42.851026" lon="0.460844">
        <ele>2096.4</ele>
        <time>2013-11-09T11:35:29Z</time>
      </trkpt>
      <trkpt lat="42.851107" lon="0.460768">
        <ele>2098.3</ele>
        <time>2013-11-09T11:35:41Z</time>
      </trkpt>
      <trkpt lat="42.851193" lon="0.460711">
        <ele>2102.1</ele>
        <time>2013-11-09T11:35:56Z</time>
      </trkpt>
      <trkpt lat="42.851287" lon="0.460648">
        <ele>2105.5</ele>
        <time>2013-11-09T11:36:10Z</time>
      </trkpt>
      <trkpt lat="42.851366" lon="0.460581">
        <ele>2108.7</ele>
        <time>2013-11-09T11:36:23Z</time>
      </trkpt>
      <trkpt lat="42.851459" lon="0.460532">
        <ele>2112.4</ele>
        <time>2013-11-09T11:36:38Z</time>
      </trkpt>
      <trkpt lat="42.851553" lon="0.460526">
        <ele>2115.8</ele>
        <time>2013-11-09T11:36:51Z</time>
      </trkpt>
      <trkpt lat="42.851642" lon="0.460495">
        <ele>2118.3</ele>
        <time>2013-11-09T11:37:04Z</time>
      </trkpt>
      <trkpt lat="42.851742" lon="0.460489">
        <ele>2121.9</ele>
        <time>2013-11-09T11:37:19Z</time>
      </trkpt>
      <trkpt lat="42.851827" lon="0.460419">
        <ele>2125.1</ele>
        <time>2013-11-09T11:37:31Z</time>
      </trkpt>
      <trkpt lat="42.851902" lon="0.460345">
        <ele>2127.9</ele>
        <time>2013-11-09T11:37:43Z</time>
      </trkpt>
      <trkpt lat="42.851957" lon="0.460293">
        <ele>2129.9</ele>
        <time>2013-11-09T11:38:10Z</time>
      </trkpt>
      <trkpt lat="42.852021" lon="0.460388">
        <ele>2129.5</ele>
        <time>2013-11-09T11:41:50Z</time>
      </trkpt>
      <trkpt lat="42.852033" lon="0.460392">
        <ele>2129.1</ele>
        <time>2013-11-09T11:42:04Z</time>
      </trkpt>
      <trkpt lat="42.852072" lon="0.460426">
        <ele>2129.6</ele>
        <time>2013-11-09T11:42:22Z</time>
      </trkpt>
      <trkpt lat="42.852121" lon="0.460530">
        <ele>2128.6</ele>
        <time>2013-11-09T11:42:30Z</time>
      </trkpt>
      <trkpt lat="42.852167" lon="0.460640">
        <ele>2126.2</ele>
        <time>2013-11-09T11:42:44Z</time>
      </trkpt>
      <trkpt lat="42.852210" lon="0.460739">
        <ele>2121.6</ele>
        <time>2013-11-09T11:43:06Z</time>
      </trkpt>
      <trkpt lat="42.852214" lon="0.460758">
        <ele>2121.8</ele>
        <time>2013-11-09T12:15:38Z</time>
      </trkpt>
      <trkpt lat="42.852201" lon="0.460696">
        <ele>2123.5</ele>
        <time>2013-11-09T12:16:33Z</time>
      </trkpt>
      <trkpt lat="42.852156" lon="0.460577">
        <ele>2126.7</ele>
        <time>2013-11-09T12:16:50Z</time>
      </trkpt>
      <trkpt lat="42.852091" lon="0.460481">
        <ele>2128.6</ele>
        <time>2013-11-09T12:17:01Z</time>
      </trkpt>
      <trkpt lat="42.852023" lon="0.460375">
        <ele>2130.2</ele>
        <time>2013-11-09T12:17:13Z</time>
      </trkpt>
      <trkpt lat="42.852004" lon="0.460374">
        <ele>2131.1</ele>
        <time>2013-11-09T12:18:18Z</time>
      </trkpt>
      <trkpt lat="42.851984" lon="0.460346">
        <ele>2131.3</ele>
        <time>2013-11-09T12:19:43Z</time>
      </trkpt>
      <trkpt lat="42.851959" lon="0.460362">
        <ele>2131.6</ele>
        <time>2013-11-09T12:20:25Z</time>
      </trkpt>
      <trkpt lat="42.851870" lon="0.460410">
        <ele>2131.6</ele>
        <time>2013-11-09T12:20:33Z</time>
      </trkpt>
      <trkpt lat="42.851775" lon="0.460468">
        <ele>2129.9</ele>
        <time>2013-11-09T12:20:43Z</time>
      </trkpt>
      <trkpt lat="42.851687" lon="0.460530">
        <ele>2126.4</ele>
        <time>2013-11-09T12:20:55Z</time>
      </trkpt>
      <trkpt lat="42.851611" lon="0.460544">
        <ele>2124.0</ele>
        <time>2013-11-09T12:21:04Z</time>
      </trkpt>
      <trkpt lat="42.851518" lon="0.460546">
        <ele>2121.1</ele>
        <time>2013-11-09T12:21:13Z</time>
      </trkpt>
      <trkpt lat="42.851432" lon="0.460581">
        <ele>2117.7</ele>
        <time>2013-11-09T12:21:56Z</time>
      </trkpt>
      <trkpt lat="42.851341" lon="0.460632">
        <ele>2115.5</ele>
        <time>2013-11-09T12:22:03Z</time>
      </trkpt>
      <trkpt lat="42.851256" lon="0.460692">
        <ele>2112.5</ele>
        <time>2013-11-09T12:22:10Z</time>
      </trkpt>
      <trkpt lat="42.851176" lon="0.460743">
        <ele>2109.7</ele>
        <time>2013-11-09T12:22:16Z</time>
      </trkpt>
      <trkpt lat="42.851077" lon="0.460788">
        <ele>2106.0</ele>
        <time>2013-11-09T12:22:23Z</time>
      </trkpt>
      <trkpt lat="42.850977" lon="0.460809">
        <ele>2103.2</ele>
        <time>2013-11-09T12:22:30Z</time>
      </trkpt>
      <trkpt lat="42.850876" lon="0.460829">
        <ele>2099.9</ele>
        <time>2013-11-09T12:22:38Z</time>
      </trkpt>
      <trkpt lat="42.850789" lon="0.460832">
        <ele>2096.9</ele>
        <time>2013-11-09T12:22:45Z</time>
      </trkpt>
      <trkpt lat="42.850710" lon="0.460890">
        <ele>2092.7</ele>
        <time>2013-11-09T12:22:53Z</time>
      </trkpt>
      <trkpt lat="42.850647" lon="0.460981">
        <ele>2087.9</ele>
        <time>2013-11-09T12:23:04Z</time>
      </trkpt>
      <trkpt lat="42.850587" lon="0.461053">
        <ele>2082.9</ele>
        <time>2013-11-09T12:23:17Z</time>
      </trkpt>
      <trkpt lat="42.850538" lon="0.461164">
        <ele>2078.3</ele>
        <time>2013-11-09T12:23:31Z</time>
      </trkpt>
      <trkpt lat="42.850486" lon="0.461261">
        <ele>2073.5</ele>
        <time>2013-11-09T12:23:45Z</time>
      </trkpt>
      <trkpt lat="42.850420" lon="0.461343">
        <ele>2069.1</ele>
        <time>2013-11-09T12:24:13Z</time>
      </trkpt>
      <trkpt lat="42.850354" lon="0.461431">
        <ele>2066.3</ele>
        <time>2013-11-09T12:24:25Z</time>
      </trkpt>
      <trkpt lat="42.850288" lon="0.461526">
        <ele>2062.6</ele>
        <time>2013-11-09T12:24:36Z</time>
      </trkpt>
      <trkpt lat="42.850225" lon="0.461617">
        <ele>2060.2</ele>
        <time>2013-11-09T12:24:44Z</time>
      </trkpt>
      <trkpt lat="42.850164" lon="0.461691">
        <ele>2057.3</ele>
        <time>2013-11-09T12:24:52Z</time>
      </trkpt>
      <trkpt lat="42.850123" lon="0.461798">
        <ele>2053.9</ele>
        <time>2013-11-09T12:25:02Z</time>
      </trkpt>
      <trkpt lat="42.850063" lon="0.461891">
        <ele>2051.2</ele>
        <time>2013-11-09T12:25:11Z</time>
      </trkpt>
      <trkpt lat="42.849998" lon="0.461981">
        <ele>2048.2</ele>
        <time>2013-11-09T12:25:20Z</time>
      </trkpt>
      <trkpt lat="42.849946" lon="0.462088">
        <ele>2045.8</ele>
        <time>2013-11-09T12:25:30Z</time>
      </trkpt>
      <trkpt lat="42.849887" lon="0.462198">
        <ele>2043.3</ele>
        <time>2013-11-09T12:25:38Z</time>
      </trkpt>
      <trkpt lat="42.849821" lon="0.462278">
        <ele>2041.5</ele>
        <time>2013-11-09T12:25:44Z</time>
      </trkpt>
      <trkpt lat="42.849766" lon="0.462375">
        <ele>2039.0</ele>
        <time>2013-11-09T12:25:51Z</time>
      </trkpt>
      <trkpt lat="42.849722" lon="0.462500">
        <ele>2037.4</ele>
        <time>2013-11-09T12:25:59Z</time>
      </trkpt>
      <trkpt lat="42.849661" lon="0.462596">
        <ele>2036.2</ele>
        <time>2013-11-09T12:26:06Z</time>
      </trkpt>
      <trkpt lat="42.849589" lon="0.462690">
        <ele>2034.7</ele>
        <time>2013-11-09T12:26:13Z</time>
      </trkpt>
      <trkpt lat="42.849522" lon="0.462789">
        <ele>2033.4</ele>
        <time>2013-11-09T12:26:20Z</time>
      </trkpt>
      <trkpt lat="42.849446" lon="0.462864">
        <ele>2032.3</ele>
        <time>2013-11-09T12:26:26Z</time>
      </trkpt>
      <trkpt lat="42.849390" lon="0.462969">
        <ele>2031.3</ele>
        <time>2013-11-09T12:26:33Z</time>
      </trkpt>
      <trkpt lat="42.849328" lon="0.463054">
        <ele>2030.7</ele>
        <time>2013-11-09T12:26:40Z</time>
      </trkpt>
      <trkpt lat="42.849248" lon="0.463129">
        <ele>2030.3</ele>
        <time>2013-11-09T12:26:47Z</time>
      </trkpt>
      <trkpt lat="42.849164" lon="0.463179">
        <ele>2030.6</ele>
        <time>2013-11-09T12:26:54Z</time>
      </trkpt>
      <trkpt lat="42.849106" lon="0.463264">
        <ele>2031.7</ele>
        <time>2013-11-09T12:27:05Z</time>
      </trkpt>
      <trkpt lat="42.849026" lon="0.463330">
        <ele>2032.4</ele>
        <time>2013-11-09T12:27:13Z</time>
      </trkpt>
      <trkpt lat="42.848937" lon="0.463376">
        <ele>2033.1</ele>
        <time>2013-11-09T12:27:22Z</time>
      </trkpt>
      <trkpt lat="42.848849" lon="0.463372">
        <ele>2033.8</ele>
        <time>2013-11-09T12:27:31Z</time>
      </trkpt>
      <trkpt lat="42.848756" lon="0.463349">
        <ele>2034.6</ele>
        <time>2013-11-09T12:27:40Z</time>
      </trkpt>
      <trkpt lat="42.848658" lon="0.463375">
        <ele>2035.7</ele>
        <time>2013-11-09T12:27:50Z</time>
      </trkpt>
      <trkpt lat="42.848566" lon="0.463390">
        <ele>2036.6</ele>
        <time>2013-11-09T12:27:59Z</time>
      </trkpt>
      <trkpt lat="42.848470" lon="0.463423">
        <ele>2037.4</ele>
        <time>2013-11-09T12:28:10Z</time>
      </trkpt>
      <trkpt lat="42.848366" lon="0.463431">
        <ele>2038.5</ele>
        <time>2013-11-09T12:28:20Z</time>
      </trkpt>
      <trkpt lat="42.848275" lon="0.463452">
        <ele>2039.7</ele>
        <time>2013-11-09T12:28:29Z</time>
      </trkpt>
      <trkpt lat="42.848173" lon="0.463469">
        <ele>2040.8</ele>
        <time>2013-11-09T12:28:39Z</time>
      </trkpt>
      <trkpt lat="42.848082" lon="0.463470">
        <ele>2042.4</ele>
        <time>2013-11-09T12:28:48Z</time>
      </trkpt>
      <trkpt lat="42.847982" lon="0.463477">
        <ele>2044.1</ele>
        <time>2013-11-09T12:28:58Z</time>
      </trkpt>
      <trkpt lat="42.847882" lon="0.463488">
        <ele>2045.6</ele>
        <time>2013-11-09T12:29:09Z</time>
      </trkpt>
      <trkpt lat="42.847789" lon="0.463512">
        <ele>2047.0</ele>
        <time>2013-11-09T12:29:19Z</time>
      </trkpt>
      <trkpt lat="42.847696" lon="0.463558">
        <ele>2048.7</ele>
        <time>2013-11-09T12:29:29Z</time>
      </trkpt>
      <trkpt lat="42.847609" lon="0.463601">
        <ele>2049.8</ele>
        <time>2013-11-09T12:29:38Z</time>
      </trkpt>
      <trkpt lat="42.847517" lon="0.463659">
        <ele>2051.4</ele>
        <time>2013-11-09T12:29:49Z</time>
      </trkpt>
      <trkpt lat="42.847419" lon="0.463623">
        <ele>2052.9</ele>
        <time>2013-11-09T12:29:59Z</time>
      </trkpt>
      <trkpt lat="42.847321" lon="0.463664">
        <ele>2053.2</ele>
        <time>2013-11-09T12:30:08Z</time>
      </trkpt>
      <trkpt lat="42.847235" lon="0.463702">
        <ele>2053.7</ele>
        <time>2013-11-09T12:30:17Z</time>
      </trkpt>
      <trkpt lat="42.847144" lon="0.463741">
        <ele>2053.9</ele>
        <time>2013-11-09T12:30:25Z</time>
      </trkpt>
      <trkpt lat="42.847060" lon="0.463789">
        <ele>2054.5</ele>
        <time>2013-11-09T12:30:33Z</time>
      </trkpt>
      <trkpt lat="42.846982" lon="0.463861">
        <ele>2055.7</ele>
        <time>2013-11-09T12:30:42Z</time>
      </trkpt>
      <trkpt lat="42.846917" lon="0.463954">
        <ele>2057.2</ele>
        <time>2013-11-09T12:30:51Z</time>
      </trkpt>
      <trkpt lat="42.846858" lon="0.464051">
        <ele>2057.6</ele>
        <time>2013-11-09T12:31:00Z</time>
      </trkpt>
      <trkpt lat="42.846798" lon="0.464150">
        <ele>2057.3</ele>
        <time>2013-11-09T12:31:09Z</time>
      </trkpt>
      <trkpt lat="42.846753" lon="0.464255">
        <ele>2057.1</ele>
        <time>2013-11-09T12:31:34Z</time>
      </trkpt>
      <trkpt lat="42.846673" lon="0.464342">
        <ele>2057.1</ele>
        <time>2013-11-09T12:31:42Z</time>
      </trkpt>
      <trkpt lat="42.846607" lon="0.464441">
        <ele>2057.2</ele>
        <time>2013-11-09T12:31:49Z</time>
      </trkpt>
      <trkpt lat="42.846543" lon="0.464535">
        <ele>2057.0</ele>
        <time>2013-11-09T12:31:56Z</time>
      </trkpt>
      <trkpt lat="42.846479" lon="0.464635">
        <ele>2056.9</ele>
        <time>2013-11-09T12:32:03Z</time>
      </trkpt>
      <trkpt lat="42.846423" lon="0.464736">
        <ele>2056.8</ele>
        <time>2013-11-09T12:32:10Z</time>
      </trkpt>
      <trkpt lat="42.846364" lon="0.464829">
        <ele>2057.1</ele>
        <time>2013-11-09T12:32:16Z</time>
      </trkpt>
      <trkpt lat="42.846288" lon="0.464912">
        <ele>2057.2</ele>
        <time>2013-11-09T12:32:23Z</time>
      </trkpt>
      <trkpt lat="42.846225" lon="0.464996">
        <ele>2056.2</ele>
        <time>2013-11-09T12:32:30Z</time>
      </trkpt>
      <trkpt lat="42.846158" lon="0.465094">
        <ele>2055.5</ele>
        <time>2013-11-09T12:32:37Z</time>
      </trkpt>
      <trkpt lat="42.846088" lon="0.465179">
        <ele>2055.2</ele>
        <time>2013-11-09T12:32:44Z</time>
      </trkpt>
      <trkpt lat="42.846008" lon="0.465276">
        <ele>2054.9</ele>
        <time>2013-11-09T12:32:51Z</time>
      </trkpt>
      <trkpt lat="42.845943" lon="0.465355">
        <ele>2054.7</ele>
        <time>2013-11-09T12:32:57Z</time>
      </trkpt>
      <trkpt lat="42.845874" lon="0.465450">
        <ele>2055.1</ele>
        <time>2013-11-09T12:33:04Z</time>
      </trkpt>
      <trkpt lat="42.845809" lon="0.465540">
        <ele>2054.4</ele>
        <time>2013-11-09T12:33:11Z</time>
      </trkpt>
      <trkpt lat="42.845735" lon="0.465640">
        <ele>2054.0</ele>
        <time>2013-11-09T12:33:19Z</time>
      </trkpt>
      <trkpt lat="42.845652" lon="0.465711">
        <ele>2054.1</ele>
        <time>2013-11-09T12:33:26Z</time>
      </trkpt>
      <trkpt lat="42.845555" lon="0.465786">
        <ele>2054.2</ele>
        <time>2013-11-09T12:33:34Z</time>
      </trkpt>
      <trkpt lat="42.845479" lon="0.465873">
        <ele>2054.1</ele>
        <time>2013-11-09T12:33:42Z</time>
      </trkpt>
      <trkpt lat="42.845395" lon="0.465944">
        <ele>2054.1</ele>
        <time>2013-11-09T12:33:49Z</time>
      </trkpt>
      <trkpt lat="42.845319" lon="0.466023">
        <ele>2054.2</ele>
        <time>2013-11-09T12:33:56Z</time>
      </trkpt>
      <trkpt lat="42.845236" lon="0.466086">
        <ele>2054.3</ele>
        <time>2013-11-09T12:34:04Z</time>
      </trkpt>
      <trkpt lat="42.845133" lon="0.466141">
        <ele>2054.1</ele>
        <time>2013-11-09T12:34:18Z</time>
      </trkpt>
      <trkpt lat="42.845053" lon="0.466213">
        <ele>2053.8</ele>
        <time>2013-11-09T12:34:25Z</time>
      </trkpt>
      <trkpt lat="42.844963" lon="0.466266">
        <ele>2053.6</ele>
        <time>2013-11-09T12:34:32Z</time>
      </trkpt>
      <trkpt lat="42.844870" lon="0.466325">
        <ele>2053.1</ele>
        <time>2013-11-09T12:34:39Z</time>
      </trkpt>
      <trkpt lat="42.844793" lon="0.466396">
        <ele>2053.0</ele>
        <time>2013-11-09T12:34:46Z</time>
      </trkpt>
      <trkpt lat="42.844716" lon="0.466480">
        <ele>2052.9</ele>
        <time>2013-11-09T12:34:53Z</time>
      </trkpt>
      <trkpt lat="42.844638" lon="0.466575">
        <ele>2052.5</ele>
        <time>2013-11-09T12:35:01Z</time>
      </trkpt>
      <trkpt lat="42.844551" lon="0.466646">
        <ele>2052.0</ele>
        <time>2013-11-09T12:35:08Z</time>
      </trkpt>
      <trkpt lat="42.844457" lon="0.466686">
        <ele>2051.4</ele>
        <time>2013-11-09T12:35:15Z</time>
      </trkpt>
      <trkpt lat="42.844358" lon="0.466731">
        <ele>2050.4</ele>
        <time>2013-11-09T12:35:25Z</time>
      </trkpt>
      <trkpt lat="42.844258" lon="0.466731">
        <ele>2050.1</ele>
        <time>2013-11-09T12:35:31Z</time>
      </trkpt>
      <trkpt lat="42.844162" lon="0.466704">
        <ele>2049.5</ele>
        <time>2013-11-09T12:35:38Z</time>
      </trkpt>
      <trkpt lat="42.844063" lon="0.466677">
        <ele>2049.2</ele>
        <time>2013-11-09T12:35:45Z</time>
      </trkpt>
      <trkpt lat="42.843960" lon="0.466665">
        <ele>2048.9</ele>
        <time>2013-11-09T12:35:52Z</time>
      </trkpt>
      <trkpt lat="42.843864" lon="0.466657">
        <ele>2048.1</ele>
        <time>2013-11-09T12:35:59Z</time>
      </trkpt>
      <trkpt lat="42.843767" lon="0.466631">
        <ele>2047.8</ele>
        <time>2013-11-09T12:36:06Z</time>
      </trkpt>
      <trkpt lat="42.843668" lon="0.466586">
        <ele>2046.7</ele>
        <time>2013-11-09T12:36:13Z</time>
      </trkpt>
      <trkpt lat="42.843577" lon="0.466555">
        <ele>2045.4</ele>
        <time>2013-11-09T12:36:20Z</time>
      </trkpt>
      <trkpt lat="42.843485" lon="0.466514">
        <ele>2044.4</ele>
        <time>2013-11-09T12:36:27Z</time>
      </trkpt>
      <trkpt lat="42.843401" lon="0.466469">
        <ele>2043.6</ele>
        <time>2013-11-09T12:36:34Z</time>
      </trkpt>
      <trkpt lat="42.843307" lon="0.466411">
        <ele>2042.5</ele>
        <time>2013-11-09T12:36:42Z</time>
      </trkpt>
      <trkpt lat="42.843218" lon="0.466380">
        <ele>2042.2</ele>
        <time>2013-11-09T12:36:50Z</time>
      </trkpt>
      <trkpt lat="42.843126" lon="0.466342">
        <ele>2042.7</ele>
        <time>2013-11-09T12:36:58Z</time>
      </trkpt>
      <trkpt lat="42.843037" lon="0.466305">
        <ele>2043.1</ele>
        <time>2013-11-09T12:37:06Z</time>
      </trkpt>
      <trkpt lat="42.842945" lon="0.466285">
        <ele>2044.3</ele>
        <time>2013-11-09T12:37:15Z</time>
      </trkpt>
      <trkpt lat="42.842855" lon="0.466239">
        <ele>2046.0</ele>
        <time>2013-11-09T12:37:25Z</time>
      </trkpt>
      <trkpt lat="42.842755" lon="0.466196">
        <ele>2048.3</ele>
        <time>2013-11-09T12:37:37Z</time>
      </trkpt>
      <trkpt lat="42.842662" lon="0.466163">
        <ele>2051.1</ele>
        <time>2013-11-09T12:37:49Z</time>
      </trkpt>
      <trkpt lat="42.842567" lon="0.466163">
        <ele>2054.0</ele>
        <time>2013-11-09T12:38:00Z</time>
      </trkpt>
      <trkpt lat="42.842474" lon="0.466158">
        <ele>2057.4</ele>
        <time>2013-11-09T12:38:17Z</time>
      </trkpt>
      <trkpt lat="42.842371" lon="0.466158">
        <ele>2059.4</ele>
        <time>2013-11-09T12:38:33Z</time>
      </trkpt>
      <trkpt lat="42.842272" lon="0.466100">
        <ele>2062.0</ele>
        <time>2013-11-09T12:38:46Z</time>
      </trkpt>
      <trkpt lat="42.842175" lon="0.466069">
        <ele>2064.2</ele>
        <time>2013-11-09T12:38:58Z</time>
      </trkpt>
      <trkpt lat="42.842086" lon="0.466062">
        <ele>2066.7</ele>
        <time>2013-11-09T12:39:14Z</time>
      </trkpt>
      <trkpt lat="42.841986" lon="0.466053">
        <ele>2070.1</ele>
        <time>2013-11-09T12:39:26Z</time>
      </trkpt>
      <trkpt lat="42.841895" lon="0.466022">
        <ele>2073.2</ele>
        <time>2013-11-09T12:39:38Z</time>
      </trkpt>
      <trkpt lat="42.841808" lon="0.465973">
        <ele>2073.9</ele>
        <time>2013-11-09T12:39:49Z</time>
      </trkpt>
      <trkpt lat="42.841708" lon="0.465961">
        <ele>2073.7</ele>
        <time>2013-11-09T12:39:58Z</time>
      </trkpt>
      <trkpt lat="42.841654" lon="0.465963">
        <ele>2074.3</ele>
        <time>2013-11-09T12:41:52Z</time>
      </trkpt>
      <trkpt lat="42.841557" lon="0.465934">
        <ele>2075.1</ele>
        <time>2013-11-09T12:42:05Z</time>
      </trkpt>
      <trkpt lat="42.841488" lon="0.465886">
        <ele>2077.0</ele>
        <time>2013-11-09T12:43:04Z</time>
      </trkpt>
      <trkpt lat="42.841401" lon="0.465813">
        <ele>2078.5</ele>
        <time>2013-11-09T12:43:14Z</time>
      </trkpt>
      <trkpt lat="42.841313" lon="0.465730">
        <ele>2081.4</ele>
        <time>2013-11-09T12:43:27Z</time>
      </trkpt>
      <trkpt lat="42.841235" lon="0.465654">
        <ele>2084.3</ele>
        <time>2013-11-09T12:43:38Z</time>
      </trkpt>
      <trkpt lat="42.841166" lon="0.465545">
        <ele>2086.5</ele>
        <time>2013-11-09T12:43:49Z</time>
      </trkpt>
      <trkpt lat="42.841096" lon="0.465438">
        <ele>2088.1</ele>
        <time>2013-11-09T12:44:02Z</time>
      </trkpt>
      <trkpt lat="42.841023" lon="0.465321">
        <ele>2089.7</ele>
        <time>2013-11-09T12:44:14Z</time>
      </trkpt>
      <trkpt lat="42.840965" lon="0.465228">
        <ele>2091.8</ele>
        <time>2013-11-09T12:44:24Z</time>
      </trkpt>
      <trkpt lat="42.840898" lon="0.465139">
        <ele>2093.1</ele>
        <time>2013-11-09T12:44:35Z</time>
      </trkpt>
      <trkpt lat="42.840818" lon="0.465049">
        <ele>2094.1</ele>
        <time>2013-11-09T12:44:52Z</time>
      </trkpt>
      <trkpt lat="42.840741" lon="0.464954">
        <ele>2094.1</ele>
        <time>2013-11-09T12:45:01Z</time>
      </trkpt>
      <trkpt lat="42.840667" lon="0.464857">
        <ele>2094.1</ele>
        <time>2013-11-09T12:45:14Z</time>
      </trkpt>
      <trkpt lat="42.840607" lon="0.464769">
        <ele>2094.4</ele>
        <time>2013-11-09T12:45:21Z</time>
      </trkpt>
      <trkpt lat="42.840545" lon="0.464657">
        <ele>2097.4</ele>
        <time>2013-11-09T12:45:35Z</time>
      </trkpt>
      <trkpt lat="42.840462" lon="0.464556">
        <ele>2101.0</ele>
        <time>2013-11-09T12:45:50Z</time>
      </trkpt>
      <trkpt lat="42.840380" lon="0.464469">
        <ele>2104.0</ele>
        <time>2013-11-09T12:46:03Z</time>
      </trkpt>
      <trkpt lat="42.840295" lon="0.464433">
        <ele>2107.2</ele>
        <time>2013-11-09T12:46:18Z</time>
      </trkpt>
      <trkpt lat="42.840244" lon="0.464391">
        <ele>2110.3</ele>
        <time>2013-11-09T12:48:47Z</time>
      </trkpt>
      <trkpt lat="42.840154" lon="0.464336">
        <ele>2108.5</ele>
        <time>2013-11-09T12:49:02Z</time>
      </trkpt>
      <trkpt lat="42.840063" lon="0.464290">
        <ele>2106.6</ele>
        <time>2013-11-09T12:49:13Z</time>
      </trkpt>
      <trkpt lat="42.839987" lon="0.464228">
        <ele>2105.6</ele>
        <time>2013-11-09T12:49:21Z</time>
      </trkpt>
      <trkpt lat="42.839902" lon="0.464174">
        <ele>2105.4</ele>
        <time>2013-11-09T12:49:30Z</time>
      </trkpt>
      <trkpt lat="42.839818" lon="0.464112">
        <ele>2106.4</ele>
        <time>2013-11-09T12:49:40Z</time>
      </trkpt>
      <trkpt lat="42.839734" lon="0.464055">
        <ele>2106.3</ele>
        <time>2013-11-09T12:49:50Z</time>
      </trkpt>
      <trkpt lat="42.839649" lon="0.464043">
        <ele>2106.1</ele>
        <time>2013-11-09T12:49:59Z</time>
      </trkpt>
      <trkpt lat="42.839562" lon="0.464018">
        <ele>2103.9</ele>
        <time>2013-11-09T12:50:09Z</time>
      </trkpt>
      <trkpt lat="42.839467" lon="0.463977">
        <ele>2102.1</ele>
        <time>2013-11-09T12:50:18Z</time>
      </trkpt>
      <trkpt lat="42.839373" lon="0.463935">
        <ele>2100.1</ele>
        <time>2013-11-09T12:50:27Z</time>
      </trkpt>
      <trkpt lat="42.839274" lon="0.463910">
        <ele>2098.2</ele>
        <time>2013-11-09T12:50:38Z</time>
      </trkpt>
      <trkpt lat="42.839186" lon="0.463878">
        <ele>2095.9</ele>
        <time>2013-11-09T12:50:47Z</time>
      </trkpt>
      <trkpt lat="42.839096" lon="0.463857">
        <ele>2094.6</ele>
        <time>2013-11-09T12:50:55Z</time>
      </trkpt>
      <trkpt lat="42.839003" lon="0.463835">
        <ele>2093.4</ele>
        <time>2013-11-09T12:51:03Z</time>
      </trkpt>
      <trkpt lat="42.838918" lon="0.463786">
        <ele>2092.4</ele>
        <time>2013-11-09T12:51:11Z</time>
      </trkpt>
      <trkpt lat="42.838818" lon="0.463755">
        <ele>2091.6</ele>
        <time>2013-11-09T12:51:20Z</time>
      </trkpt>
      <trkpt lat="42.838725" lon="0.463720">
        <ele>2090.1</ele>
        <time>2013-11-09T12:51:28Z</time>
      </trkpt>
      <trkpt lat="42.838633" lon="0.463655">
        <ele>2088.4</ele>
        <time>2013-11-09T12:51:36Z</time>
      </trkpt>
      <trkpt lat="42.838545" lon="0.463599">
        <ele>2086.9</ele>
        <time>2013-11-09T12:51:44Z</time>
      </trkpt>
      <trkpt lat="42.838461" lon="0.463529">
        <ele>2085.7</ele>
        <time>2013-11-09T12:51:51Z</time>
      </trkpt>
      <trkpt lat="42.838377" lon="0.463466">
        <ele>2084.8</ele>
        <time>2013-11-09T12:51:59Z</time>
      </trkpt>
      <trkpt lat="42.838290" lon="0.463405">
        <ele>2083.7</ele>
        <time>2013-11-09T12:52:07Z</time>
      </trkpt>
      <trkpt lat="42.838210" lon="0.463325">
        <ele>2082.8</ele>
        <time>2013-11-09T12:52:15Z</time>
      </trkpt>
      <trkpt lat="42.838133" lon="0.463248">
        <ele>2081.7</ele>
        <time>2013-11-09T12:52:22Z</time>
      </trkpt>
      <trkpt lat="42.838059" lon="0.463171">
        <ele>2080.6</ele>
        <time>2013-11-09T12:52:30Z</time>
      </trkpt>
      <trkpt lat="42.837983" lon="0.463091">
        <ele>2080.0</ele>
        <time>2013-11-09T12:52:37Z</time>
      </trkpt>
      <trkpt lat="42.837900" lon="0.463013">
        <ele>2079.0</ele>
        <time>2013-11-09T12:52:45Z</time>
      </trkpt>
      <trkpt lat="42.837806" lon="0.462957">
        <ele>2077.9</ele>
        <time>2013-11-09T12:52:53Z</time>
      </trkpt>
      <trkpt lat="42.837723" lon="0.462870">
        <ele>2076.4</ele>
        <time>2013-11-09T12:53:02Z</time>
      </trkpt>
      <trkpt lat="42.837640" lon="0.462813">
        <ele>2075.3</ele>
        <time>2013-11-09T12:53:10Z</time>
      </trkpt>
      <trkpt lat="42.837554" lon="0.462740">
        <ele>2073.2</ele>
        <time>2013-11-09T12:53:18Z</time>
      </trkpt>
      <trkpt lat="42.837476" lon="0.462672">
        <ele>2071.1</ele>
        <time>2013-11-09T12:53:25Z</time>
      </trkpt>
      <trkpt lat="42.837398" lon="0.462613">
        <ele>2069.7</ele>
        <time>2013-11-09T12:53:32Z</time>
      </trkpt>
      <trkpt lat="42.837314" lon="0.462532">
        <ele>2068.2</ele>
        <time>2013-11-09T12:53:39Z</time>
      </trkpt>
      <trkpt lat="42.837239" lon="0.462472">
        <ele>2067.2</ele>
        <time>2013-11-09T12:53:46Z</time>
      </trkpt>
      <trkpt lat="42.837149" lon="0.462400">
        <ele>2066.3</ele>
        <time>2013-11-09T12:53:53Z</time>
      </trkpt>
      <trkpt lat="42.837074" lon="0.462332">
        <ele>2065.9</ele>
        <time>2013-11-09T12:54:00Z</time>
      </trkpt>
      <trkpt lat="42.836989" lon="0.462302">
        <ele>2065.5</ele>
        <time>2013-11-09T12:54:08Z</time>
      </trkpt>
      <trkpt lat="42.836924" lon="0.462242">
        <ele>2063.4</ele>
        <time>2013-11-09T12:54:18Z</time>
      </trkpt>
      <trkpt lat="42.836848" lon="0.462162">
        <ele>2061.5</ele>
        <time>2013-11-09T12:54:26Z</time>
      </trkpt>
      <trkpt lat="42.836768" lon="0.462091">
        <ele>2060.0</ele>
        <time>2013-11-09T12:54:34Z</time>
      </trkpt>
      <trkpt lat="42.836684" lon="0.462034">
        <ele>2059.7</ele>
        <time>2013-11-09T12:54:42Z</time>
      </trkpt>
      <trkpt lat="42.836588" lon="0.461982">
        <ele>2059.2</ele>
        <time>2013-11-09T12:54:50Z</time>
      </trkpt>
      <trkpt lat="42.836497" lon="0.461939">
        <ele>2059.1</ele>
        <time>2013-11-09T12:54:58Z</time>
      </trkpt>
      <trkpt lat="42.836422" lon="0.461867">
        <ele>2059.2</ele>
        <time>2013-11-09T12:55:06Z</time>
      </trkpt>
      <trkpt lat="42.836342" lon="0.461786">
        <ele>2059.1</ele>
        <time>2013-11-09T12:55:15Z</time>
      </trkpt>
      <trkpt lat="42.836256" lon="0.461704">
        <ele>2058.0</ele>
        <time>2013-11-09T12:55:24Z</time>
      </trkpt>
      <trkpt lat="42.836169" lon="0.461638">
        <ele>2056.2</ele>
        <time>2013-11-09T12:55:32Z</time>
      </trkpt>
      <trkpt lat="42.836081" lon="0.461597">
        <ele>2054.0</ele>
        <time>2013-11-09T12:55:40Z</time>
      </trkpt>
      <trkpt lat="42.835988" lon="0.461555">
        <ele>2052.2</ele>
        <time>2013-11-09T12:55:48Z</time>
      </trkpt>
      <trkpt lat="42.835901" lon="0.461493">
        <ele>2051.0</ele>
        <time>2013-11-09T12:55:56Z</time>
      </trkpt>
      <trkpt lat="42.835812" lon="0.461434">
        <ele>2050.2</ele>
        <time>2013-11-09T12:56:04Z</time>
      </trkpt>
      <trkpt lat="42.835724" lon="0.461367">
        <ele>2049.4</ele>
        <time>2013-11-09T12:56:12Z</time>
      </trkpt>
      <trkpt lat="42.835643" lon="0.461289">
        <ele>2048.8</ele>
        <time>2013-11-09T12:56:20Z</time>
      </trkpt>
      <trkpt lat="42.835562" lon="0.461222">
        <ele>2047.8</ele>
        <time>2013-11-09T12:56:28Z</time>
      </trkpt>
      <trkpt lat="42.835472" lon="0.461173">
        <ele>2047.0</ele>
        <time>2013-11-09T12:56:35Z</time>
      </trkpt>
      <trkpt lat="42.835386" lon="0.461132">
        <ele>2046.1</ele>
        <time>2013-11-09T12:56:42Z</time>
      </trkpt>
      <trkpt lat="42.835304" lon="0.461080">
        <ele>2045.3</ele>
        <time>2013-11-09T12:56:49Z</time>
      </trkpt>
      <trkpt lat="42.835220" lon="0.461035">
        <ele>2044.9</ele>
        <time>2013-11-09T12:56:56Z</time>
      </trkpt>
      <trkpt lat="42.835137" lon="0.460982">
        <ele>2044.8</ele>
        <time>2013-11-09T12:57:03Z</time>
      </trkpt>
      <trkpt lat="42.835040" lon="0.460936">
        <ele>2044.3</ele>
        <time>2013-11-09T12:57:11Z</time>
      </trkpt>
      <trkpt lat="42.834936" lon="0.460921">
        <ele>2044.3</ele>
        <time>2013-11-09T12:57:19Z</time>
      </trkpt>
      <trkpt lat="42.834841" lon="0.460907">
        <ele>2044.3</ele>
        <time>2013-11-09T12:57:26Z</time>
      </trkpt>
      <trkpt lat="42.834755" lon="0.460896">
        <ele>2044.8</ele>
        <time>2013-11-09T12:57:33Z</time>
      </trkpt>
      <trkpt lat="42.834663" lon="0.460883">
        <ele>2045.1</ele>
        <time>2013-11-09T12:57:41Z</time>
      </trkpt>
      <trkpt lat="42.834570" lon="0.460879">
        <ele>2045.1</ele>
        <time>2013-11-09T12:57:49Z</time>
      </trkpt>
      <trkpt lat="42.834471" lon="0.460887">
        <ele>2045.2</ele>
        <time>2013-11-09T12:57:57Z</time>
      </trkpt>
      <trkpt lat="42.834377" lon="0.460897">
        <ele>2045.0</ele>
        <time>2013-11-09T12:58:04Z</time>
      </trkpt>
      <trkpt lat="42.834283" lon="0.460892">
        <ele>2044.9</ele>
        <time>2013-11-09T12:58:11Z</time>
      </trkpt>
      <trkpt lat="42.834189" lon="0.460880">
        <ele>2044.9</ele>
        <time>2013-11-09T12:58:19Z</time>
      </trkpt>
      <trkpt lat="42.834095" lon="0.460852">
        <ele>2046.0</ele>
        <time>2013-11-09T12:58:28Z</time>
      </trkpt>
      <trkpt lat="42.834004" lon="0.460813">
        <ele>2046.9</ele>
        <time>2013-11-09T12:58:37Z</time>
      </trkpt>
      <trkpt lat="42.833911" lon="0.460780">
        <ele>2047.3</ele>
        <time>2013-11-09T12:58:45Z</time>
      </trkpt>
      <trkpt lat="42.833824" lon="0.460740">
        <ele>2047.9</ele>
        <time>2013-11-09T12:58:53Z</time>
      </trkpt>
      <trkpt lat="42.833735" lon="0.460707">
        <ele>2048.1</ele>
        <time>2013-11-09T12:59:01Z</time>
      </trkpt>
      <trkpt lat="42.833639" lon="0.460691">
        <ele>2048.3</ele>
        <time>2013-11-09T12:59:09Z</time>
      </trkpt>
      <trkpt lat="42.833555" lon="0.460673">
        <ele>2048.2</ele>
        <time>2013-11-09T12:59:16Z</time>
      </trkpt>
      <trkpt lat="42.833464" lon="0.460636">
        <ele>2047.7</ele>
        <time>2013-11-09T12:59:23Z</time>
      </trkpt>
      <trkpt lat="42.833378" lon="0.460612">
        <ele>2047.1</ele>
        <time>2013-11-09T12:59:30Z</time>
      </trkpt>
      <trkpt lat="42.833282" lon="0.460563">
        <ele>2046.2</ele>
        <time>2013-11-09T12:59:38Z</time>
      </trkpt>
      <trkpt lat="42.833185" lon="0.460522">
        <ele>2045.5</ele>
        <time>2013-11-09T12:59:46Z</time>
      </trkpt>
      <trkpt lat="42.833101" lon="0.460481">
        <ele>2045.1</ele>
        <time>2013-11-09T12:59:54Z</time>
      </trkpt>
      <trkpt lat="42.833012" lon="0.460439">
        <ele>2046.4</ele>
        <time>2013-11-09T13:00:04Z</time>
      </trkpt>
      <trkpt lat="42.832928" lon="0.460392">
        <ele>2048.3</ele>
        <time>2013-11-09T13:00:14Z</time>
      </trkpt>
      <trkpt lat="42.832837" lon="0.460343">
        <ele>2049.8</ele>
        <time>2013-11-09T13:00:25Z</time>
      </trkpt>
      <trkpt lat="42.832747" lon="0.460296">
        <ele>2051.1</ele>
        <time>2013-11-09T13:00:35Z</time>
      </trkpt>
      <trkpt lat="42.832657" lon="0.460249">
        <ele>2052.2</ele>
        <time>2013-11-09T13:00:45Z</time>
      </trkpt>
      <trkpt lat="42.832564" lon="0.460230">
        <ele>2053.3</ele>
        <time>2013-11-09T13:00:55Z</time>
      </trkpt>
      <trkpt lat="42.832479" lon="0.460182">
        <ele>2054.4</ele>
        <time>2013-11-09T13:01:05Z</time>
      </trkpt>
      <trkpt lat="42.832398" lon="0.460126">
        <ele>2056.4</ele>
        <time>2013-11-09T13:01:16Z</time>
      </trkpt>
      <trkpt lat="42.832304" lon="0.460058">
        <ele>2059.5</ele>
        <time>2013-11-09T13:01:30Z</time>
      </trkpt>
      <trkpt lat="42.832214" lon="0.460031">
        <ele>2061.7</ele>
        <time>2013-11-09T13:01:43Z</time>
      </trkpt>
      <trkpt lat="42.832121" lon="0.460009">
        <ele>2063.6</ele>
        <time>2013-11-09T13:01:55Z</time>
      </trkpt>
      <trkpt lat="42.832015" lon="0.460006">
        <ele>2065.5</ele>
        <time>2013-11-09T13:02:07Z</time>
      </trkpt>
      <trkpt lat="42.831928" lon="0.459996">
        <ele>2066.9</ele>
        <time>2013-11-09T13:02:16Z</time>
      </trkpt>
      <trkpt lat="42.831834" lon="0.459982">
        <ele>2068.7</ele>
        <time>2013-11-09T13:02:27Z</time>
      </trkpt>
      <trkpt lat="42.831747" lon="0.459986">
        <ele>2070.2</ele>
        <time>2013-11-09T13:02:38Z</time>
      </trkpt>
      <trkpt lat="42.831651" lon="0.459963">
        <ele>2072.0</ele>
        <time>2013-11-09T13:02:50Z</time>
      </trkpt>
      <trkpt lat="42.831554" lon="0.459907">
        <ele>2074.0</ele>
        <time>2013-11-09T13:03:01Z</time>
      </trkpt>
      <trkpt lat="42.831472" lon="0.459860">
        <ele>2076.2</ele>
        <time>2013-11-09T13:03:12Z</time>
      </trkpt>
      <trkpt lat="42.831382" lon="0.459827">
        <ele>2077.6</ele>
        <time>2013-11-09T13:03:22Z</time>
      </trkpt>
      <trkpt lat="42.831289" lon="0.459788">
        <ele>2079.4</ele>
        <time>2013-11-09T13:03:33Z</time>
      </trkpt>
      <trkpt lat="42.831201" lon="0.459730">
        <ele>2081.8</ele>
        <time>2013-11-09T13:03:44Z</time>
      </trkpt>
      <trkpt lat="42.831117" lon="0.459667">
        <ele>2083.9</ele>
        <time>2013-11-09T13:03:55Z</time>
      </trkpt>
      <trkpt lat="42.831015" lon="0.459638">
        <ele>2086.7</ele>
        <time>2013-11-09T13:04:08Z</time>
      </trkpt>
      <trkpt lat="42.830990" lon="0.459611">
        <ele>2087.8</ele>
        <time>2013-11-09T13:11:52Z</time>
      </trkpt>
      <trkpt lat="42.830924" lon="0.459528">
        <ele>2088.1</ele>
        <time>2013-11-09T13:12:09Z</time>
      </trkpt>
      <trkpt lat="42.830845" lon="0.459457">
        <ele>2088.8</ele>
        <time>2013-11-09T13:12:21Z</time>
      </trkpt>
      <trkpt lat="42.830771" lon="0.459368">
        <ele>2089.7</ele>
        <time>2013-11-09T13:12:31Z</time>
      </trkpt>
      <trkpt lat="42.830693" lon="0.459300">
        <ele>2089.9</ele>
        <time>2013-11-09T13:12:40Z</time>
      </trkpt>
      <trkpt lat="42.830625" lon="0.459221">
        <ele>2089.6</ele>
        <time>2013-11-09T13:12:49Z</time>
      </trkpt>
      <trkpt lat="42.830545" lon="0.459123">
        <ele>2090.1</ele>
        <time>2013-11-09T13:12:58Z</time>
      </trkpt>
      <trkpt lat="42.830459" lon="0.459046">
        <ele>2090.0</ele>
        <time>2013-11-09T13:13:06Z</time>
      </trkpt>
      <trkpt lat="42.830361" lon="0.459002">
        <ele>2089.9</ele>
        <time>2013-11-09T13:13:15Z</time>
      </trkpt>
      <trkpt lat="42.830264" lon="0.458983">
        <ele>2090.8</ele>
        <time>2013-11-09T13:13:25Z</time>
      </trkpt>
      <trkpt lat="42.830176" lon="0.458938">
        <ele>2091.1</ele>
        <time>2013-11-09T13:13:34Z</time>
      </trkpt>
      <trkpt lat="42.830091" lon="0.458899">
        <ele>2091.1</ele>
        <time>2013-11-09T13:13:41Z</time>
      </trkpt>
      <trkpt lat="42.830001" lon="0.458898">
        <ele>2091.4</ele>
        <time>2013-11-09T13:13:49Z</time>
      </trkpt>
      <trkpt lat="42.829915" lon="0.458874">
        <ele>2092.2</ele>
        <time>2013-11-09T13:13:59Z</time>
      </trkpt>
      <trkpt lat="42.829842" lon="0.458784">
        <ele>2092.5</ele>
        <time>2013-11-09T13:14:07Z</time>
      </trkpt>
      <trkpt lat="42.829757" lon="0.458743">
        <ele>2091.1</ele>
        <time>2013-11-09T13:14:14Z</time>
      </trkpt>
      <trkpt lat="42.829672" lon="0.458695">
        <ele>2089.8</ele>
        <time>2013-11-09T13:14:21Z</time>
      </trkpt>
      <trkpt lat="42.829583" lon="0.458651">
        <ele>2088.0</ele>
        <time>2013-11-09T13:14:29Z</time>
      </trkpt>
      <trkpt lat="42.829486" lon="0.458610">
        <ele>2086.5</ele>
        <time>2013-11-09T13:14:36Z</time>
      </trkpt>
      <trkpt lat="42.829396" lon="0.458603">
        <ele>2085.9</ele>
        <time>2013-11-09T13:14:43Z</time>
      </trkpt>
      <trkpt lat="42.829294" lon="0.458599">
        <ele>2085.4</ele>
        <time>2013-11-09T13:14:52Z</time>
      </trkpt>
      <trkpt lat="42.829190" lon="0.458613">
        <ele>2084.8</ele>
        <time>2013-11-09T13:14:59Z</time>
      </trkpt>
      <trkpt lat="42.829100" lon="0.458614">
        <ele>2083.9</ele>
        <time>2013-11-09T13:15:06Z</time>
      </trkpt>
      <trkpt lat="42.829008" lon="0.458617">
        <ele>2082.9</ele>
        <time>2013-11-09T13:15:13Z</time>
      </trkpt>
      <trkpt lat="42.828909" lon="0.458618">
        <ele>2082.0</ele>
        <time>2013-11-09T13:15:20Z</time>
      </trkpt>
      <trkpt lat="42.828818" lon="0.458618">
        <ele>2080.7</ele>
        <time>2013-11-09T13:15:27Z</time>
      </trkpt>
      <trkpt lat="42.828729" lon="0.458635">
        <ele>2079.8</ele>
        <time>2013-11-09T13:15:33Z</time>
      </trkpt>
      <trkpt lat="42.828651" lon="0.458619">
        <ele>2078.7</ele>
        <time>2013-11-09T13:15:40Z</time>
      </trkpt>
      <trkpt lat="42.828562" lon="0.458609">
        <ele>2077.1</ele>
        <time>2013-11-09T13:15:48Z</time>
      </trkpt>
      <trkpt lat="42.828462" lon="0.458594">
        <ele>2075.1</ele>
        <time>2013-11-09T13:15:55Z</time>
      </trkpt>
      <trkpt lat="42.828368" lon="0.458568">
        <ele>2073.0</ele>
        <time>2013-11-09T13:16:02Z</time>
      </trkpt>
      <trkpt lat="42.828280" lon="0.458527">
        <ele>2070.6</ele>
        <time>2013-11-09T13:16:09Z</time>
      </trkpt>
      <trkpt lat="42.828181" lon="0.458513">
        <ele>2068.4</ele>
        <time>2013-11-09T13:16:16Z</time>
      </trkpt>
      <trkpt lat="42.828095" lon="0.458504">
        <ele>2066.6</ele>
        <time>2013-11-09T13:16:22Z</time>
      </trkpt>
      <trkpt lat="42.828004" lon="0.458509">
        <ele>2064.4</ele>
        <time>2013-11-09T13:16:29Z</time>
      </trkpt>
      <trkpt lat="42.827911" lon="0.458518">
        <ele>2062.1</ele>
        <time>2013-11-09T13:16:37Z</time>
      </trkpt>
      <trkpt lat="42.827821" lon="0.458508">
        <ele>2059.7</ele>
        <time>2013-11-09T13:16:44Z</time>
      </trkpt>
      <trkpt lat="42.827733" lon="0.458526">
        <ele>2057.2</ele>
        <time>2013-11-09T13:16:51Z</time>
      </trkpt>
      <trkpt lat="42.827645" lon="0.458558">
        <ele>2054.2</ele>
        <time>2013-11-09T13:16:59Z</time>
      </trkpt>
      <trkpt lat="42.827554" lon="0.458563">
        <ele>2051.7</ele>
        <time>2013-11-09T13:17:06Z</time>
      </trkpt>
      <trkpt lat="42.827470" lon="0.458561">
        <ele>2048.0</ele>
        <time>2013-11-09T13:17:13Z</time>
      </trkpt>
      <trkpt lat="42.827365" lon="0.458557">
        <ele>2044.9</ele>
        <time>2013-11-09T13:17:21Z</time>
      </trkpt>
      <trkpt lat="42.827278" lon="0.458545">
        <ele>2042.5</ele>
        <time>2013-11-09T13:17:27Z</time>
      </trkpt>
      <trkpt lat="42.827179" lon="0.458559">
        <ele>2039.8</ele>
        <time>2013-11-09T13:17:34Z</time>
      </trkpt>
      <trkpt lat="42.827078" lon="0.458550">
        <ele>2037.7</ele>
        <time>2013-11-09T13:17:41Z</time>
      </trkpt>
      <trkpt lat="42.826981" lon="0.458529">
        <ele>2035.7</ele>
        <time>2013-11-09T13:17:48Z</time>
      </trkpt>
      <trkpt lat="42.826871" lon="0.458519">
        <ele>2034.1</ele>
        <time>2013-11-09T13:17:56Z</time>
      </trkpt>
      <trkpt lat="42.826776" lon="0.458541">
        <ele>2032.7</ele>
        <time>2013-11-09T13:18:03Z</time>
      </trkpt>
      <trkpt lat="42.826670" lon="0.458539">
        <ele>2032.2</ele>
        <time>2013-11-09T13:18:10Z</time>
      </trkpt>
      <trkpt lat="42.826572" lon="0.458558">
        <ele>2031.0</ele>
        <time>2013-11-09T13:18:17Z</time>
      </trkpt>
      <trkpt lat="42.826465" lon="0.458555">
        <ele>2029.6</ele>
        <time>2013-11-09T13:18:24Z</time>
      </trkpt>
      <trkpt lat="42.826374" lon="0.458590">
        <ele>2029.1</ele>
        <time>2013-11-09T13:18:31Z</time>
      </trkpt>
      <trkpt lat="42.826269" lon="0.458600">
        <ele>2029.8</ele>
        <time>2013-11-09T13:18:39Z</time>
      </trkpt>
      <trkpt lat="42.826172" lon="0.458640">
        <ele>2029.5</ele>
        <time>2013-11-09T13:18:46Z</time>
      </trkpt>
      <trkpt lat="42.826078" lon="0.458673">
        <ele>2028.3</ele>
        <time>2013-11-09T13:18:53Z</time>
      </trkpt>
      <trkpt lat="42.825987" lon="0.458695">
        <ele>2026.8</ele>
        <time>2013-11-09T13:19:00Z</time>
      </trkpt>
      <trkpt lat="42.825888" lon="0.458692">
        <ele>2026.0</ele>
        <time>2013-11-09T13:19:08Z</time>
      </trkpt>
      <trkpt lat="42.825786" lon="0.458683">
        <ele>2024.6</ele>
        <time>2013-11-09T13:19:16Z</time>
      </trkpt>
      <trkpt lat="42.825695" lon="0.458688">
        <ele>2022.2</ele>
        <time>2013-11-09T13:19:23Z</time>
      </trkpt>
      <trkpt lat="42.825605" lon="0.458667">
        <ele>2019.8</ele>
        <time>2013-11-09T13:19:30Z</time>
      </trkpt>
      <trkpt lat="42.825521" lon="0.458635">
        <ele>2017.1</ele>
        <time>2013-11-09T13:19:40Z</time>
      </trkpt>
      <trkpt lat="42.825418" lon="0.458642">
        <ele>2014.3</ele>
        <time>2013-11-09T13:19:50Z</time>
      </trkpt>
      <trkpt lat="42.825323" lon="0.458644">
        <ele>2011.8</ele>
        <time>2013-11-09T13:19:57Z</time>
      </trkpt>
      <trkpt lat="42.825224" lon="0.458638">
        <ele>2009.4</ele>
        <time>2013-11-09T13:20:04Z</time>
      </trkpt>
      <trkpt lat="42.825123" lon="0.458604">
        <ele>2007.3</ele>
        <time>2013-11-09T13:20:11Z</time>
      </trkpt>
      <trkpt lat="42.825033" lon="0.458583">
        <ele>2006.4</ele>
        <time>2013-11-09T13:20:17Z</time>
      </trkpt>
      <trkpt lat="42.824931" lon="0.458571">
        <ele>2006.2</ele>
        <time>2013-11-09T13:20:24Z</time>
      </trkpt>
      <trkpt lat="42.824836" lon="0.458573">
        <ele>2006.9</ele>
        <time>2013-11-09T13:20:31Z</time>
      </trkpt>
      <trkpt lat="42.824740" lon="0.458574">
        <ele>2008.2</ele>
        <time>2013-11-09T13:20:39Z</time>
      </trkpt>
      <trkpt lat="42.824646" lon="0.458556">
        <ele>2008.3</ele>
        <time>2013-11-09T13:20:45Z</time>
      </trkpt>
      <trkpt lat="42.824556" lon="0.458545">
        <ele>2007.6</ele>
        <time>2013-11-09T13:20:54Z</time>
      </trkpt>
      <trkpt lat="42.824459" lon="0.458541">
        <ele>2006.6</ele>
        <time>2013-11-09T13:21:01Z</time>
      </trkpt>
      <trkpt lat="42.824360" lon="0.458556">
        <ele>2004.9</ele>
        <time>2013-11-09T13:21:09Z</time>
      </trkpt>
      <trkpt lat="42.824256" lon="0.458575">
        <ele>2002.6</ele>
        <time>2013-11-09T13:21:18Z</time>
      </trkpt>
      <trkpt lat="42.824156" lon="0.458643">
        <ele>2000.2</ele>
        <time>2013-11-09T13:21:26Z</time>
      </trkpt>
      <trkpt lat="42.824107" lon="0.458742">
        <ele>1997.9</ele>
        <time>2013-11-09T13:21:34Z</time>
      </trkpt>
      <trkpt lat="42.824050" lon="0.458849">
        <ele>1994.9</ele>
        <time>2013-11-09T13:21:44Z</time>
      </trkpt>
      <trkpt lat="42.823965" lon="0.458906">
        <ele>1990.1</ele>
        <time>2013-11-09T13:21:55Z</time>
      </trkpt>
      <trkpt lat="42.823893" lon="0.458973">
        <ele>1985.1</ele>
        <time>2013-11-09T13:22:06Z</time>
      </trkpt>
      <trkpt lat="42.823845" lon="0.459069">
        <ele>1980.0</ele>
        <time>2013-11-09T13:22:17Z</time>
      </trkpt>
      <trkpt lat="42.823820" lon="0.459176">
        <ele>1977.1</ele>
        <time>2013-11-09T13:22:26Z</time>
      </trkpt>
      <trkpt lat="42.823759" lon="0.459231">
        <ele>1972.7</ele>
        <time>2013-11-09T13:22:36Z</time>
      </trkpt>
      <trkpt lat="42.823734" lon="0.459344">
        <ele>1968.7</ele>
        <time>2013-11-09T13:22:44Z</time>
      </trkpt>
      <trkpt lat="42.823704" lon="0.459465">
        <ele>1964.9</ele>
        <time>2013-11-09T13:22:52Z</time>
      </trkpt>
      <trkpt lat="42.823661" lon="0.459564">
        <ele>1961.0</ele>
        <time>2013-11-09T13:23:00Z</time>
      </trkpt>
      <trkpt lat="42.823670" lon="0.459677">
        <ele>1956.6</ele>
        <time>2013-11-09T13:23:11Z</time>
      </trkpt>
      <trkpt lat="42.823622" lon="0.459757">
        <ele>1953.2</ele>
        <time>2013-11-09T13:23:20Z</time>
      </trkpt>
      <trkpt lat="42.823604" lon="0.459885">
        <ele>1949.3</ele>
        <time>2013-11-09T13:23:29Z</time>
      </trkpt>
      <trkpt lat="42.823507" lon="0.459890">
        <ele>1945.4</ele>
        <time>2013-11-09T13:23:37Z</time>
      </trkpt>
      <trkpt lat="42.823496" lon="0.460007">
        <ele>1940.9</ele>
        <time>2013-11-09T13:23:48Z</time>
      </trkpt>
      <trkpt lat="42.823427" lon="0.460050">
        <ele>1937.4</ele>
        <time>2013-11-09T13:23:58Z</time>
      </trkpt>
      <trkpt lat="42.823383" lon="0.460154">
        <ele>1934.7</ele>
        <time>2013-11-09T13:24:07Z</time>
      </trkpt>
      <trkpt lat="42.823334" lon="0.460270">
        <ele>1931.1</ele>
        <time>2013-11-09T13:24:16Z</time>
      </trkpt>
      <trkpt lat="42.823324" lon="0.460396">
        <ele>1927.4</ele>
        <time>2013-11-09T13:24:27Z</time>
      </trkpt>
      <trkpt lat="42.823258" lon="0.460458">
        <ele>1924.1</ele>
        <time>2013-11-09T13:24:37Z</time>
      </trkpt>
      <trkpt lat="42.823173" lon="0.460524">
        <ele>1921.4</ele>
        <time>2013-11-09T13:24:47Z</time>
      </trkpt>
      <trkpt lat="42.823110" lon="0.460621">
        <ele>1920.1</ele>
        <time>2013-11-09T13:24:53Z</time>
      </trkpt>
      <trkpt lat="42.823064" lon="0.460730">
        <ele>1918.2</ele>
        <time>2013-11-09T13:25:01Z</time>
      </trkpt>
      <trkpt lat="42.823053" lon="0.460859">
        <ele>1916.9</ele>
        <time>2013-11-09T13:25:10Z</time>
      </trkpt>
      <trkpt lat="42.823005" lon="0.460987">
        <ele>1916.0</ele>
        <time>2013-11-09T13:25:18Z</time>
      </trkpt>
      <trkpt lat="42.822970" lon="0.461119">
        <ele>1914.9</ele>
        <time>2013-11-09T13:25:26Z</time>
      </trkpt>
      <trkpt lat="42.822923" lon="0.461248">
        <ele>1914.5</ele>
        <time>2013-11-09T13:25:35Z</time>
      </trkpt>
      <trkpt lat="42.822874" lon="0.461377">
        <ele>1913.9</ele>
        <time>2013-11-09T13:25:44Z</time>
      </trkpt>
      <trkpt lat="42.822836" lon="0.461510">
        <ele>1913.5</ele>
        <time>2013-11-09T13:25:52Z</time>
      </trkpt>
      <trkpt lat="42.822789" lon="0.461624">
        <ele>1912.7</ele>
        <time>2013-11-09T13:25:59Z</time>
      </trkpt>
      <trkpt lat="42.822740" lon="0.461750">
        <ele>1910.8</ele>
        <time>2013-11-09T13:26:07Z</time>
      </trkpt>
      <trkpt lat="42.822686" lon="0.461856">
        <ele>1909.4</ele>
        <time>2013-11-09T13:26:15Z</time>
      </trkpt>
      <trkpt lat="42.822608" lon="0.461929">
        <ele>1907.9</ele>
        <time>2013-11-09T13:26:23Z</time>
      </trkpt>
      <trkpt lat="42.822537" lon="0.461999">
        <ele>1906.1</ele>
        <time>2013-11-09T13:26:31Z</time>
      </trkpt>
      <trkpt lat="42.822473" lon="0.462091">
        <ele>1904.8</ele>
        <time>2013-11-09T13:26:39Z</time>
      </trkpt>
      <trkpt lat="42.822419" lon="0.462217">
        <ele>1903.7</ele>
        <time>2013-11-09T13:26:47Z</time>
      </trkpt>
      <trkpt lat="42.822393" lon="0.462344">
        <ele>1902.2</ele>
        <time>2013-11-09T13:26:56Z</time>
      </trkpt>
      <trkpt lat="42.822369" lon="0.462475">
        <ele>1900.4</ele>
        <time>2013-11-09T13:27:05Z</time>
      </trkpt>
      <trkpt lat="42.822313" lon="0.462584">
        <ele>1898.3</ele>
        <time>2013-11-09T13:27:15Z</time>
      </trkpt>
      <trkpt lat="42.822258" lon="0.462697">
        <ele>1895.2</ele>
        <time>2013-11-09T13:27:25Z</time>
      </trkpt>
      <trkpt lat="42.822208" lon="0.462800">
        <ele>1893.0</ele>
        <time>2013-11-09T13:27:33Z</time>
      </trkpt>
      <trkpt lat="42.822155" lon="0.462896">
        <ele>1890.0</ele>
        <time>2013-11-09T13:27:42Z</time>
      </trkpt>
      <trkpt lat="42.822116" lon="0.463007">
        <ele>1886.6</ele>
        <time>2013-11-09T13:27:50Z</time>
      </trkpt>
      <trkpt lat="42.822058" lon="0.463095">
        <ele>1883.7</ele>
        <time>2013-11-09T13:27:59Z</time>
      </trkpt>
      <trkpt lat="42.821989" lon="0.463194">
        <ele>1879.6</ele>
        <time>2013-11-09T13:28:09Z</time>
      </trkpt>
      <trkpt lat="42.821933" lon="0.463284">
        <ele>1875.8</ele>
        <time>2013-11-09T13:28:18Z</time>
      </trkpt>
      <trkpt lat="42.821900" lon="0.463406">
        <ele>1871.9</ele>
        <time>2013-11-09T13:28:27Z</time>
      </trkpt>
      <trkpt lat="42.821853" lon="0.463518">
        <ele>1867.6</ele>
        <time>2013-11-09T13:28:36Z</time>
      </trkpt>
      <trkpt lat="42.821806" lon="0.463639">
        <ele>1863.2</ele>
        <time>2013-11-09T13:28:46Z</time>
      </trkpt>
      <trkpt lat="42.821762" lon="0.463755">
        <ele>1858.3</ele>
        <time>2013-11-09T13:28:56Z</time>
      </trkpt>
      <trkpt lat="42.821717" lon="0.463854">
        <ele>1853.3</ele>
        <time>2013-11-09T13:29:06Z</time>
      </trkpt>
      <trkpt lat="42.821657" lon="0.463941">
        <ele>1848.9</ele>
        <time>2013-11-09T13:29:16Z</time>
      </trkpt>
      <trkpt lat="42.821582" lon="0.464028">
        <ele>1843.4</ele>
        <time>2013-11-09T13:29:27Z</time>
      </trkpt>
      <trkpt lat="42.821521" lon="0.464098">
        <ele>1838.5</ele>
        <time>2013-11-09T13:29:38Z</time>
      </trkpt>
      <trkpt lat="42.821447" lon="0.464151">
        <ele>1833.6</ele>
        <time>2013-11-09T13:29:50Z</time>
      </trkpt>
      <trkpt lat="42.821410" lon="0.464263">
        <ele>1829.0</ele>
        <time>2013-11-09T13:30:02Z</time>
      </trkpt>
      <trkpt lat="42.821351" lon="0.464349">
        <ele>1824.1</ele>
        <time>2013-11-09T13:30:15Z</time>
      </trkpt>
      <trkpt lat="42.821292" lon="0.464436">
        <ele>1818.8</ele>
        <time>2013-11-09T13:30:28Z</time>
      </trkpt>
      <trkpt lat="42.821210" lon="0.464511">
        <ele>1814.4</ele>
        <time>2013-11-09T13:30:39Z</time>
      </trkpt>
      <trkpt lat="42.821123" lon="0.464560">
        <ele>1809.2</ele>
        <time>2013-11-09T13:30:52Z</time>
      </trkpt>
      <trkpt lat="42.821028" lon="0.464607">
        <ele>1804.1</ele>
        <time>2013-11-09T13:31:07Z</time>
      </trkpt>
      <trkpt lat="42.820983" lon="0.464700">
        <ele>1800.2</ele>
        <time>2013-11-09T13:31:18Z</time>
      </trkpt>
      <trkpt lat="42.820910" lon="0.464765">
        <ele>1795.8</ele>
        <time>2013-11-09T13:31:29Z</time>
      </trkpt>
      <trkpt lat="42.820835" lon="0.464785">
        <ele>1791.8</ele>
        <time>2013-11-09T13:31:39Z</time>
      </trkpt>
      <trkpt lat="42.820753" lon="0.464841">
        <ele>1788.8</ele>
        <time>2013-11-09T13:31:50Z</time>
      </trkpt>
      <trkpt lat="42.820665" lon="0.464868">
        <ele>1784.9</ele>
        <time>2013-11-09T13:32:01Z</time>
      </trkpt>
      <trkpt lat="42.820582" lon="0.464924">
        <ele>1780.2</ele>
        <time>2013-11-09T13:32:14Z</time>
      </trkpt>
      <trkpt lat="42.820494" lon="0.464869">
        <ele>1775.4</ele>
        <time>2013-11-09T13:32:26Z</time>
      </trkpt>
      <trkpt lat="42.820407" lon="0.464814">
        <ele>1772.9</ele>
        <time>2013-11-09T13:32:35Z</time>
      </trkpt>
      <trkpt lat="42.820322" lon="0.464779">
        <ele>1770.3</ele>
        <time>2013-11-09T13:32:45Z</time>
      </trkpt>
      <trkpt lat="42.820233" lon="0.464788">
        <ele>1767.2</ele>
        <time>2013-11-09T13:32:56Z</time>
      </trkpt>
      <trkpt lat="42.820132" lon="0.464790">
        <ele>1764.7</ele>
        <time>2013-11-09T13:33:06Z</time>
      </trkpt>
      <trkpt lat="42.820032" lon="0.464802">
        <ele>1762.5</ele>
        <time>2013-11-09T13:33:15Z</time>
      </trkpt>
      <trkpt lat="42.819938" lon="0.464812">
        <ele>1759.5</ele>
        <time>2013-11-09T13:33:24Z</time>
      </trkpt>
      <trkpt lat="42.819861" lon="0.464865">
        <ele>1757.0</ele>
        <time>2013-11-09T13:33:33Z</time>
      </trkpt>
      <trkpt lat="42.819768" lon="0.464899">
        <ele>1754.3</ele>
        <time>2013-11-09T13:33:42Z</time>
      </trkpt>
      <trkpt lat="42.819671" lon="0.464919">
        <ele>1751.4</ele>
        <time>2013-11-09T13:33:50Z</time>
      </trkpt>
      <trkpt lat="42.819583" lon="0.464968">
        <ele>1749.2</ele>
        <time>2013-11-09T13:33:58Z</time>
      </trkpt>
      <trkpt lat="42.819509" lon="0.465049">
        <ele>1746.6</ele>
        <time>2013-11-09T13:34:07Z</time>
      </trkpt>
      <trkpt lat="42.819417" lon="0.465082">
        <ele>1743.7</ele>
        <time>2013-11-09T13:34:16Z</time>
      </trkpt>
      <trkpt lat="42.819339" lon="0.465169">
        <ele>1741.5</ele>
        <time>2013-11-09T13:34:24Z</time>
      </trkpt>
      <trkpt lat="42.819264" lon="0.465270">
        <ele>1739.1</ele>
        <time>2013-11-09T13:34:32Z</time>
      </trkpt>
      <trkpt lat="42.819196" lon="0.465369">
        <ele>1737.0</ele>
        <time>2013-11-09T13:34:40Z</time>
      </trkpt>
      <trkpt lat="42.819121" lon="0.465435">
        <ele>1735.2</ele>
        <time>2013-11-09T13:34:48Z</time>
      </trkpt>
      <trkpt lat="42.819065" lon="0.465538">
        <ele>1733.0</ele>
        <time>2013-11-09T13:34:56Z</time>
      </trkpt>
      <trkpt lat="42.819004" lon="0.465615">
        <ele>1730.5</ele>
        <time>2013-11-09T13:35:05Z</time>
      </trkpt>
      <trkpt lat="42.818936" lon="0.465718">
        <ele>1727.8</ele>
        <time>2013-11-09T13:35:13Z</time>
      </trkpt>
      <trkpt lat="42.818875" lon="0.465805">
        <ele>1725.4</ele>
        <time>2013-11-09T13:35:21Z</time>
      </trkpt>
      <trkpt lat="42.818806" lon="0.465894">
        <ele>1723.0</ele>
        <time>2013-11-09T13:35:29Z</time>
      </trkpt>
      <trkpt lat="42.818740" lon="0.465994">
        <ele>1721.1</ele>
        <time>2013-11-09T13:35:38Z</time>
      </trkpt>
      <trkpt lat="42.818668" lon="0.466057">
        <ele>1719.5</ele>
        <time>2013-11-09T13:35:47Z</time>
      </trkpt>
      <trkpt lat="42.818618" lon="0.466037">
        <ele>1722.5</ele>
        <time>2013-11-09T13:58:43Z</time>
      </trkpt>
      <trkpt lat="42.818564" lon="0.466146">
        <ele>1721.0</ele>
        <time>2013-11-09T13:58:54Z</time>
      </trkpt>
      <trkpt lat="42.818504" lon="0.466267">
        <ele>1718.8</ele>
        <time>2013-11-09T13:59:04Z</time>
      </trkpt>
      <trkpt lat="42.818430" lon="0.466398">
        <ele>1716.6</ele>
        <time>2013-11-09T13:59:15Z</time>
      </trkpt>
      <trkpt lat="42.818387" lon="0.466535">
        <ele>1714.5</ele>
        <time>2013-11-09T13:59:24Z</time>
      </trkpt>
      <trkpt lat="42.818345" lon="0.466665">
        <ele>1712.2</ele>
        <time>2013-11-09T13:59:33Z</time>
      </trkpt>
      <trkpt lat="42.818324" lon="0.466797">
        <ele>1709.5</ele>
        <time>2013-11-09T13:59:42Z</time>
      </trkpt>
      <trkpt lat="42.818329" lon="0.466953">
        <ele>1707.2</ele>
        <time>2013-11-09T13:59:51Z</time>
      </trkpt>
      <trkpt lat="42.818338" lon="0.467073">
        <ele>1704.6</ele>
        <time>2013-11-09T13:59:59Z</time>
      </trkpt>
      <trkpt lat="42.818353" lon="0.467201">
        <ele>1702.3</ele>
        <time>2013-11-09T14:00:07Z</time>
      </trkpt>
      <trkpt lat="42.818309" lon="0.467325">
        <ele>1699.5</ele>
        <time>2013-11-09T14:00:15Z</time>
      </trkpt>
      <trkpt lat="42.818291" lon="0.467461">
        <ele>1696.9</ele>
        <time>2013-11-09T14:00:24Z</time>
      </trkpt>
      <trkpt lat="42.818270" lon="0.467590">
        <ele>1693.8</ele>
        <time>2013-11-09T14:00:34Z</time>
      </trkpt>
      <trkpt lat="42.818252" lon="0.467728">
        <ele>1690.7</ele>
        <time>2013-11-09T14:00:42Z</time>
      </trkpt>
      <trkpt lat="42.818285" lon="0.467821">
        <ele>1686.9</ele>
        <time>2013-11-09T14:00:52Z</time>
      </trkpt>
      <trkpt lat="42.818252" lon="0.467954">
        <ele>1683.8</ele>
        <time>2013-11-09T14:01:00Z</time>
      </trkpt>
      <trkpt lat="42.818210" lon="0.468087">
        <ele>1680.2</ele>
        <time>2013-11-09T14:01:08Z</time>
      </trkpt>
      <trkpt lat="42.818164" lon="0.468210">
        <ele>1677.8</ele>
        <time>2013-11-09T14:01:17Z</time>
      </trkpt>
      <trkpt lat="42.818095" lon="0.468308">
        <ele>1675.6</ele>
        <time>2013-11-09T14:01:25Z</time>
      </trkpt>
      <trkpt lat="42.818067" lon="0.468435">
        <ele>1673.5</ele>
        <time>2013-11-09T14:01:32Z</time>
      </trkpt>
      <trkpt lat="42.818035" lon="0.468560">
        <ele>1671.2</ele>
        <time>2013-11-09T14:01:39Z</time>
      </trkpt>
      <trkpt lat="42.817996" lon="0.468687">
        <ele>1668.8</ele>
        <time>2013-11-09T14:01:46Z</time>
      </trkpt>
      <trkpt lat="42.817942" lon="0.468787">
        <ele>1666.4</ele>
        <time>2013-11-09T14:01:53Z</time>
      </trkpt>
      <trkpt lat="42.817894" lon="0.468904">
        <ele>1664.0</ele>
        <time>2013-11-09T14:02:01Z</time>
      </trkpt>
      <trkpt lat="42.817859" lon="0.469027">
        <ele>1662.2</ele>
        <time>2013-11-09T14:02:08Z</time>
      </trkpt>
      <trkpt lat="42.817804" lon="0.469142">
        <ele>1660.2</ele>
        <time>2013-11-09T14:02:16Z</time>
      </trkpt>
      <trkpt lat="42.817737" lon="0.469244">
        <ele>1657.6</ele>
        <time>2013-11-09T14:02:23Z</time>
      </trkpt>
      <trkpt lat="42.817700" lon="0.469358">
        <ele>1655.7</ele>
        <time>2013-11-09T14:02:30Z</time>
      </trkpt>
      <trkpt lat="42.817663" lon="0.469485">
        <ele>1652.8</ele>
        <time>2013-11-09T14:02:38Z</time>
      </trkpt>
      <trkpt lat="42.817627" lon="0.469605">
        <ele>1650.5</ele>
        <time>2013-11-09T14:02:45Z</time>
      </trkpt>
      <trkpt lat="42.817589" lon="0.469723">
        <ele>1647.9</ele>
        <time>2013-11-09T14:02:53Z</time>
      </trkpt>
      <trkpt lat="42.817543" lon="0.469831">
        <ele>1646.1</ele>
        <time>2013-11-09T14:03:00Z</time>
      </trkpt>
      <trkpt lat="42.817496" lon="0.469942">
        <ele>1644.1</ele>
        <time>2013-11-09T14:03:07Z</time>
      </trkpt>
      <trkpt lat="42.817464" lon="0.470063">
        <ele>1641.5</ele>
        <time>2013-11-09T14:03:14Z</time>
      </trkpt>
      <trkpt lat="42.817422" lon="0.470173">
        <ele>1639.0</ele>
        <time>2013-11-09T14:03:21Z</time>
      </trkpt>
      <trkpt lat="42.817390" lon="0.470303">
        <ele>1636.4</ele>
        <time>2013-11-09T14:03:29Z</time>
      </trkpt>
      <trkpt lat="42.817350" lon="0.470428">
        <ele>1634.5</ele>
        <time>2013-11-09T14:03:36Z</time>
      </trkpt>
      <trkpt lat="42.817316" lon="0.470521">
        <ele>1632.7</ele>
        <time>2013-11-09T14:03:43Z</time>
      </trkpt>
      <trkpt lat="42.817273" lon="0.470652">
        <ele>1631.1</ele>
        <time>2013-11-09T14:03:50Z</time>
      </trkpt>
      <trkpt lat="42.817230" lon="0.470759">
        <ele>1630.2</ele>
        <time>2013-11-09T14:03:57Z</time>
      </trkpt>
      <trkpt lat="42.817196" lon="0.470880">
        <ele>1629.4</ele>
        <time>2013-11-09T14:04:04Z</time>
      </trkpt>
      <trkpt lat="42.817145" lon="0.471008">
        <ele>1628.3</ele>
        <time>2013-11-09T14:04:11Z</time>
      </trkpt>
      <trkpt lat="42.817093" lon="0.471130">
        <ele>1627.4</ele>
        <time>2013-11-09T14:04:19Z</time>
      </trkpt>
      <trkpt lat="42.817065" lon="0.471253">
        <ele>1626.2</ele>
        <time>2013-11-09T14:04:28Z</time>
      </trkpt>
      <trkpt lat="42.816986" lon="0.471301">
        <ele>1624.2</ele>
        <time>2013-11-09T14:04:37Z</time>
      </trkpt>
      <trkpt lat="42.816903" lon="0.471329">
        <ele>1621.7</ele>
        <time>2013-11-09T14:04:44Z</time>
      </trkpt>
      <trkpt lat="42.816842" lon="0.471424">
        <ele>1619.0</ele>
        <time>2013-11-09T14:04:51Z</time>
      </trkpt>
      <trkpt lat="42.816794" lon="0.471546">
        <ele>1616.3</ele>
        <time>2013-11-09T14:04:58Z</time>
      </trkpt>
      <trkpt lat="42.816735" lon="0.471680">
        <ele>1614.4</ele>
        <time>2013-11-09T14:05:05Z</time>
      </trkpt>
      <trkpt lat="42.816688" lon="0.471802">
        <ele>1613.1</ele>
        <time>2013-11-09T14:05:12Z</time>
      </trkpt>
      <trkpt lat="42.816645" lon="0.471940">
        <ele>1612.2</ele>
        <time>2013-11-09T14:05:19Z</time>
      </trkpt>
      <trkpt lat="42.816594" lon="0.472052">
        <ele>1611.2</ele>
        <time>2013-11-09T14:05:25Z</time>
      </trkpt>
      <trkpt lat="42.816561" lon="0.472163">
        <ele>1610.2</ele>
        <time>2013-11-09T14:05:31Z</time>
      </trkpt>
      <trkpt lat="42.816512" lon="0.472274">
        <ele>1609.4</ele>
        <time>2013-11-09T14:05:38Z</time>
      </trkpt>
      <trkpt lat="42.816479" lon="0.472390">
        <ele>1608.8</ele>
        <time>2013-11-09T14:05:45Z</time>
      </trkpt>
      <trkpt lat="42.816436" lon="0.472512">
        <ele>1608.5</ele>
        <time>2013-11-09T14:05:52Z</time>
      </trkpt>
      <trkpt lat="42.816433" lon="0.472636">
        <ele>1608.4</ele>
        <time>2013-11-09T14:06:01Z</time>
      </trkpt>
      <trkpt lat="42.816438" lon="0.472766">
        <ele>1608.3</ele>
        <time>2013-11-09T14:06:08Z</time>
      </trkpt>
      <trkpt lat="42.816427" lon="0.472901">
        <ele>1607.9</ele>
        <time>2013-11-09T14:06:15Z</time>
      </trkpt>
      <trkpt lat="42.816423" lon="0.473052">
        <ele>1607.5</ele>
        <time>2013-11-09T14:06:23Z</time>
      </trkpt>
      <trkpt lat="42.816407" lon="0.473177">
        <ele>1606.7</ele>
        <time>2013-11-09T14:06:30Z</time>
      </trkpt>
      <trkpt lat="42.816376" lon="0.473272">
        <ele>1605.6</ele>
        <time>2013-11-09T14:06:38Z</time>
      </trkpt>
      <trkpt lat="42.816367" lon="0.473403">
        <ele>1604.3</ele>
        <time>2013-11-09T14:06:46Z</time>
      </trkpt>
      <trkpt lat="42.816380" lon="0.473526">
        <ele>1603.3</ele>
        <time>2013-11-09T14:06:54Z</time>
      </trkpt>
      <trkpt lat="42.816383" lon="0.473661">
        <ele>1602.1</ele>
        <time>2013-11-09T14:07:02Z</time>
      </trkpt>
      <trkpt lat="42.816392" lon="0.473799">
        <ele>1600.7</ele>
        <time>2013-11-09T14:07:09Z</time>
      </trkpt>
      <trkpt lat="42.816393" lon="0.473925">
        <ele>1599.7</ele>
        <time>2013-11-09T14:07:16Z</time>
      </trkpt>
      <trkpt lat="42.816409" lon="0.474043">
        <ele>1598.4</ele>
        <time>2013-11-09T14:07:23Z</time>
      </trkpt>
      <trkpt lat="42.816420" lon="0.474176">
        <ele>1597.0</ele>
        <time>2013-11-09T14:07:30Z</time>
      </trkpt>
      <trkpt lat="42.816418" lon="0.474305">
        <ele>1595.7</ele>
        <time>2013-11-09T14:07:37Z</time>
      </trkpt>
      <trkpt lat="42.816411" lon="0.474441">
        <ele>1594.6</ele>
        <time>2013-11-09T14:07:44Z</time>
      </trkpt>
      <trkpt lat="42.816385" lon="0.474574">
        <ele>1593.5</ele>
        <time>2013-11-09T14:07:52Z</time>
      </trkpt>
      <trkpt lat="42.816382" lon="0.474708">
        <ele>1592.5</ele>
        <time>2013-11-09T14:07:59Z</time>
      </trkpt>
      <trkpt lat="42.816391" lon="0.474839">
        <ele>1590.9</ele>
        <time>2013-11-09T14:08:08Z</time>
      </trkpt>
      <trkpt lat="42.816379" lon="0.474983">
        <ele>1589.4</ele>
        <time>2013-11-09T14:08:17Z</time>
      </trkpt>
      <trkpt lat="42.816389" lon="0.475127">
        <ele>1588.3</ele>
        <time>2013-11-09T14:08:25Z</time>
      </trkpt>
      <trkpt lat="42.816395" lon="0.475267">
        <ele>1586.9</ele>
        <time>2013-11-09T14:08:32Z</time>
      </trkpt>
      <trkpt lat="42.816400" lon="0.475392">
        <ele>1585.1</ele>
        <time>2013-11-09T14:08:39Z</time>
      </trkpt>
      <trkpt lat="42.816433" lon="0.475489">
        <ele>1525.6</ele>
        <time>2013-11-09T14:08:46Z</time>
      </trkpt>
      <trkpt lat="42.816503" lon="0.475588">
        <ele>1523.7</ele>
        <time>2013-11-09T14:08:53Z</time>
      </trkpt>
      <trkpt lat="42.816599" lon="0.475765">
        <ele>1521.4</ele>
        <time>2013-11-09T14:09:01Z</time>
      </trkpt>
      <trkpt lat="42.816736" lon="0.475933">
        <ele>1517.2</ele>
        <time>2013-11-09T14:09:09Z</time>
      </trkpt>
      <trkpt lat="42.816907" lon="0.476185">
        <ele>1510.7</ele>
        <time>2013-11-09T14:10:35Z</time>
      </trkpt>
      <trkpt lat="42.817160" lon="0.476409">
        <ele>1502.3</ele>
        <time>2013-11-09T14:10:43Z</time>
      </trkpt>
      <trkpt lat="42.817380" lon="0.476689">
        <ele>1495.4</ele>
        <time>2013-11-09T14:10:50Z</time>
      </trkpt>
      <trkpt lat="42.817585" lon="0.477165">
        <ele>1482.5</ele>
        <time>2013-11-09T14:10:58Z</time>
      </trkpt>
      <trkpt lat="42.817751" lon="0.477689">
        <ele>1466.2</ele>
        <time>2013-11-09T14:13:04Z</time>
      </trkpt>
      <trkpt lat="42.817822" lon="0.477954">
        <ele>1457.3</ele>
        <time>2013-11-09T14:13:16Z</time>
      </trkpt>
      <trkpt lat="42.817861" lon="0.478229">
        <ele>1449.9</ele>
        <time>2013-11-09T14:13:30Z</time>
      </trkpt>
      <trkpt lat="42.817845" lon="0.478429">
        <ele>1447.2</ele>
        <time>2013-11-09T14:13:51Z</time>
      </trkpt>
      <trkpt lat="42.817833" lon="0.478618">
        <ele>1443.9</ele>
        <time>2013-11-09T14:14:08Z</time>
      </trkpt>
      <trkpt lat="42.817837" lon="0.478757">
        <ele>1441.1</ele>
        <time>2013-11-09T14:14:58Z</time>
      </trkpt>
      <trkpt lat="42.817840" lon="0.478828">
        <ele>1513.5</ele>
        <time>2013-11-09T14:15:11Z</time>
      </trkpt>
      <trkpt lat="42.817823" lon="0.479001">
        <ele>1511.2</ele>
        <time>2013-11-09T14:15:22Z</time>
      </trkpt>
      <trkpt lat="42.817824" lon="0.479195">
        <ele>1508.4</ele>
        <time>2013-11-09T14:15:31Z</time>
      </trkpt>
      <trkpt lat="42.817811" lon="0.479392">
        <ele>1505.6</ele>
        <time>2013-11-09T14:15:39Z</time>
      </trkpt>
      <trkpt lat="42.817776" lon="0.479516">
        <ele>1502.8</ele>
        <time>2013-11-09T14:15:48Z</time>
      </trkpt>
      <trkpt lat="42.817749" lon="0.479662">
        <ele>1500.2</ele>
        <time>2013-11-09T14:15:59Z</time>
      </trkpt>
      <trkpt lat="42.817712" lon="0.479793">
        <ele>1497.2</ele>
        <time>2013-11-09T14:16:08Z</time>
      </trkpt>
      <trkpt lat="42.817654" lon="0.479925">
        <ele>1493.5</ele>
        <time>2013-11-09T14:16:19Z</time>
      </trkpt>
      <trkpt lat="42.817594" lon="0.480031">
        <ele>1490.6</ele>
        <time>2013-11-09T14:16:27Z</time>
      </trkpt>
      <trkpt lat="42.817594" lon="0.480152">
        <ele>1486.4</ele>
        <time>2013-11-09T14:16:39Z</time>
      </trkpt>
      <trkpt lat="42.817656" lon="0.480094">
        <ele>1482.2</ele>
        <time>2013-11-09T14:17:01Z</time>
      </trkpt>
      <trkpt lat="42.817588" lon="0.480138">
        <ele>1481.4</ele>
        <time>2013-11-09T14:17:18Z</time>
      </trkpt>
      <trkpt lat="42.817525" lon="0.480186">
        <ele>1481.0</ele>
        <time>2013-11-09T14:17:31Z</time>
      </trkpt>
      <trkpt lat="42.817571" lon="0.480263">
        <ele>1480.8</ele>
        <time>2013-11-09T14:17:55Z</time>
      </trkpt>
      <trkpt lat="42.817522" lon="0.480405">
        <ele>1478.4</ele>
        <time>2013-11-09T14:18:08Z</time>
      </trkpt>
      <trkpt lat="42.817523" lon="0.480501">
        <ele>1475.9</ele>
        <time>2013-11-09T14:18:16Z</time>
      </trkpt>
      <trkpt lat="42.817485" lon="0.480637">
        <ele>1471.8</ele>
        <time>2013-11-09T14:18:29Z</time>
      </trkpt>
      <trkpt lat="42.817447" lon="0.480791">
        <ele>1468.8</ele>
        <time>2013-11-09T14:18:40Z</time>
      </trkpt>
      <trkpt lat="42.817379" lon="0.480890">
        <ele>1465.8</ele>
        <time>2013-11-09T14:18:50Z</time>
      </trkpt>
      <trkpt lat="42.817343" lon="0.480986">
        <ele>1462.4</ele>
        <time>2013-11-09T14:19:03Z</time>
      </trkpt>
      <trkpt lat="42.817365" lon="0.481132">
        <ele>1459.5</ele>
        <time>2013-11-09T14:19:13Z</time>
      </trkpt>
      <trkpt lat="42.817281" lon="0.481243">
        <ele>1456.1</ele>
        <time>2013-11-09T14:19:25Z</time>
      </trkpt>
      <trkpt lat="42.817197" lon="0.481341">
        <ele>1453.9</ele>
        <time>2013-11-09T14:19:35Z</time>
      </trkpt>
      <trkpt lat="42.817140" lon="0.481480">
        <ele>1451.0</ele>
        <time>2013-11-09T14:19:47Z</time>
      </trkpt>
      <trkpt lat="42.817031" lon="0.481574">
        <ele>1447.2</ele>
        <time>2013-11-09T14:20:04Z</time>
      </trkpt>
      <trkpt lat="42.816974" lon="0.481614">
        <ele>1443.5</ele>
        <time>2013-11-09T14:20:17Z</time>
      </trkpt>
      <trkpt lat="42.816981" lon="0.481736">
        <ele>1440.1</ele>
        <time>2013-11-09T14:20:32Z</time>
      </trkpt>
      <trkpt lat="42.816911" lon="0.481845">
        <ele>1435.4</ele>
        <time>2013-11-09T14:20:44Z</time>
      </trkpt>
      <trkpt lat="42.816863" lon="0.481934">
        <ele>1430.8</ele>
        <time>2013-11-09T14:20:57Z</time>
      </trkpt>
      <trkpt lat="42.816920" lon="0.482107">
        <ele>1427.8</ele>
        <time>2013-11-09T14:21:15Z</time>
      </trkpt>
      <trkpt lat="42.816979" lon="0.482183">
        <ele>1422.6</ele>
        <time>2013-11-09T14:21:31Z</time>
      </trkpt>
      <trkpt lat="42.817049" lon="0.482302">
        <ele>1417.9</ele>
        <time>2013-11-09T14:21:44Z</time>
      </trkpt>
      <trkpt lat="42.817107" lon="0.482270">
        <ele>1415.6</ele>
        <time>2013-11-09T14:22:10Z</time>
      </trkpt>
      <trkpt lat="42.817171" lon="0.482276">
        <ele>1412.6</ele>
        <time>2013-11-09T14:22:22Z</time>
      </trkpt>
      <trkpt lat="42.817245" lon="0.482324">
        <ele>1408.7</ele>
        <time>2013-11-09T14:22:35Z</time>
      </trkpt>
      <trkpt lat="42.817306" lon="0.482387">
        <ele>1403.2</ele>
        <time>2013-11-09T14:22:47Z</time>
      </trkpt>
      <trkpt lat="42.817366" lon="0.482477">
        <ele>1398.2</ele>
        <time>2013-11-09T14:22:59Z</time>
      </trkpt>
      <trkpt lat="42.817460" lon="0.482536">
        <ele>1392.8</ele>
        <time>2013-11-09T14:23:11Z</time>
      </trkpt>
      <trkpt lat="42.817518" lon="0.482629">
        <ele>1387.0</ele>
        <time>2013-11-09T14:23:24Z</time>
      </trkpt>
      <trkpt lat="42.817564" lon="0.482715">
        <ele>1380.7</ele>
        <time>2013-11-09T14:23:39Z</time>
      </trkpt>
      <trkpt lat="42.817552" lon="0.482774">
        <ele>1379.2</ele>
        <time>2013-11-09T14:24:04Z</time>
      </trkpt>
      <trkpt lat="42.817587" lon="0.482897">
        <ele>1374.0</ele>
        <time>2013-11-09T14:24:18Z</time>
      </trkpt>
      <trkpt lat="42.817559" lon="0.483025">
        <ele>1369.1</ele>
        <time>2013-11-09T14:24:29Z</time>
      </trkpt>
      <trkpt lat="42.817576" lon="0.483117">
        <ele>1365.3</ele>
        <time>2013-11-09T14:24:40Z</time>
      </trkpt>
      <trkpt lat="42.817617" lon="0.483199">
        <ele>1361.1</ele>
        <time>2013-11-09T14:24:52Z</time>
      </trkpt>
      <trkpt lat="42.817680" lon="0.483264">
        <ele>1358.0</ele>
        <time>2013-11-09T14:25:05Z</time>
      </trkpt>
      <trkpt lat="42.817722" lon="0.483349">
        <ele>1355.7</ele>
        <time>2013-11-09T14:25:16Z</time>
      </trkpt>
      <trkpt lat="42.817820" lon="0.483383">
        <ele>1353.3</ele>
        <time>2013-11-09T14:25:22Z</time>
      </trkpt>
      <trkpt lat="42.817908" lon="0.483333">
        <ele>1351.5</ele>
        <time>2013-11-09T14:25:29Z</time>
      </trkpt>
      <trkpt lat="42.817904" lon="0.483433">
        <ele>1347.7</ele>
        <time>2013-11-09T14:25:42Z</time>
      </trkpt>
      <trkpt lat="42.817826" lon="0.483533">
        <ele>1343.8</ele>
        <time>2013-11-09T14:25:56Z</time>
      </trkpt>
      <trkpt lat="42.817821" lon="0.483625">
        <ele>1342.2</ele>
        <time>2013-11-09T14:26:25Z</time>
      </trkpt>
      <trkpt lat="42.817868" lon="0.483713">
        <ele>1337.9</ele>
        <time>2013-11-09T14:26:37Z</time>
      </trkpt>
      <trkpt lat="42.817799" lon="0.483844">
        <ele>1334.9</ele>
        <time>2013-11-09T14:27:01Z</time>
      </trkpt>
      <trkpt lat="42.817732" lon="0.483965">
        <ele>1332.8</ele>
        <time>2013-11-09T14:27:11Z</time>
      </trkpt>
      <trkpt lat="42.817657" lon="0.484052">
        <ele>1330.2</ele>
        <time>2013-11-09T14:27:23Z</time>
      </trkpt>
      <trkpt lat="42.817595" lon="0.484193">
        <ele>1326.7</ele>
        <time>2013-11-09T14:27:36Z</time>
      </trkpt>
      <trkpt lat="42.817546" lon="0.484313">
        <ele>1323.8</ele>
        <time>2013-11-09T14:27:48Z</time>
      </trkpt>
      <trkpt lat="42.817504" lon="0.484478">
        <ele>1321.2</ele>
        <time>2013-11-09T14:28:00Z</time>
      </trkpt>
      <trkpt lat="42.817513" lon="0.484611">
        <ele>1318.9</ele>
        <time>2013-11-09T14:28:11Z</time>
      </trkpt>
      <trkpt lat="42.817532" lon="0.484738">
        <ele>1315.1</ele>
        <time>2013-11-09T14:28:23Z</time>
      </trkpt>
      <trkpt lat="42.817523" lon="0.484846">
        <ele>1312.2</ele>
        <time>2013-11-09T14:28:32Z</time>
      </trkpt>
      <trkpt lat="42.817621" lon="0.484964">
        <ele>1309.3</ele>
        <time>2013-11-09T14:28:44Z</time>
      </trkpt>
      <trkpt lat="42.817711" lon="0.485056">
        <ele>1307.3</ele>
        <time>2013-11-09T14:28:53Z</time>
      </trkpt>
      <trkpt lat="42.817781" lon="0.485158">
        <ele>1306.4</ele>
        <time>2013-11-09T14:29:01Z</time>
      </trkpt>
      <trkpt lat="42.817840" lon="0.485283">
        <ele>1306.0</ele>
        <time>2013-11-09T14:29:10Z</time>
      </trkpt>
      <trkpt lat="42.817864" lon="0.485368">
        <ele>1304.5</ele>
        <time>2013-11-09T14:29:31Z</time>
      </trkpt>
      <trkpt lat="42.817885" lon="0.485499">
        <ele>1305.4</ele>
        <time>2013-11-09T14:29:40Z</time>
      </trkpt>
      <trkpt lat="42.817903" lon="0.485643">
        <ele>1305.7</ele>
        <time>2013-11-09T14:29:49Z</time>
      </trkpt>
      <trkpt lat="42.817901" lon="0.485809">
        <ele>1307.0</ele>
        <time>2013-11-09T14:30:01Z</time>
      </trkpt>
      <trkpt lat="42.817910" lon="0.485946">
        <ele>1308.6</ele>
        <time>2013-11-09T14:30:10Z</time>
      </trkpt>
      <trkpt lat="42.817922" lon="0.486067">
        <ele>1310.3</ele>
        <time>2013-11-09T14:30:19Z</time>
      </trkpt>
      <trkpt lat="42.817941" lon="0.486200">
        <ele>1312.8</ele>
        <time>2013-11-09T14:30:31Z</time>
      </trkpt>
      <trkpt lat="42.817866" lon="0.486355">
        <ele>1314.8</ele>
        <time>2013-11-09T14:30:43Z</time>
      </trkpt>
      <trkpt lat="42.817765" lon="0.486431">
        <ele>1315.9</ele>
        <time>2013-11-09T14:30:51Z</time>
      </trkpt>
      <trkpt lat="42.817676" lon="0.486480">
        <ele>1316.6</ele>
        <time>2013-11-09T14:30:58Z</time>
      </trkpt>
      <trkpt lat="42.817619" lon="0.486565">
        <ele>1317.3</ele>
        <time>2013-11-09T14:31:06Z</time>
      </trkpt>
      <trkpt lat="42.817598" lon="0.486680">
        <ele>1317.3</ele>
        <time>2013-11-09T14:31:18Z</time>
      </trkpt>
      <trkpt lat="42.817605" lon="0.486824">
        <ele>1318.6</ele>
        <time>2013-11-09T14:31:30Z</time>
      </trkpt>
      <trkpt lat="42.817645" lon="0.486969">
        <ele>1320.5</ele>
        <time>2013-11-09T14:31:41Z</time>
      </trkpt>
      <trkpt lat="42.817599" lon="0.487098">
        <ele>1322.3</ele>
        <time>2013-11-09T14:31:52Z</time>
      </trkpt>
    </trkseg>
  </trk>
</gpx>

